<?xml version="1.0" encoding="UTF-8" standalone="no" ?>
<gpx xmlns="http://www.topografix.com/GPX/1/1" xmlns:xsi="http://www.w3.org/2001/XMLSchema-instance" xsi:schemaLocation="http://www.topografix.com/GPX/1/1 http://www.topografix.com/GPX/1/1/gpx.xsd" version="1.1" creator="VisuGPX - https://www.visugpx.com">
  <metadata>
    <name>2017 10 08 Lavérune-Gardiole (Cit-Art) 44 Km D 360m</name>
    <desc><![CDATA[Départ du centre de Lavérune pour prendre la piste cyclable; crochet par l'abbaye de Vignogoul. Arrivée au parking de la tortue sur la D114 , point de départ du circuit Cit'Art. Retour par Saussan.]]></desc>
  </metadata>
  <trk>
    <name><![CDATA[2017-10-08 17:16:20]]></name>
    <trkseg>
      <trkpt lat="43.5844" lon="3.80268">
        <ele>44.84</ele>
        <time>2017-10-08T09:59:27Z</time>
      </trkpt>
      <trkpt lat="43.58427" lon="3.80252">
        <ele>53.49</ele>
        <time>2017-10-08T09:59:42Z</time>
      </trkpt>
      <trkpt lat="43.58421" lon="3.80254">
        <ele>41.95</ele>
        <time>2017-10-08T10:00:04Z</time>
      </trkpt>
      <trkpt lat="43.5843" lon="3.80254">
        <ele>36.19</ele>
        <time>2017-10-08T10:00:18Z</time>
      </trkpt>
      <trkpt lat="43.58432" lon="3.80256">
        <ele>35.71</ele>
        <time>2017-10-08T10:00:20Z</time>
      </trkpt>
      <trkpt lat="43.58438" lon="3.80258">
        <ele>35.23</ele>
        <time>2017-10-08T10:00:24Z</time>
      </trkpt>
      <trkpt lat="43.58446" lon="3.80255">
        <ele>35.71</ele>
        <time>2017-10-08T10:00:31Z</time>
      </trkpt>
      <trkpt lat="43.58471" lon="3.80222">
        <ele>33.78</ele>
        <time>2017-10-08T10:00:46Z</time>
      </trkpt>
      <trkpt lat="43.58499" lon="3.80181">
        <ele>33.78</ele>
        <time>2017-10-08T10:01:01Z</time>
      </trkpt>
      <trkpt lat="43.58527" lon="3.8015">
        <ele>35.23</ele>
        <time>2017-10-08T10:01:14Z</time>
      </trkpt>
      <trkpt lat="43.5856" lon="3.80099">
        <ele>36.19</ele>
        <time>2017-10-08T10:01:31Z</time>
      </trkpt>
      <trkpt lat="43.58595" lon="3.80044">
        <ele>36.67</ele>
        <time>2017-10-08T10:01:49Z</time>
      </trkpt>
      <trkpt lat="43.58637" lon="3.79978">
        <ele>35.71</ele>
        <time>2017-10-08T10:02:10Z</time>
      </trkpt>
      <trkpt lat="43.5867" lon="3.79927">
        <ele>36.19</ele>
        <time>2017-10-08T10:02:26Z</time>
      </trkpt>
      <trkpt lat="43.58685" lon="3.79874">
        <ele>36.67</ele>
        <time>2017-10-08T10:02:40Z</time>
      </trkpt>
      <trkpt lat="43.58666" lon="3.79843">
        <ele>31.86</ele>
        <time>2017-10-08T10:02:49Z</time>
      </trkpt>
      <trkpt lat="43.58654" lon="3.79829">
        <ele>28.5</ele>
        <time>2017-10-08T10:02:53Z</time>
      </trkpt>
      <trkpt lat="43.58651" lon="3.79824">
        <ele>27.53</ele>
        <time>2017-10-08T10:02:54Z</time>
      </trkpt>
      <trkpt lat="43.58648" lon="3.7982">
        <ele>27.05</ele>
        <time>2017-10-08T10:02:55Z</time>
      </trkpt>
      <trkpt lat="43.58624" lon="3.7979">
        <ele>22.73</ele>
        <time>2017-10-08T10:03:03Z</time>
      </trkpt>
      <trkpt lat="43.58623" lon="3.79787">
        <ele>23.21</ele>
        <time>2017-10-08T10:03:04Z</time>
      </trkpt>
      <trkpt lat="43.58622" lon="3.79783">
        <ele>23.69</ele>
        <time>2017-10-08T10:03:05Z</time>
      </trkpt>
      <trkpt lat="43.5862" lon="3.7978">
        <ele>23.69</ele>
        <time>2017-10-08T10:03:06Z</time>
      </trkpt>
      <trkpt lat="43.58618" lon="3.79778">
        <ele>24.17</ele>
        <time>2017-10-08T10:03:07Z</time>
      </trkpt>
      <trkpt lat="43.58616" lon="3.79776">
        <ele>24.17</ele>
        <time>2017-10-08T10:03:08Z</time>
      </trkpt>
      <trkpt lat="43.58613" lon="3.79774">
        <ele>24.65</ele>
        <time>2017-10-08T10:03:09Z</time>
      </trkpt>
      <trkpt lat="43.5861" lon="3.79773">
        <ele>25.13</ele>
        <time>2017-10-08T10:03:10Z</time>
      </trkpt>
      <trkpt lat="43.58607" lon="3.7977">
        <ele>25.13</ele>
        <time>2017-10-08T10:03:11Z</time>
      </trkpt>
      <trkpt lat="43.58589" lon="3.79749">
        <ele>25.13</ele>
        <time>2017-10-08T10:03:18Z</time>
      </trkpt>
      <trkpt lat="43.58589" lon="3.79745">
        <ele>24.65</ele>
        <time>2017-10-08T10:03:19Z</time>
      </trkpt>
      <trkpt lat="43.58589" lon="3.79742">
        <ele>25.61</ele>
        <time>2017-10-08T10:03:20Z</time>
      </trkpt>
      <trkpt lat="43.58596" lon="3.79733">
        <ele>27.53</ele>
        <time>2017-10-08T10:03:23Z</time>
      </trkpt>
      <trkpt lat="43.58673" lon="3.79722">
        <ele>29.94</ele>
        <time>2017-10-08T10:03:41Z</time>
      </trkpt>
      <trkpt lat="43.58719" lon="3.79706">
        <ele>30.9</ele>
        <time>2017-10-08T10:03:53Z</time>
      </trkpt>
      <trkpt lat="43.58734" lon="3.79695">
        <ele>31.38</ele>
        <time>2017-10-08T10:03:57Z</time>
      </trkpt>
      <trkpt lat="43.58766" lon="3.7968">
        <ele>33.3</ele>
        <time>2017-10-08T10:04:06Z</time>
      </trkpt>
      <trkpt lat="43.58771" lon="3.79653">
        <ele>31.86</ele>
        <time>2017-10-08T10:04:15Z</time>
      </trkpt>
      <trkpt lat="43.58772" lon="3.79648">
        <ele>28.02</ele>
        <time>2017-10-08T10:04:32Z</time>
      </trkpt>
      <trkpt lat="43.58773" lon="3.79648">
        <ele>26.57</ele>
        <time>2017-10-08T10:04:47Z</time>
      </trkpt>
      <trkpt lat="43.58778" lon="3.79644">
        <ele>26.57</ele>
        <time>2017-10-08T10:04:57Z</time>
      </trkpt>
      <trkpt lat="43.58789" lon="3.7963">
        <ele>24.17</ele>
        <time>2017-10-08T10:05:12Z</time>
      </trkpt>
      <trkpt lat="43.5879" lon="3.79625">
        <ele>24.17</ele>
        <time>2017-10-08T10:05:18Z</time>
      </trkpt>
      <trkpt lat="43.58791" lon="3.79606">
        <ele>27.05</ele>
        <time>2017-10-08T10:05:33Z</time>
      </trkpt>
      <trkpt lat="43.58791" lon="3.79605">
        <ele>27.53</ele>
        <time>2017-10-08T10:05:35Z</time>
      </trkpt>
      <trkpt lat="43.58788" lon="3.79601">
        <ele>28.5</ele>
        <time>2017-10-08T10:05:40Z</time>
      </trkpt>
      <trkpt lat="43.58771" lon="3.79572">
        <ele>30.9</ele>
        <time>2017-10-08T10:05:58Z</time>
      </trkpt>
      <trkpt lat="43.58752" lon="3.79556">
        <ele>31.38</ele>
        <time>2017-10-08T10:06:12Z</time>
      </trkpt>
      <trkpt lat="43.58732" lon="3.79518">
        <ele>33.78</ele>
        <time>2017-10-08T10:06:26Z</time>
      </trkpt>
      <trkpt lat="43.58707" lon="3.79468">
        <ele>33.3</ele>
        <time>2017-10-08T10:06:40Z</time>
      </trkpt>
      <trkpt lat="43.58682" lon="3.79416">
        <ele>34.26</ele>
        <time>2017-10-08T10:06:53Z</time>
      </trkpt>
      <trkpt lat="43.5865" lon="3.79338">
        <ele>33.78</ele>
        <time>2017-10-08T10:07:10Z</time>
      </trkpt>
      <trkpt lat="43.58626" lon="3.79251">
        <ele>32.34</ele>
        <time>2017-10-08T10:07:26Z</time>
      </trkpt>
      <trkpt lat="43.58606" lon="3.79143">
        <ele>35.23</ele>
        <time>2017-10-08T10:07:43Z</time>
      </trkpt>
      <trkpt lat="43.586" lon="3.79084">
        <ele>35.23</ele>
        <time>2017-10-08T10:07:52Z</time>
      </trkpt>
      <trkpt lat="43.58599" lon="3.79059">
        <ele>34.74</ele>
        <time>2017-10-08T10:07:56Z</time>
      </trkpt>
      <trkpt lat="43.58604" lon="3.78974">
        <ele>36.19</ele>
        <time>2017-10-08T10:08:11Z</time>
      </trkpt>
      <trkpt lat="43.58607" lon="3.78973">
        <ele>36.19</ele>
        <time>2017-10-08T10:08:12Z</time>
      </trkpt>
      <trkpt lat="43.58617" lon="3.78972">
        <ele>36.19</ele>
        <time>2017-10-08T10:08:15Z</time>
      </trkpt>
      <trkpt lat="43.58621" lon="3.7897">
        <ele>36.19</ele>
        <time>2017-10-08T10:08:16Z</time>
      </trkpt>
      <trkpt lat="43.58625" lon="3.78968">
        <ele>36.19</ele>
        <time>2017-10-08T10:08:17Z</time>
      </trkpt>
      <trkpt lat="43.58629" lon="3.78965">
        <ele>36.19</ele>
        <time>2017-10-08T10:08:18Z</time>
      </trkpt>
      <trkpt lat="43.58632" lon="3.78963">
        <ele>36.19</ele>
        <time>2017-10-08T10:08:19Z</time>
      </trkpt>
      <trkpt lat="43.58651" lon="3.78948">
        <ele>36.19</ele>
        <time>2017-10-08T10:08:24Z</time>
      </trkpt>
      <trkpt lat="43.58654" lon="3.78945">
        <ele>36.19</ele>
        <time>2017-10-08T10:08:25Z</time>
      </trkpt>
      <trkpt lat="43.58676" lon="3.78926">
        <ele>36.67</ele>
        <time>2017-10-08T10:08:31Z</time>
      </trkpt>
      <trkpt lat="43.58729" lon="3.78896">
        <ele>39.07</ele>
        <time>2017-10-08T10:08:47Z</time>
      </trkpt>
      <trkpt lat="43.58772" lon="3.78865">
        <ele>42.44</ele>
        <time>2017-10-08T10:09:02Z</time>
      </trkpt>
      <trkpt lat="43.58809" lon="3.78865">
        <ele>44.36</ele>
        <time>2017-10-08T10:09:13Z</time>
      </trkpt>
      <trkpt lat="43.58846" lon="3.78862">
        <ele>46.28</ele>
        <time>2017-10-08T10:09:25Z</time>
      </trkpt>
      <trkpt lat="43.58889" lon="3.78897">
        <ele>46.76</ele>
        <time>2017-10-08T10:09:38Z</time>
      </trkpt>
      <trkpt lat="43.58942" lon="3.78914">
        <ele>45.8</ele>
        <time>2017-10-08T10:09:52Z</time>
      </trkpt>
      <trkpt lat="43.58996" lon="3.78916">
        <ele>44.84</ele>
        <time>2017-10-08T10:10:06Z</time>
      </trkpt>
      <trkpt lat="43.59052" lon="3.78917">
        <ele>45.8</ele>
        <time>2017-10-08T10:10:21Z</time>
      </trkpt>
      <trkpt lat="43.59094" lon="3.789">
        <ele>45.32</ele>
        <time>2017-10-08T10:10:34Z</time>
      </trkpt>
      <trkpt lat="43.59134" lon="3.78896">
        <ele>44.36</ele>
        <time>2017-10-08T10:10:46Z</time>
      </trkpt>
      <trkpt lat="43.59156" lon="3.789">
        <ele>42.44</ele>
        <time>2017-10-08T10:10:55Z</time>
      </trkpt>
      <trkpt lat="43.59186" lon="3.78866">
        <ele>43.4</ele>
        <time>2017-10-08T10:11:09Z</time>
      </trkpt>
      <trkpt lat="43.59212" lon="3.78837">
        <ele>45.32</ele>
        <time>2017-10-08T10:11:21Z</time>
      </trkpt>
      <trkpt lat="43.59212" lon="3.78835">
        <ele>45.32</ele>
        <time>2017-10-08T10:11:22Z</time>
      </trkpt>
      <trkpt lat="43.59209" lon="3.78839">
        <ele>44.84</ele>
        <time>2017-10-08T10:11:26Z</time>
      </trkpt>
      <trkpt lat="43.59207" lon="3.78842">
        <ele>44.36</ele>
        <time>2017-10-08T10:11:27Z</time>
      </trkpt>
      <trkpt lat="43.59206" lon="3.78844">
        <ele>44.36</ele>
        <time>2017-10-08T10:11:28Z</time>
      </trkpt>
      <trkpt lat="43.59175" lon="3.78876">
        <ele>43.88</ele>
        <time>2017-10-08T10:11:39Z</time>
      </trkpt>
      <trkpt lat="43.59155" lon="3.78893">
        <ele>44.36</ele>
        <time>2017-10-08T10:11:46Z</time>
      </trkpt>
      <trkpt lat="43.59135" lon="3.78899">
        <ele>41.95</ele>
        <time>2017-10-08T10:11:52Z</time>
      </trkpt>
      <trkpt lat="43.59134" lon="3.78902">
        <ele>41.95</ele>
        <time>2017-10-08T10:11:53Z</time>
      </trkpt>
      <trkpt lat="43.59134" lon="3.78905">
        <ele>41.47</ele>
        <time>2017-10-08T10:11:54Z</time>
      </trkpt>
      <trkpt lat="43.59135" lon="3.78908">
        <ele>41.47</ele>
        <time>2017-10-08T10:11:55Z</time>
      </trkpt>
      <trkpt lat="43.59136" lon="3.7891">
        <ele>40.99</ele>
        <time>2017-10-08T10:11:56Z</time>
      </trkpt>
      <trkpt lat="43.59138" lon="3.78913">
        <ele>40.51</ele>
        <time>2017-10-08T10:11:57Z</time>
      </trkpt>
      <trkpt lat="43.59146" lon="3.78919">
        <ele>39.07</ele>
        <time>2017-10-08T10:12:01Z</time>
      </trkpt>
      <trkpt lat="43.59164" lon="3.78904">
        <ele>38.11</ele>
        <time>2017-10-08T10:12:12Z</time>
      </trkpt>
      <trkpt lat="43.59193" lon="3.78872">
        <ele>40.51</ele>
        <time>2017-10-08T10:12:28Z</time>
      </trkpt>
      <trkpt lat="43.59226" lon="3.78841">
        <ele>45.32</ele>
        <time>2017-10-08T10:12:45Z</time>
      </trkpt>
      <trkpt lat="43.59232" lon="3.78833">
        <ele>46.76</ele>
        <time>2017-10-08T10:12:49Z</time>
      </trkpt>
      <trkpt lat="43.59234" lon="3.78831">
        <ele>46.76</ele>
        <time>2017-10-08T10:12:50Z</time>
      </trkpt>
      <trkpt lat="43.59236" lon="3.7883">
        <ele>47.24</ele>
        <time>2017-10-08T10:12:51Z</time>
      </trkpt>
      <trkpt lat="43.59248" lon="3.78824">
        <ele>47.72</ele>
        <time>2017-10-08T10:12:58Z</time>
      </trkpt>
      <trkpt lat="43.5925" lon="3.78811">
        <ele>48.2</ele>
        <time>2017-10-08T10:13:05Z</time>
      </trkpt>
      <trkpt lat="43.59254" lon="3.78799">
        <ele>48.2</ele>
        <time>2017-10-08T10:13:13Z</time>
      </trkpt>
      <trkpt lat="43.59248" lon="3.78807">
        <ele>47.72</ele>
        <time>2017-10-08T10:13:19Z</time>
      </trkpt>
      <trkpt lat="43.59235" lon="3.78831">
        <ele>50.61</ele>
        <time>2017-10-08T10:13:32Z</time>
      </trkpt>
      <trkpt lat="43.59234" lon="3.78838">
        <ele>52.53</ele>
        <time>2017-10-08T10:13:47Z</time>
      </trkpt>
      <trkpt lat="43.59206" lon="3.78862">
        <ele>51.57</ele>
        <time>2017-10-08T10:14:00Z</time>
      </trkpt>
      <trkpt lat="43.59174" lon="3.78897">
        <ele>50.13</ele>
        <time>2017-10-08T10:14:12Z</time>
      </trkpt>
      <trkpt lat="43.59149" lon="3.78923">
        <ele>48.68</ele>
        <time>2017-10-08T10:14:20Z</time>
      </trkpt>
      <trkpt lat="43.59149" lon="3.78929">
        <ele>47.24</ele>
        <time>2017-10-08T10:14:22Z</time>
      </trkpt>
      <trkpt lat="43.59151" lon="3.78932">
        <ele>46.28</ele>
        <time>2017-10-08T10:14:23Z</time>
      </trkpt>
      <trkpt lat="43.5917" lon="3.78972">
        <ele>42.92</ele>
        <time>2017-10-08T10:14:32Z</time>
      </trkpt>
      <trkpt lat="43.59187" lon="3.79004">
        <ele>42.92</ele>
        <time>2017-10-08T10:14:39Z</time>
      </trkpt>
      <trkpt lat="43.59191" lon="3.79006">
        <ele>42.92</ele>
        <time>2017-10-08T10:14:40Z</time>
      </trkpt>
      <trkpt lat="43.59194" lon="3.79006">
        <ele>42.92</ele>
        <time>2017-10-08T10:14:41Z</time>
      </trkpt>
      <trkpt lat="43.59197" lon="3.79005">
        <ele>43.4</ele>
        <time>2017-10-08T10:14:42Z</time>
      </trkpt>
      <trkpt lat="43.592" lon="3.79002">
        <ele>43.88</ele>
        <time>2017-10-08T10:14:43Z</time>
      </trkpt>
      <trkpt lat="43.59201" lon="3.79">
        <ele>43.88</ele>
        <time>2017-10-08T10:14:44Z</time>
      </trkpt>
      <trkpt lat="43.59203" lon="3.78996">
        <ele>43.88</ele>
        <time>2017-10-08T10:14:45Z</time>
      </trkpt>
      <trkpt lat="43.59205" lon="3.78993">
        <ele>44.36</ele>
        <time>2017-10-08T10:14:46Z</time>
      </trkpt>
      <trkpt lat="43.59232" lon="3.78926">
        <ele>48.2</ele>
        <time>2017-10-08T10:15:04Z</time>
      </trkpt>
      <trkpt lat="43.59271" lon="3.78855">
        <ele>48.68</ele>
        <time>2017-10-08T10:15:22Z</time>
      </trkpt>
      <trkpt lat="43.59309" lon="3.78774">
        <ele>49.16</ele>
        <time>2017-10-08T10:15:40Z</time>
      </trkpt>
      <trkpt lat="43.5932" lon="3.7875">
        <ele>49.65</ele>
        <time>2017-10-08T10:15:45Z</time>
      </trkpt>
      <trkpt lat="43.59327" lon="3.78735">
        <ele>50.13</ele>
        <time>2017-10-08T10:15:48Z</time>
      </trkpt>
      <trkpt lat="43.59337" lon="3.78716">
        <ele>49.65</ele>
        <time>2017-10-08T10:15:52Z</time>
      </trkpt>
      <trkpt lat="43.59378" lon="3.78644">
        <ele>48.68</ele>
        <time>2017-10-08T10:16:07Z</time>
      </trkpt>
      <trkpt lat="43.59387" lon="3.78629">
        <ele>48.2</ele>
        <time>2017-10-08T10:16:10Z</time>
      </trkpt>
      <trkpt lat="43.59393" lon="3.78618">
        <ele>48.2</ele>
        <time>2017-10-08T10:16:12Z</time>
      </trkpt>
      <trkpt lat="43.5945" lon="3.78528">
        <ele>48.2</ele>
        <time>2017-10-08T10:16:29Z</time>
      </trkpt>
      <trkpt lat="43.59518" lon="3.7842">
        <ele>47.72</ele>
        <time>2017-10-08T10:16:48Z</time>
      </trkpt>
      <trkpt lat="43.59566" lon="3.78343">
        <ele>48.2</ele>
        <time>2017-10-08T10:17:02Z</time>
      </trkpt>
      <trkpt lat="43.59589" lon="3.78306">
        <ele>47.24</ele>
        <time>2017-10-08T10:17:09Z</time>
      </trkpt>
      <trkpt lat="43.59592" lon="3.78301">
        <ele>47.24</ele>
        <time>2017-10-08T10:17:10Z</time>
      </trkpt>
      <trkpt lat="43.59595" lon="3.78295">
        <ele>47.24</ele>
        <time>2017-10-08T10:17:11Z</time>
      </trkpt>
      <trkpt lat="43.59657" lon="3.782">
        <ele>49.65</ele>
        <time>2017-10-08T10:17:30Z</time>
      </trkpt>
      <trkpt lat="43.59667" lon="3.78188">
        <ele>50.13</ele>
        <time>2017-10-08T10:17:36Z</time>
      </trkpt>
      <trkpt lat="43.59666" lon="3.78186">
        <ele>50.13</ele>
        <time>2017-10-08T10:17:37Z</time>
      </trkpt>
      <trkpt lat="43.59662" lon="3.78181">
        <ele>50.61</ele>
        <time>2017-10-08T10:17:41Z</time>
      </trkpt>
      <trkpt lat="43.59661" lon="3.78179">
        <ele>50.61</ele>
        <time>2017-10-08T10:17:42Z</time>
      </trkpt>
      <trkpt lat="43.59659" lon="3.78175">
        <ele>50.61</ele>
        <time>2017-10-08T10:17:43Z</time>
      </trkpt>
      <trkpt lat="43.59657" lon="3.78171">
        <ele>50.61</ele>
        <time>2017-10-08T10:17:44Z</time>
      </trkpt>
      <trkpt lat="43.5963" lon="3.7811">
        <ele>51.57</ele>
        <time>2017-10-08T10:17:58Z</time>
      </trkpt>
      <trkpt lat="43.59618" lon="3.78088">
        <ele>51.57</ele>
        <time>2017-10-08T10:18:03Z</time>
      </trkpt>
      <trkpt lat="43.59611" lon="3.78074">
        <ele>51.57</ele>
        <time>2017-10-08T10:18:06Z</time>
      </trkpt>
      <trkpt lat="43.59604" lon="3.7806">
        <ele>51.57</ele>
        <time>2017-10-08T10:18:09Z</time>
      </trkpt>
      <trkpt lat="43.59579" lon="3.77994">
        <ele>51.09</ele>
        <time>2017-10-08T10:18:23Z</time>
      </trkpt>
      <trkpt lat="43.5958" lon="3.77993">
        <ele>51.09</ele>
        <time>2017-10-08T10:18:24Z</time>
      </trkpt>
      <trkpt lat="43.59581" lon="3.77992">
        <ele>51.57</ele>
        <time>2017-10-08T10:18:25Z</time>
      </trkpt>
      <trkpt lat="43.59583" lon="3.7799">
        <ele>51.57</ele>
        <time>2017-10-08T10:18:26Z</time>
      </trkpt>
      <trkpt lat="43.59584" lon="3.77988">
        <ele>51.57</ele>
        <time>2017-10-08T10:18:27Z</time>
      </trkpt>
      <trkpt lat="43.59585" lon="3.77985">
        <ele>51.57</ele>
        <time>2017-10-08T10:18:28Z</time>
      </trkpt>
      <trkpt lat="43.59585" lon="3.77981">
        <ele>51.57</ele>
        <time>2017-10-08T10:18:29Z</time>
      </trkpt>
      <trkpt lat="43.59584" lon="3.77977">
        <ele>52.05</ele>
        <time>2017-10-08T10:18:30Z</time>
      </trkpt>
      <trkpt lat="43.59583" lon="3.77973">
        <ele>52.05</ele>
        <time>2017-10-08T10:18:31Z</time>
      </trkpt>
      <trkpt lat="43.59581" lon="3.7797">
        <ele>52.05</ele>
        <time>2017-10-08T10:18:32Z</time>
      </trkpt>
      <trkpt lat="43.5958" lon="3.77966">
        <ele>52.53</ele>
        <time>2017-10-08T10:18:33Z</time>
      </trkpt>
      <trkpt lat="43.59578" lon="3.77962">
        <ele>52.53</ele>
        <time>2017-10-08T10:18:34Z</time>
      </trkpt>
      <trkpt lat="43.59577" lon="3.77958">
        <ele>52.53</ele>
        <time>2017-10-08T10:18:35Z</time>
      </trkpt>
      <trkpt lat="43.59575" lon="3.77955">
        <ele>52.05</ele>
        <time>2017-10-08T10:18:36Z</time>
      </trkpt>
      <trkpt lat="43.59573" lon="3.77951">
        <ele>52.05</ele>
        <time>2017-10-08T10:18:37Z</time>
      </trkpt>
      <trkpt lat="43.59536" lon="3.7788">
        <ele>52.05</ele>
        <time>2017-10-08T10:18:54Z</time>
      </trkpt>
      <trkpt lat="43.5949" lon="3.77797">
        <ele>52.53</ele>
        <time>2017-10-08T10:19:12Z</time>
      </trkpt>
      <trkpt lat="43.59447" lon="3.77722">
        <ele>53.49</ele>
        <time>2017-10-08T10:19:28Z</time>
      </trkpt>
      <trkpt lat="43.59412" lon="3.77639">
        <ele>53.49</ele>
        <time>2017-10-08T10:19:45Z</time>
      </trkpt>
      <trkpt lat="43.59402" lon="3.77601">
        <ele>52.53</ele>
        <time>2017-10-08T10:19:57Z</time>
      </trkpt>
      <trkpt lat="43.59401" lon="3.77593">
        <ele>53.01</ele>
        <time>2017-10-08T10:19:59Z</time>
      </trkpt>
      <trkpt lat="43.59407" lon="3.77589">
        <ele>53.97</ele>
        <time>2017-10-08T10:20:04Z</time>
      </trkpt>
      <trkpt lat="43.59412" lon="3.77588">
        <ele>54.45</ele>
        <time>2017-10-08T10:20:08Z</time>
      </trkpt>
      <trkpt lat="43.59416" lon="3.77583">
        <ele>56.37</ele>
        <time>2017-10-08T10:20:29Z</time>
      </trkpt>
      <trkpt lat="43.59416" lon="3.77582">
        <ele>56.37</ele>
        <time>2017-10-08T10:20:30Z</time>
      </trkpt>
      <trkpt lat="43.59412" lon="3.77582">
        <ele>54.93</ele>
        <time>2017-10-08T10:20:34Z</time>
      </trkpt>
      <trkpt lat="43.59407" lon="3.77584">
        <ele>54.93</ele>
        <time>2017-10-08T10:20:37Z</time>
      </trkpt>
      <trkpt lat="43.59408" lon="3.77591">
        <ele>53.97</ele>
        <time>2017-10-08T10:20:43Z</time>
      </trkpt>
      <trkpt lat="43.59412" lon="3.77594">
        <ele>56.37</ele>
        <time>2017-10-08T10:20:58Z</time>
      </trkpt>
      <trkpt lat="43.59414" lon="3.77591">
        <ele>58.3</ele>
        <time>2017-10-08T10:21:24Z</time>
      </trkpt>
      <trkpt lat="43.59387" lon="3.77558">
        <ele>56.86</ele>
        <time>2017-10-08T10:21:40Z</time>
      </trkpt>
      <trkpt lat="43.59368" lon="3.77539">
        <ele>56.37</ele>
        <time>2017-10-08T10:21:53Z</time>
      </trkpt>
      <trkpt lat="43.59367" lon="3.77539">
        <ele>56.37</ele>
        <time>2017-10-08T10:22:15Z</time>
      </trkpt>
      <trkpt lat="43.59367" lon="3.7754">
        <ele>55.41</ele>
        <time>2017-10-08T10:22:57Z</time>
      </trkpt>
      <trkpt lat="43.59368" lon="3.77541">
        <ele>53.97</ele>
        <time>2017-10-08T10:23:29Z</time>
      </trkpt>
      <trkpt lat="43.59368" lon="3.77539">
        <ele>54.45</ele>
        <time>2017-10-08T10:23:58Z</time>
      </trkpt>
      <trkpt lat="43.59368" lon="3.77539">
        <ele>55.41</ele>
        <time>2017-10-08T10:24:15Z</time>
      </trkpt>
      <trkpt lat="43.59368" lon="3.7754">
        <ele>55.41</ele>
        <time>2017-10-08T10:24:41Z</time>
      </trkpt>
      <trkpt lat="43.59368" lon="3.77537">
        <ele>55.41</ele>
        <time>2017-10-08T10:25:07Z</time>
      </trkpt>
      <trkpt lat="43.59368" lon="3.77537">
        <ele>51.57</ele>
        <time>2017-10-08T10:25:38Z</time>
      </trkpt>
      <trkpt lat="43.59368" lon="3.77539">
        <ele>49.65</ele>
        <time>2017-10-08T10:26:12Z</time>
      </trkpt>
      <trkpt lat="43.59367" lon="3.77541">
        <ele>51.09</ele>
        <time>2017-10-08T10:26:24Z</time>
      </trkpt>
      <trkpt lat="43.59364" lon="3.77547">
        <ele>51.09</ele>
        <time>2017-10-08T10:26:27Z</time>
      </trkpt>
      <trkpt lat="43.59365" lon="3.7755">
        <ele>51.09</ele>
        <time>2017-10-08T10:26:28Z</time>
      </trkpt>
      <trkpt lat="43.59367" lon="3.77553">
        <ele>51.09</ele>
        <time>2017-10-08T10:26:29Z</time>
      </trkpt>
      <trkpt lat="43.59394" lon="3.77615">
        <ele>51.57</ele>
        <time>2017-10-08T10:26:46Z</time>
      </trkpt>
      <trkpt lat="43.59431" lon="3.77698">
        <ele>49.65</ele>
        <time>2017-10-08T10:27:05Z</time>
      </trkpt>
      <trkpt lat="43.5943" lon="3.77702">
        <ele>49.65</ele>
        <time>2017-10-08T10:27:06Z</time>
      </trkpt>
      <trkpt lat="43.59428" lon="3.77706">
        <ele>49.65</ele>
        <time>2017-10-08T10:27:07Z</time>
      </trkpt>
      <trkpt lat="43.59383" lon="3.77764">
        <ele>48.68</ele>
        <time>2017-10-08T10:27:23Z</time>
      </trkpt>
      <trkpt lat="43.59376" lon="3.77772">
        <ele>48.68</ele>
        <time>2017-10-08T10:27:25Z</time>
      </trkpt>
      <trkpt lat="43.59346" lon="3.77858">
        <ele>49.65</ele>
        <time>2017-10-08T10:27:40Z</time>
      </trkpt>
      <trkpt lat="43.59335" lon="3.77968">
        <ele>49.65</ele>
        <time>2017-10-08T10:27:56Z</time>
      </trkpt>
      <trkpt lat="43.59338" lon="3.78105">
        <ele>48.2</ele>
        <time>2017-10-08T10:28:16Z</time>
      </trkpt>
      <trkpt lat="43.59337" lon="3.78112">
        <ele>48.2</ele>
        <time>2017-10-08T10:28:17Z</time>
      </trkpt>
      <trkpt lat="43.59336" lon="3.78118">
        <ele>48.2</ele>
        <time>2017-10-08T10:28:18Z</time>
      </trkpt>
      <trkpt lat="43.59334" lon="3.78124">
        <ele>47.72</ele>
        <time>2017-10-08T10:28:19Z</time>
      </trkpt>
      <trkpt lat="43.59321" lon="3.78167">
        <ele>47.72</ele>
        <time>2017-10-08T10:28:26Z</time>
      </trkpt>
      <trkpt lat="43.59319" lon="3.78171">
        <ele>47.72</ele>
        <time>2017-10-08T10:28:27Z</time>
      </trkpt>
      <trkpt lat="43.59316" lon="3.78175">
        <ele>47.72</ele>
        <time>2017-10-08T10:28:28Z</time>
      </trkpt>
      <trkpt lat="43.59313" lon="3.78175">
        <ele>47.24</ele>
        <time>2017-10-08T10:28:29Z</time>
      </trkpt>
      <trkpt lat="43.59309" lon="3.78174">
        <ele>46.76</ele>
        <time>2017-10-08T10:28:30Z</time>
      </trkpt>
      <trkpt lat="43.59306" lon="3.78172">
        <ele>46.76</ele>
        <time>2017-10-08T10:28:31Z</time>
      </trkpt>
      <trkpt lat="43.59302" lon="3.7817">
        <ele>46.28</ele>
        <time>2017-10-08T10:28:32Z</time>
      </trkpt>
      <trkpt lat="43.59287" lon="3.78161">
        <ele>45.8</ele>
        <time>2017-10-08T10:28:36Z</time>
      </trkpt>
      <trkpt lat="43.59284" lon="3.78161">
        <ele>45.8</ele>
        <time>2017-10-08T10:28:37Z</time>
      </trkpt>
      <trkpt lat="43.59281" lon="3.78163">
        <ele>45.8</ele>
        <time>2017-10-08T10:28:38Z</time>
      </trkpt>
      <trkpt lat="43.59279" lon="3.78167">
        <ele>45.8</ele>
        <time>2017-10-08T10:28:39Z</time>
      </trkpt>
      <trkpt lat="43.59277" lon="3.78171">
        <ele>45.8</ele>
        <time>2017-10-08T10:28:40Z</time>
      </trkpt>
      <trkpt lat="43.59275" lon="3.78175">
        <ele>45.8</ele>
        <time>2017-10-08T10:28:41Z</time>
      </trkpt>
      <trkpt lat="43.59274" lon="3.7818">
        <ele>45.8</ele>
        <time>2017-10-08T10:28:42Z</time>
      </trkpt>
      <trkpt lat="43.59252" lon="3.78277">
        <ele>45.32</ele>
        <time>2017-10-08T10:28:58Z</time>
      </trkpt>
      <trkpt lat="43.59237" lon="3.78405">
        <ele>44.36</ele>
        <time>2017-10-08T10:29:17Z</time>
      </trkpt>
      <trkpt lat="43.59231" lon="3.78436">
        <ele>44.36</ele>
        <time>2017-10-08T10:29:22Z</time>
      </trkpt>
      <trkpt lat="43.5922" lon="3.78548">
        <ele>43.4</ele>
        <time>2017-10-08T10:29:39Z</time>
      </trkpt>
      <trkpt lat="43.59219" lon="3.78555">
        <ele>42.92</ele>
        <time>2017-10-08T10:29:40Z</time>
      </trkpt>
      <trkpt lat="43.59177" lon="3.78686">
        <ele>43.4</ele>
        <time>2017-10-08T10:30:01Z</time>
      </trkpt>
      <trkpt lat="43.59157" lon="3.78792">
        <ele>42.92</ele>
        <time>2017-10-08T10:30:19Z</time>
      </trkpt>
      <trkpt lat="43.59152" lon="3.78816">
        <ele>42.92</ele>
        <time>2017-10-08T10:30:23Z</time>
      </trkpt>
      <trkpt lat="43.59129" lon="3.7888">
        <ele>42.92</ele>
        <time>2017-10-08T10:30:34Z</time>
      </trkpt>
      <trkpt lat="43.59125" lon="3.78885">
        <ele>42.92</ele>
        <time>2017-10-08T10:30:35Z</time>
      </trkpt>
      <trkpt lat="43.59122" lon="3.78887">
        <ele>42.92</ele>
        <time>2017-10-08T10:30:36Z</time>
      </trkpt>
      <trkpt lat="43.59118" lon="3.78889">
        <ele>42.92</ele>
        <time>2017-10-08T10:30:37Z</time>
      </trkpt>
      <trkpt lat="43.59114" lon="3.78889">
        <ele>42.92</ele>
        <time>2017-10-08T10:30:38Z</time>
      </trkpt>
      <trkpt lat="43.59066" lon="3.78909">
        <ele>42.44</ele>
        <time>2017-10-08T10:30:52Z</time>
      </trkpt>
      <trkpt lat="43.59029" lon="3.78915">
        <ele>43.4</ele>
        <time>2017-10-08T10:31:05Z</time>
      </trkpt>
      <trkpt lat="43.58972" lon="3.78913">
        <ele>42.92</ele>
        <time>2017-10-08T10:31:21Z</time>
      </trkpt>
      <trkpt lat="43.58907" lon="3.78905">
        <ele>43.88</ele>
        <time>2017-10-08T10:31:37Z</time>
      </trkpt>
      <trkpt lat="43.58874" lon="3.78874">
        <ele>42.92</ele>
        <time>2017-10-08T10:31:48Z</time>
      </trkpt>
      <trkpt lat="43.5886" lon="3.78863">
        <ele>41.95</ele>
        <time>2017-10-08T10:31:52Z</time>
      </trkpt>
      <trkpt lat="43.58855" lon="3.78862">
        <ele>41.47</ele>
        <time>2017-10-08T10:31:53Z</time>
      </trkpt>
      <trkpt lat="43.58851" lon="3.78862">
        <ele>40.99</ele>
        <time>2017-10-08T10:31:54Z</time>
      </trkpt>
      <trkpt lat="43.58846" lon="3.78862">
        <ele>40.51</ele>
        <time>2017-10-08T10:31:55Z</time>
      </trkpt>
      <trkpt lat="43.58841" lon="3.78863">
        <ele>40.03</ele>
        <time>2017-10-08T10:31:56Z</time>
      </trkpt>
      <trkpt lat="43.58837" lon="3.78864">
        <ele>39.07</ele>
        <time>2017-10-08T10:31:57Z</time>
      </trkpt>
      <trkpt lat="43.58832" lon="3.78865">
        <ele>38.59</ele>
        <time>2017-10-08T10:31:58Z</time>
      </trkpt>
      <trkpt lat="43.5879" lon="3.78869">
        <ele>36.67</ele>
        <time>2017-10-08T10:32:06Z</time>
      </trkpt>
      <trkpt lat="43.58775" lon="3.78866">
        <ele>35.71</ele>
        <time>2017-10-08T10:32:09Z</time>
      </trkpt>
      <trkpt lat="43.5877" lon="3.78867">
        <ele>35.23</ele>
        <time>2017-10-08T10:32:10Z</time>
      </trkpt>
      <trkpt lat="43.58765" lon="3.78868">
        <ele>35.23</ele>
        <time>2017-10-08T10:32:11Z</time>
      </trkpt>
      <trkpt lat="43.5876" lon="3.78871">
        <ele>34.74</ele>
        <time>2017-10-08T10:32:12Z</time>
      </trkpt>
      <trkpt lat="43.58756" lon="3.78874">
        <ele>34.74</ele>
        <time>2017-10-08T10:32:13Z</time>
      </trkpt>
      <trkpt lat="43.58751" lon="3.78877">
        <ele>34.74</ele>
        <time>2017-10-08T10:32:14Z</time>
      </trkpt>
      <trkpt lat="43.58747" lon="3.78882">
        <ele>34.26</ele>
        <time>2017-10-08T10:32:15Z</time>
      </trkpt>
      <trkpt lat="43.58743" lon="3.78887">
        <ele>34.26</ele>
        <time>2017-10-08T10:32:16Z</time>
      </trkpt>
      <trkpt lat="43.5872" lon="3.78907">
        <ele>33.78</ele>
        <time>2017-10-08T10:32:21Z</time>
      </trkpt>
      <trkpt lat="43.58682" lon="3.78926">
        <ele>32.82</ele>
        <time>2017-10-08T10:32:28Z</time>
      </trkpt>
      <trkpt lat="43.5865" lon="3.7895">
        <ele>31.38</ele>
        <time>2017-10-08T10:32:35Z</time>
      </trkpt>
      <trkpt lat="43.58646" lon="3.78953">
        <ele>31.38</ele>
        <time>2017-10-08T10:32:36Z</time>
      </trkpt>
      <trkpt lat="43.58626" lon="3.78965">
        <ele>30.42</ele>
        <time>2017-10-08T10:32:41Z</time>
      </trkpt>
      <trkpt lat="43.58622" lon="3.78966">
        <ele>30.9</ele>
        <time>2017-10-08T10:32:42Z</time>
      </trkpt>
      <trkpt lat="43.58618" lon="3.78966">
        <ele>30.9</ele>
        <time>2017-10-08T10:32:43Z</time>
      </trkpt>
      <trkpt lat="43.58613" lon="3.78964">
        <ele>30.9</ele>
        <time>2017-10-08T10:32:44Z</time>
      </trkpt>
      <trkpt lat="43.58609" lon="3.78962">
        <ele>30.9</ele>
        <time>2017-10-08T10:32:45Z</time>
      </trkpt>
      <trkpt lat="43.58606" lon="3.78959">
        <ele>31.38</ele>
        <time>2017-10-08T10:32:46Z</time>
      </trkpt>
      <trkpt lat="43.58603" lon="3.78955">
        <ele>31.38</ele>
        <time>2017-10-08T10:32:47Z</time>
      </trkpt>
      <trkpt lat="43.58601" lon="3.7895">
        <ele>31.38</ele>
        <time>2017-10-08T10:32:48Z</time>
      </trkpt>
      <trkpt lat="43.58601" lon="3.78945">
        <ele>30.9</ele>
        <time>2017-10-08T10:32:49Z</time>
      </trkpt>
      <trkpt lat="43.58601" lon="3.7894">
        <ele>30.9</ele>
        <time>2017-10-08T10:32:50Z</time>
      </trkpt>
      <trkpt lat="43.58601" lon="3.78935">
        <ele>30.42</ele>
        <time>2017-10-08T10:32:51Z</time>
      </trkpt>
      <trkpt lat="43.586" lon="3.78819">
        <ele>31.38</ele>
        <time>2017-10-08T10:33:11Z</time>
      </trkpt>
      <trkpt lat="43.58592" lon="3.78744">
        <ele>33.3</ele>
        <time>2017-10-08T10:33:25Z</time>
      </trkpt>
      <trkpt lat="43.58568" lon="3.78636">
        <ele>35.71</ele>
        <time>2017-10-08T10:33:44Z</time>
      </trkpt>
      <trkpt lat="43.58545" lon="3.78531">
        <ele>39.07</ele>
        <time>2017-10-08T10:34:03Z</time>
      </trkpt>
      <trkpt lat="43.58524" lon="3.78434">
        <ele>40.99</ele>
        <time>2017-10-08T10:34:20Z</time>
      </trkpt>
      <trkpt lat="43.58503" lon="3.78339">
        <ele>44.84</ele>
        <time>2017-10-08T10:34:37Z</time>
      </trkpt>
      <trkpt lat="43.58492" lon="3.78242">
        <ele>46.76</ele>
        <time>2017-10-08T10:34:54Z</time>
      </trkpt>
      <trkpt lat="43.5849" lon="3.78118">
        <ele>43.4</ele>
        <time>2017-10-08T10:35:14Z</time>
      </trkpt>
      <trkpt lat="43.5849" lon="3.78022">
        <ele>41.47</ele>
        <time>2017-10-08T10:35:29Z</time>
      </trkpt>
      <trkpt lat="43.5849" lon="3.78015">
        <ele>41.47</ele>
        <time>2017-10-08T10:35:30Z</time>
      </trkpt>
      <trkpt lat="43.58503" lon="3.77924">
        <ele>40.51</ele>
        <time>2017-10-08T10:35:45Z</time>
      </trkpt>
      <trkpt lat="43.58504" lon="3.77919">
        <ele>40.99</ele>
        <time>2017-10-08T10:35:46Z</time>
      </trkpt>
      <trkpt lat="43.58504" lon="3.77913">
        <ele>40.99</ele>
        <time>2017-10-08T10:35:47Z</time>
      </trkpt>
      <trkpt lat="43.58504" lon="3.77907">
        <ele>40.99</ele>
        <time>2017-10-08T10:35:48Z</time>
      </trkpt>
      <trkpt lat="43.58501" lon="3.77902">
        <ele>40.99</ele>
        <time>2017-10-08T10:35:49Z</time>
      </trkpt>
      <trkpt lat="43.58499" lon="3.77898">
        <ele>40.99</ele>
        <time>2017-10-08T10:35:50Z</time>
      </trkpt>
      <trkpt lat="43.58495" lon="3.77894">
        <ele>41.47</ele>
        <time>2017-10-08T10:35:51Z</time>
      </trkpt>
      <trkpt lat="43.58492" lon="3.7789">
        <ele>41.47</ele>
        <time>2017-10-08T10:35:52Z</time>
      </trkpt>
      <trkpt lat="43.58482" lon="3.77877">
        <ele>40.99</ele>
        <time>2017-10-08T10:35:55Z</time>
      </trkpt>
      <trkpt lat="43.58479" lon="3.77872">
        <ele>40.99</ele>
        <time>2017-10-08T10:35:56Z</time>
      </trkpt>
      <trkpt lat="43.58478" lon="3.77867">
        <ele>40.99</ele>
        <time>2017-10-08T10:35:57Z</time>
      </trkpt>
      <trkpt lat="43.58478" lon="3.77862">
        <ele>40.99</ele>
        <time>2017-10-08T10:35:58Z</time>
      </trkpt>
      <trkpt lat="43.58479" lon="3.77857">
        <ele>40.99</ele>
        <time>2017-10-08T10:35:59Z</time>
      </trkpt>
      <trkpt lat="43.58479" lon="3.77833">
        <ele>40.51</ele>
        <time>2017-10-08T10:36:03Z</time>
      </trkpt>
      <trkpt lat="43.58478" lon="3.77828">
        <ele>40.03</ele>
        <time>2017-10-08T10:36:04Z</time>
      </trkpt>
      <trkpt lat="43.58475" lon="3.77823">
        <ele>40.03</ele>
        <time>2017-10-08T10:36:05Z</time>
      </trkpt>
      <trkpt lat="43.58472" lon="3.77818">
        <ele>40.03</ele>
        <time>2017-10-08T10:36:06Z</time>
      </trkpt>
      <trkpt lat="43.5847" lon="3.77813">
        <ele>39.55</ele>
        <time>2017-10-08T10:36:07Z</time>
      </trkpt>
      <trkpt lat="43.58468" lon="3.77807">
        <ele>39.55</ele>
        <time>2017-10-08T10:36:08Z</time>
      </trkpt>
      <trkpt lat="43.58467" lon="3.77801">
        <ele>39.55</ele>
        <time>2017-10-08T10:36:09Z</time>
      </trkpt>
      <trkpt lat="43.58433" lon="3.77686">
        <ele>38.11</ele>
        <time>2017-10-08T10:36:28Z</time>
      </trkpt>
      <trkpt lat="43.58386" lon="3.77589">
        <ele>40.03</ele>
        <time>2017-10-08T10:36:45Z</time>
      </trkpt>
      <trkpt lat="43.58322" lon="3.77458">
        <ele>41.47</ele>
        <time>2017-10-08T10:37:09Z</time>
      </trkpt>
      <trkpt lat="43.58281" lon="3.77367">
        <ele>39.55</ele>
        <time>2017-10-08T10:37:25Z</time>
      </trkpt>
      <trkpt lat="43.58217" lon="3.77244">
        <ele>38.11</ele>
        <time>2017-10-08T10:37:48Z</time>
      </trkpt>
      <trkpt lat="43.5816" lon="3.77134">
        <ele>38.59</ele>
        <time>2017-10-08T10:38:09Z</time>
      </trkpt>
      <trkpt lat="43.5811" lon="3.77039">
        <ele>37.63</ele>
        <time>2017-10-08T10:38:28Z</time>
      </trkpt>
      <trkpt lat="43.58107" lon="3.77033">
        <ele>37.63</ele>
        <time>2017-10-08T10:38:29Z</time>
      </trkpt>
      <trkpt lat="43.58105" lon="3.77028">
        <ele>37.63</ele>
        <time>2017-10-08T10:38:30Z</time>
      </trkpt>
      <trkpt lat="43.58103" lon="3.77022">
        <ele>38.11</ele>
        <time>2017-10-08T10:38:31Z</time>
      </trkpt>
      <trkpt lat="43.581" lon="3.77017">
        <ele>38.11</ele>
        <time>2017-10-08T10:38:32Z</time>
      </trkpt>
      <trkpt lat="43.58097" lon="3.77012">
        <ele>38.11</ele>
        <time>2017-10-08T10:38:33Z</time>
      </trkpt>
      <trkpt lat="43.58095" lon="3.77006">
        <ele>38.11</ele>
        <time>2017-10-08T10:38:34Z</time>
      </trkpt>
      <trkpt lat="43.58033" lon="3.76881">
        <ele>38.11</ele>
        <time>2017-10-08T10:38:57Z</time>
      </trkpt>
      <trkpt lat="43.58017" lon="3.76843">
        <ele>38.11</ele>
        <time>2017-10-08T10:39:04Z</time>
      </trkpt>
      <trkpt lat="43.58017" lon="3.76838">
        <ele>38.11</ele>
        <time>2017-10-08T10:39:05Z</time>
      </trkpt>
      <trkpt lat="43.58017" lon="3.76831">
        <ele>38.11</ele>
        <time>2017-10-08T10:39:06Z</time>
      </trkpt>
      <trkpt lat="43.58018" lon="3.76788">
        <ele>38.11</ele>
        <time>2017-10-08T10:39:13Z</time>
      </trkpt>
      <trkpt lat="43.58017" lon="3.76782">
        <ele>38.11</ele>
        <time>2017-10-08T10:39:14Z</time>
      </trkpt>
      <trkpt lat="43.58015" lon="3.76776">
        <ele>38.11</ele>
        <time>2017-10-08T10:39:15Z</time>
      </trkpt>
      <trkpt lat="43.58013" lon="3.76771">
        <ele>38.11</ele>
        <time>2017-10-08T10:39:16Z</time>
      </trkpt>
      <trkpt lat="43.58011" lon="3.76766">
        <ele>38.11</ele>
        <time>2017-10-08T10:39:17Z</time>
      </trkpt>
      <trkpt lat="43.58008" lon="3.76762">
        <ele>38.11</ele>
        <time>2017-10-08T10:39:18Z</time>
      </trkpt>
      <trkpt lat="43.58002" lon="3.76752">
        <ele>37.63</ele>
        <time>2017-10-08T10:39:20Z</time>
      </trkpt>
      <trkpt lat="43.57997" lon="3.76749">
        <ele>37.63</ele>
        <time>2017-10-08T10:39:21Z</time>
      </trkpt>
      <trkpt lat="43.57965" lon="3.76731">
        <ele>36.67</ele>
        <time>2017-10-08T10:39:29Z</time>
      </trkpt>
      <trkpt lat="43.57961" lon="3.76728">
        <ele>36.19</ele>
        <time>2017-10-08T10:39:30Z</time>
      </trkpt>
      <trkpt lat="43.57957" lon="3.76723">
        <ele>36.19</ele>
        <time>2017-10-08T10:39:31Z</time>
      </trkpt>
      <trkpt lat="43.57954" lon="3.76719">
        <ele>36.19</ele>
        <time>2017-10-08T10:39:32Z</time>
      </trkpt>
      <trkpt lat="43.57951" lon="3.76713">
        <ele>36.19</ele>
        <time>2017-10-08T10:39:33Z</time>
      </trkpt>
      <trkpt lat="43.57948" lon="3.76708">
        <ele>36.19</ele>
        <time>2017-10-08T10:39:34Z</time>
      </trkpt>
      <trkpt lat="43.57939" lon="3.76693">
        <ele>36.19</ele>
        <time>2017-10-08T10:39:37Z</time>
      </trkpt>
      <trkpt lat="43.57936" lon="3.76688">
        <ele>36.19</ele>
        <time>2017-10-08T10:39:38Z</time>
      </trkpt>
      <trkpt lat="43.57888" lon="3.7659">
        <ele>37.15</ele>
        <time>2017-10-08T10:39:57Z</time>
      </trkpt>
      <trkpt lat="43.57847" lon="3.7648">
        <ele>34.74</ele>
        <time>2017-10-08T10:40:15Z</time>
      </trkpt>
      <trkpt lat="43.57837" lon="3.76445">
        <ele>35.23</ele>
        <time>2017-10-08T10:40:21Z</time>
      </trkpt>
      <trkpt lat="43.57817" lon="3.76341">
        <ele>37.15</ele>
        <time>2017-10-08T10:40:38Z</time>
      </trkpt>
      <trkpt lat="43.57812" lon="3.76298">
        <ele>37.15</ele>
        <time>2017-10-08T10:40:45Z</time>
      </trkpt>
      <trkpt lat="43.57811" lon="3.76292">
        <ele>37.15</ele>
        <time>2017-10-08T10:40:46Z</time>
      </trkpt>
      <trkpt lat="43.57809" lon="3.76181">
        <ele>38.11</ele>
        <time>2017-10-08T10:41:05Z</time>
      </trkpt>
      <trkpt lat="43.57812" lon="3.76121">
        <ele>38.59</ele>
        <time>2017-10-08T10:41:16Z</time>
      </trkpt>
      <trkpt lat="43.57814" lon="3.76065">
        <ele>40.03</ele>
        <time>2017-10-08T10:41:27Z</time>
      </trkpt>
      <trkpt lat="43.57825" lon="3.75969">
        <ele>43.88</ele>
        <time>2017-10-08T10:41:43Z</time>
      </trkpt>
      <trkpt lat="43.57842" lon="3.75846">
        <ele>47.72</ele>
        <time>2017-10-08T10:42:04Z</time>
      </trkpt>
      <trkpt lat="43.57853" lon="3.75752">
        <ele>46.76</ele>
        <time>2017-10-08T10:42:21Z</time>
      </trkpt>
      <trkpt lat="43.5786" lon="3.75672">
        <ele>47.24</ele>
        <time>2017-10-08T10:42:36Z</time>
      </trkpt>
      <trkpt lat="43.5787" lon="3.75636">
        <ele>46.76</ele>
        <time>2017-10-08T10:42:44Z</time>
      </trkpt>
      <trkpt lat="43.57869" lon="3.75632">
        <ele>46.76</ele>
        <time>2017-10-08T10:42:45Z</time>
      </trkpt>
      <trkpt lat="43.57851" lon="3.75592">
        <ele>46.76</ele>
        <time>2017-10-08T10:42:57Z</time>
      </trkpt>
      <trkpt lat="43.57849" lon="3.7559">
        <ele>46.28</ele>
        <time>2017-10-08T10:42:58Z</time>
      </trkpt>
      <trkpt lat="43.57847" lon="3.75586">
        <ele>46.28</ele>
        <time>2017-10-08T10:42:59Z</time>
      </trkpt>
      <trkpt lat="43.57841" lon="3.75559">
        <ele>45.32</ele>
        <time>2017-10-08T10:43:07Z</time>
      </trkpt>
      <trkpt lat="43.5784" lon="3.7556">
        <ele>45.32</ele>
        <time>2017-10-08T10:43:10Z</time>
      </trkpt>
      <trkpt lat="43.5784" lon="3.75562">
        <ele>45.32</ele>
        <time>2017-10-08T10:43:11Z</time>
      </trkpt>
      <trkpt lat="43.57844" lon="3.75577">
        <ele>44.84</ele>
        <time>2017-10-08T10:43:19Z</time>
      </trkpt>
      <trkpt lat="43.57845" lon="3.75575">
        <ele>45.32</ele>
        <time>2017-10-08T10:43:21Z</time>
      </trkpt>
      <trkpt lat="43.57844" lon="3.75573">
        <ele>45.32</ele>
        <time>2017-10-08T10:43:22Z</time>
      </trkpt>
      <trkpt lat="43.57844" lon="3.75569">
        <ele>45.32</ele>
        <time>2017-10-08T10:43:23Z</time>
      </trkpt>
      <trkpt lat="43.57844" lon="3.75566">
        <ele>45.32</ele>
        <time>2017-10-08T10:43:24Z</time>
      </trkpt>
      <trkpt lat="43.57843" lon="3.75562">
        <ele>45.32</ele>
        <time>2017-10-08T10:43:25Z</time>
      </trkpt>
      <trkpt lat="43.57841" lon="3.75558">
        <ele>45.32</ele>
        <time>2017-10-08T10:43:26Z</time>
      </trkpt>
      <trkpt lat="43.57825" lon="3.75499">
        <ele>44.84</ele>
        <time>2017-10-08T10:43:38Z</time>
      </trkpt>
      <trkpt lat="43.57782" lon="3.75388">
        <ele>43.88</ele>
        <time>2017-10-08T10:43:58Z</time>
      </trkpt>
      <trkpt lat="43.57781" lon="3.75382">
        <ele>43.88</ele>
        <time>2017-10-08T10:43:59Z</time>
      </trkpt>
      <trkpt lat="43.57777" lon="3.75357">
        <ele>44.36</ele>
        <time>2017-10-08T10:44:03Z</time>
      </trkpt>
      <trkpt lat="43.57775" lon="3.75351">
        <ele>44.84</ele>
        <time>2017-10-08T10:44:04Z</time>
      </trkpt>
      <trkpt lat="43.57772" lon="3.75346">
        <ele>44.84</ele>
        <time>2017-10-08T10:44:05Z</time>
      </trkpt>
      <trkpt lat="43.57769" lon="3.75342">
        <ele>44.84</ele>
        <time>2017-10-08T10:44:06Z</time>
      </trkpt>
      <trkpt lat="43.57765" lon="3.75338">
        <ele>44.84</ele>
        <time>2017-10-08T10:44:07Z</time>
      </trkpt>
      <trkpt lat="43.57761" lon="3.75334">
        <ele>44.84</ele>
        <time>2017-10-08T10:44:08Z</time>
      </trkpt>
      <trkpt lat="43.57758" lon="3.7533">
        <ele>44.84</ele>
        <time>2017-10-08T10:44:09Z</time>
      </trkpt>
      <trkpt lat="43.57755" lon="3.75325">
        <ele>45.32</ele>
        <time>2017-10-08T10:44:10Z</time>
      </trkpt>
      <trkpt lat="43.57753" lon="3.7532">
        <ele>45.32</ele>
        <time>2017-10-08T10:44:11Z</time>
      </trkpt>
      <trkpt lat="43.5775" lon="3.75314">
        <ele>45.32</ele>
        <time>2017-10-08T10:44:12Z</time>
      </trkpt>
      <trkpt lat="43.57739" lon="3.75291">
        <ele>44.84</ele>
        <time>2017-10-08T10:44:16Z</time>
      </trkpt>
      <trkpt lat="43.57735" lon="3.75285">
        <ele>44.84</ele>
        <time>2017-10-08T10:44:17Z</time>
      </trkpt>
      <trkpt lat="43.57726" lon="3.75268">
        <ele>44.84</ele>
        <time>2017-10-08T10:44:20Z</time>
      </trkpt>
      <trkpt lat="43.57695" lon="3.75199">
        <ele>44.84</ele>
        <time>2017-10-08T10:44:32Z</time>
      </trkpt>
      <trkpt lat="43.57693" lon="3.75193">
        <ele>44.84</ele>
        <time>2017-10-08T10:44:33Z</time>
      </trkpt>
      <trkpt lat="43.57692" lon="3.75188">
        <ele>44.84</ele>
        <time>2017-10-08T10:44:34Z</time>
      </trkpt>
      <trkpt lat="43.57691" lon="3.75182">
        <ele>44.84</ele>
        <time>2017-10-08T10:44:35Z</time>
      </trkpt>
      <trkpt lat="43.57689" lon="3.75177">
        <ele>44.84</ele>
        <time>2017-10-08T10:44:36Z</time>
      </trkpt>
      <trkpt lat="43.57687" lon="3.75172">
        <ele>45.32</ele>
        <time>2017-10-08T10:44:37Z</time>
      </trkpt>
      <trkpt lat="43.57685" lon="3.75167">
        <ele>45.32</ele>
        <time>2017-10-08T10:44:38Z</time>
      </trkpt>
      <trkpt lat="43.57652" lon="3.75094">
        <ele>45.8</ele>
        <time>2017-10-08T10:44:54Z</time>
      </trkpt>
      <trkpt lat="43.57617" lon="3.7501">
        <ele>47.24</ele>
        <time>2017-10-08T10:45:14Z</time>
      </trkpt>
      <trkpt lat="43.57585" lon="3.749">
        <ele>51.57</ele>
        <time>2017-10-08T10:45:36Z</time>
      </trkpt>
      <trkpt lat="43.57554" lon="3.74798">
        <ele>54.45</ele>
        <time>2017-10-08T10:45:57Z</time>
      </trkpt>
      <trkpt lat="43.57518" lon="3.74707">
        <ele>53.97</ele>
        <time>2017-10-08T10:46:15Z</time>
      </trkpt>
      <trkpt lat="43.57503" lon="3.74669">
        <ele>54.45</ele>
        <time>2017-10-08T10:46:23Z</time>
      </trkpt>
      <trkpt lat="43.57499" lon="3.74659">
        <ele>53.97</ele>
        <time>2017-10-08T10:46:25Z</time>
      </trkpt>
      <trkpt lat="43.57448" lon="3.74573">
        <ele>52.53</ele>
        <time>2017-10-08T10:46:44Z</time>
      </trkpt>
      <trkpt lat="43.57405" lon="3.74491">
        <ele>51.57</ele>
        <time>2017-10-08T10:47:04Z</time>
      </trkpt>
      <trkpt lat="43.57374" lon="3.74401">
        <ele>51.57</ele>
        <time>2017-10-08T10:47:23Z</time>
      </trkpt>
      <trkpt lat="43.57353" lon="3.74308">
        <ele>51.09</ele>
        <time>2017-10-08T10:47:42Z</time>
      </trkpt>
      <trkpt lat="43.57337" lon="3.74218">
        <ele>50.61</ele>
        <time>2017-10-08T10:47:58Z</time>
      </trkpt>
      <trkpt lat="43.57297" lon="3.74147">
        <ele>50.61</ele>
        <time>2017-10-08T10:48:12Z</time>
      </trkpt>
      <trkpt lat="43.57288" lon="3.74131">
        <ele>50.13</ele>
        <time>2017-10-08T10:48:15Z</time>
      </trkpt>
      <trkpt lat="43.57219" lon="3.74043">
        <ele>51.57</ele>
        <time>2017-10-08T10:48:34Z</time>
      </trkpt>
      <trkpt lat="43.57148" lon="3.73966">
        <ele>51.57</ele>
        <time>2017-10-08T10:48:51Z</time>
      </trkpt>
      <trkpt lat="43.57086" lon="3.73889">
        <ele>52.05</ele>
        <time>2017-10-08T10:49:08Z</time>
      </trkpt>
      <trkpt lat="43.57027" lon="3.73809">
        <ele>52.05</ele>
        <time>2017-10-08T10:49:26Z</time>
      </trkpt>
      <trkpt lat="43.5697" lon="3.73721">
        <ele>52.05</ele>
        <time>2017-10-08T10:49:44Z</time>
      </trkpt>
      <trkpt lat="43.56912" lon="3.73628">
        <ele>52.05</ele>
        <time>2017-10-08T10:50:03Z</time>
      </trkpt>
      <trkpt lat="43.56862" lon="3.73557">
        <ele>53.49</ele>
        <time>2017-10-08T10:50:19Z</time>
      </trkpt>
      <trkpt lat="43.56825" lon="3.73505">
        <ele>54.45</ele>
        <time>2017-10-08T10:50:31Z</time>
      </trkpt>
      <trkpt lat="43.56822" lon="3.73501">
        <ele>54.93</ele>
        <time>2017-10-08T10:50:32Z</time>
      </trkpt>
      <trkpt lat="43.5682" lon="3.73496">
        <ele>55.41</ele>
        <time>2017-10-08T10:50:33Z</time>
      </trkpt>
      <trkpt lat="43.56817" lon="3.73491">
        <ele>55.41</ele>
        <time>2017-10-08T10:50:34Z</time>
      </trkpt>
      <trkpt lat="43.56814" lon="3.73487">
        <ele>55.41</ele>
        <time>2017-10-08T10:50:35Z</time>
      </trkpt>
      <trkpt lat="43.56766" lon="3.73416">
        <ele>59.74</ele>
        <time>2017-10-08T10:50:51Z</time>
      </trkpt>
      <trkpt lat="43.5671" lon="3.73341">
        <ele>62.14</ele>
        <time>2017-10-08T10:51:10Z</time>
      </trkpt>
      <trkpt lat="43.56646" lon="3.73264">
        <ele>59.74</ele>
        <time>2017-10-08T10:51:28Z</time>
      </trkpt>
      <trkpt lat="43.56622" lon="3.73236">
        <ele>57.82</ele>
        <time>2017-10-08T10:51:34Z</time>
      </trkpt>
      <trkpt lat="43.5662" lon="3.73229">
        <ele>57.82</ele>
        <time>2017-10-08T10:51:35Z</time>
      </trkpt>
      <trkpt lat="43.56619" lon="3.73223">
        <ele>57.82</ele>
        <time>2017-10-08T10:51:36Z</time>
      </trkpt>
      <trkpt lat="43.56619" lon="3.73217">
        <ele>57.34</ele>
        <time>2017-10-08T10:51:37Z</time>
      </trkpt>
      <trkpt lat="43.56616" lon="3.73211">
        <ele>56.86</ele>
        <time>2017-10-08T10:51:38Z</time>
      </trkpt>
      <trkpt lat="43.56612" lon="3.73207">
        <ele>56.86</ele>
        <time>2017-10-08T10:51:39Z</time>
      </trkpt>
      <trkpt lat="43.56608" lon="3.73205">
        <ele>56.86</ele>
        <time>2017-10-08T10:51:40Z</time>
      </trkpt>
      <trkpt lat="43.56603" lon="3.73205">
        <ele>56.37</ele>
        <time>2017-10-08T10:51:41Z</time>
      </trkpt>
      <trkpt lat="43.56599" lon="3.73205">
        <ele>56.37</ele>
        <time>2017-10-08T10:51:42Z</time>
      </trkpt>
      <trkpt lat="43.56595" lon="3.73203">
        <ele>55.89</ele>
        <time>2017-10-08T10:51:43Z</time>
      </trkpt>
      <trkpt lat="43.56591" lon="3.73201">
        <ele>55.89</ele>
        <time>2017-10-08T10:51:44Z</time>
      </trkpt>
      <trkpt lat="43.56588" lon="3.73197">
        <ele>55.89</ele>
        <time>2017-10-08T10:51:45Z</time>
      </trkpt>
      <trkpt lat="43.56584" lon="3.73192">
        <ele>55.89</ele>
        <time>2017-10-08T10:51:46Z</time>
      </trkpt>
      <trkpt lat="43.56533" lon="3.73122">
        <ele>56.37</ele>
        <time>2017-10-08T10:52:04Z</time>
      </trkpt>
      <trkpt lat="43.56485" lon="3.73059">
        <ele>59.74</ele>
        <time>2017-10-08T10:52:21Z</time>
      </trkpt>
      <trkpt lat="43.56447" lon="3.7302">
        <ele>60.7</ele>
        <time>2017-10-08T10:52:34Z</time>
      </trkpt>
      <trkpt lat="43.5638" lon="3.72969">
        <ele>58.78</ele>
        <time>2017-10-08T10:52:54Z</time>
      </trkpt>
      <trkpt lat="43.56367" lon="3.72964">
        <ele>57.82</ele>
        <time>2017-10-08T10:52:57Z</time>
      </trkpt>
      <trkpt lat="43.56363" lon="3.72964">
        <ele>57.34</ele>
        <time>2017-10-08T10:52:58Z</time>
      </trkpt>
      <trkpt lat="43.56357" lon="3.72964">
        <ele>56.86</ele>
        <time>2017-10-08T10:52:59Z</time>
      </trkpt>
      <trkpt lat="43.56352" lon="3.72963">
        <ele>56.37</ele>
        <time>2017-10-08T10:53:00Z</time>
      </trkpt>
      <trkpt lat="43.56347" lon="3.72961">
        <ele>55.89</ele>
        <time>2017-10-08T10:53:01Z</time>
      </trkpt>
      <trkpt lat="43.56342" lon="3.72959">
        <ele>55.41</ele>
        <time>2017-10-08T10:53:02Z</time>
      </trkpt>
      <trkpt lat="43.56337" lon="3.72956">
        <ele>54.93</ele>
        <time>2017-10-08T10:53:03Z</time>
      </trkpt>
      <trkpt lat="43.56244" lon="3.72907">
        <ele>48.68</ele>
        <time>2017-10-08T10:53:19Z</time>
      </trkpt>
      <trkpt lat="43.56237" lon="3.72905">
        <ele>48.2</ele>
        <time>2017-10-08T10:53:20Z</time>
      </trkpt>
      <trkpt lat="43.56229" lon="3.72904">
        <ele>47.72</ele>
        <time>2017-10-08T10:53:21Z</time>
      </trkpt>
      <trkpt lat="43.56149" lon="3.72908">
        <ele>42.44</ele>
        <time>2017-10-08T10:53:31Z</time>
      </trkpt>
      <trkpt lat="43.56142" lon="3.72907">
        <ele>41.95</ele>
        <time>2017-10-08T10:53:32Z</time>
      </trkpt>
      <trkpt lat="43.56135" lon="3.72904">
        <ele>41.95</ele>
        <time>2017-10-08T10:53:33Z</time>
      </trkpt>
      <trkpt lat="43.56091" lon="3.72873">
        <ele>40.51</ele>
        <time>2017-10-08T10:53:43Z</time>
      </trkpt>
      <trkpt lat="43.56039" lon="3.72814">
        <ele>40.03</ele>
        <time>2017-10-08T10:54:00Z</time>
      </trkpt>
      <trkpt lat="43.56034" lon="3.72812">
        <ele>40.03</ele>
        <time>2017-10-08T10:54:01Z</time>
      </trkpt>
      <trkpt lat="43.5603" lon="3.72814">
        <ele>40.51</ele>
        <time>2017-10-08T10:54:02Z</time>
      </trkpt>
      <trkpt lat="43.56027" lon="3.72817">
        <ele>40.51</ele>
        <time>2017-10-08T10:54:03Z</time>
      </trkpt>
      <trkpt lat="43.56025" lon="3.72821">
        <ele>40.51</ele>
        <time>2017-10-08T10:54:04Z</time>
      </trkpt>
      <trkpt lat="43.56023" lon="3.72827">
        <ele>40.99</ele>
        <time>2017-10-08T10:54:05Z</time>
      </trkpt>
      <trkpt lat="43.56023" lon="3.72831">
        <ele>40.99</ele>
        <time>2017-10-08T10:54:06Z</time>
      </trkpt>
      <trkpt lat="43.56023" lon="3.72836">
        <ele>40.99</ele>
        <time>2017-10-08T10:54:07Z</time>
      </trkpt>
      <trkpt lat="43.56021" lon="3.7284">
        <ele>40.99</ele>
        <time>2017-10-08T10:54:08Z</time>
      </trkpt>
      <trkpt lat="43.56018" lon="3.72843">
        <ele>40.99</ele>
        <time>2017-10-08T10:54:09Z</time>
      </trkpt>
      <trkpt lat="43.56016" lon="3.72845">
        <ele>40.99</ele>
        <time>2017-10-08T10:54:10Z</time>
      </trkpt>
      <trkpt lat="43.56013" lon="3.72845">
        <ele>40.99</ele>
        <time>2017-10-08T10:54:11Z</time>
      </trkpt>
      <trkpt lat="43.56009" lon="3.72846">
        <ele>41.47</ele>
        <time>2017-10-08T10:54:12Z</time>
      </trkpt>
      <trkpt lat="43.55958" lon="3.72857">
        <ele>39.55</ele>
        <time>2017-10-08T10:54:27Z</time>
      </trkpt>
      <trkpt lat="43.559" lon="3.72861">
        <ele>36.19</ele>
        <time>2017-10-08T10:54:42Z</time>
      </trkpt>
      <trkpt lat="43.55837" lon="3.72865">
        <ele>35.23</ele>
        <time>2017-10-08T10:54:57Z</time>
      </trkpt>
      <trkpt lat="43.55773" lon="3.72861">
        <ele>34.74</ele>
        <time>2017-10-08T10:55:13Z</time>
      </trkpt>
      <trkpt lat="43.55743" lon="3.72857">
        <ele>37.63</ele>
        <time>2017-10-08T10:55:23Z</time>
      </trkpt>
      <trkpt lat="43.55742" lon="3.72858">
        <ele>38.11</ele>
        <time>2017-10-08T10:55:24Z</time>
      </trkpt>
      <trkpt lat="43.55741" lon="3.72859">
        <ele>38.11</ele>
        <time>2017-10-08T10:55:25Z</time>
      </trkpt>
      <trkpt lat="43.55739" lon="3.72861">
        <ele>38.59</ele>
        <time>2017-10-08T10:55:26Z</time>
      </trkpt>
      <trkpt lat="43.55738" lon="3.72862">
        <ele>38.59</ele>
        <time>2017-10-08T10:55:27Z</time>
      </trkpt>
      <trkpt lat="43.55736" lon="3.72863">
        <ele>38.59</ele>
        <time>2017-10-08T10:55:28Z</time>
      </trkpt>
      <trkpt lat="43.55734" lon="3.72864">
        <ele>39.07</ele>
        <time>2017-10-08T10:55:29Z</time>
      </trkpt>
      <trkpt lat="43.55732" lon="3.72864">
        <ele>39.07</ele>
        <time>2017-10-08T10:55:30Z</time>
      </trkpt>
      <trkpt lat="43.5573" lon="3.72863">
        <ele>39.07</ele>
        <time>2017-10-08T10:55:31Z</time>
      </trkpt>
      <trkpt lat="43.5572" lon="3.72862">
        <ele>39.55</ele>
        <time>2017-10-08T10:55:35Z</time>
      </trkpt>
      <trkpt lat="43.55718" lon="3.72863">
        <ele>39.55</ele>
        <time>2017-10-08T10:55:36Z</time>
      </trkpt>
      <trkpt lat="43.55713" lon="3.72888">
        <ele>40.03</ele>
        <time>2017-10-08T10:55:44Z</time>
      </trkpt>
      <trkpt lat="43.5571" lon="3.72889">
        <ele>40.03</ele>
        <time>2017-10-08T10:55:45Z</time>
      </trkpt>
      <trkpt lat="43.55648" lon="3.7291">
        <ele>39.55</ele>
        <time>2017-10-08T10:56:03Z</time>
      </trkpt>
      <trkpt lat="43.55586" lon="3.72923">
        <ele>40.03</ele>
        <time>2017-10-08T10:56:22Z</time>
      </trkpt>
      <trkpt lat="43.55567" lon="3.72937">
        <ele>40.03</ele>
        <time>2017-10-08T10:56:30Z</time>
      </trkpt>
      <trkpt lat="43.55563" lon="3.72935">
        <ele>40.51</ele>
        <time>2017-10-08T10:56:31Z</time>
      </trkpt>
      <trkpt lat="43.55511" lon="3.72914">
        <ele>40.99</ele>
        <time>2017-10-08T10:56:47Z</time>
      </trkpt>
      <trkpt lat="43.55463" lon="3.72898">
        <ele>41.95</ele>
        <time>2017-10-08T10:57:02Z</time>
      </trkpt>
      <trkpt lat="43.55406" lon="3.72896">
        <ele>41.95</ele>
        <time>2017-10-08T10:57:19Z</time>
      </trkpt>
      <trkpt lat="43.55356" lon="3.72894">
        <ele>41.95</ele>
        <time>2017-10-08T10:57:34Z</time>
      </trkpt>
      <trkpt lat="43.55319" lon="3.72907">
        <ele>42.92</ele>
        <time>2017-10-08T10:57:47Z</time>
      </trkpt>
      <trkpt lat="43.55305" lon="3.72921">
        <ele>42.92</ele>
        <time>2017-10-08T10:57:57Z</time>
      </trkpt>
      <trkpt lat="43.55294" lon="3.72968">
        <ele>42.44</ele>
        <time>2017-10-08T10:58:10Z</time>
      </trkpt>
      <trkpt lat="43.55272" lon="3.72965">
        <ele>42.44</ele>
        <time>2017-10-08T10:58:20Z</time>
      </trkpt>
      <trkpt lat="43.55271" lon="3.72946">
        <ele>42.44</ele>
        <time>2017-10-08T10:58:27Z</time>
      </trkpt>
      <trkpt lat="43.55269" lon="3.72944">
        <ele>42.44</ele>
        <time>2017-10-08T10:58:28Z</time>
      </trkpt>
      <trkpt lat="43.55268" lon="3.72943">
        <ele>42.92</ele>
        <time>2017-10-08T10:58:29Z</time>
      </trkpt>
      <trkpt lat="43.55266" lon="3.72942">
        <ele>42.92</ele>
        <time>2017-10-08T10:58:30Z</time>
      </trkpt>
      <trkpt lat="43.55265" lon="3.72942">
        <ele>42.92</ele>
        <time>2017-10-08T10:58:31Z</time>
      </trkpt>
      <trkpt lat="43.55264" lon="3.72942">
        <ele>42.92</ele>
        <time>2017-10-08T10:58:32Z</time>
      </trkpt>
      <trkpt lat="43.55262" lon="3.72943">
        <ele>42.92</ele>
        <time>2017-10-08T10:58:33Z</time>
      </trkpt>
      <trkpt lat="43.5526" lon="3.72942">
        <ele>42.92</ele>
        <time>2017-10-08T10:58:34Z</time>
      </trkpt>
      <trkpt lat="43.55258" lon="3.72942">
        <ele>42.92</ele>
        <time>2017-10-08T10:58:35Z</time>
      </trkpt>
      <trkpt lat="43.55256" lon="3.7294">
        <ele>42.92</ele>
        <time>2017-10-08T10:58:36Z</time>
      </trkpt>
      <trkpt lat="43.55254" lon="3.72939">
        <ele>42.92</ele>
        <time>2017-10-08T10:58:37Z</time>
      </trkpt>
      <trkpt lat="43.55252" lon="3.72938">
        <ele>42.92</ele>
        <time>2017-10-08T10:58:38Z</time>
      </trkpt>
      <trkpt lat="43.55246" lon="3.72934">
        <ele>42.92</ele>
        <time>2017-10-08T10:58:41Z</time>
      </trkpt>
      <trkpt lat="43.55245" lon="3.72933">
        <ele>42.92</ele>
        <time>2017-10-08T10:58:42Z</time>
      </trkpt>
      <trkpt lat="43.55241" lon="3.72927">
        <ele>43.4</ele>
        <time>2017-10-08T10:58:45Z</time>
      </trkpt>
      <trkpt lat="43.5524" lon="3.72928">
        <ele>43.4</ele>
        <time>2017-10-08T10:58:46Z</time>
      </trkpt>
      <trkpt lat="43.55239" lon="3.7293">
        <ele>43.4</ele>
        <time>2017-10-08T10:58:47Z</time>
      </trkpt>
      <trkpt lat="43.5524" lon="3.72932">
        <ele>43.4</ele>
        <time>2017-10-08T10:58:48Z</time>
      </trkpt>
      <trkpt lat="43.5524" lon="3.72934">
        <ele>43.4</ele>
        <time>2017-10-08T10:58:49Z</time>
      </trkpt>
      <trkpt lat="43.55241" lon="3.72935">
        <ele>43.4</ele>
        <time>2017-10-08T10:58:50Z</time>
      </trkpt>
      <trkpt lat="43.55243" lon="3.72936">
        <ele>43.4</ele>
        <time>2017-10-08T10:58:51Z</time>
      </trkpt>
      <trkpt lat="43.55244" lon="3.72937">
        <ele>43.4</ele>
        <time>2017-10-08T10:58:52Z</time>
      </trkpt>
      <trkpt lat="43.55245" lon="3.72938">
        <ele>43.4</ele>
        <time>2017-10-08T10:58:53Z</time>
      </trkpt>
      <trkpt lat="43.55246" lon="3.7294">
        <ele>43.4</ele>
        <time>2017-10-08T10:58:54Z</time>
      </trkpt>
      <trkpt lat="43.5525" lon="3.72946">
        <ele>42.92</ele>
        <time>2017-10-08T10:58:58Z</time>
      </trkpt>
      <trkpt lat="43.55251" lon="3.72947">
        <ele>43.4</ele>
        <time>2017-10-08T10:58:59Z</time>
      </trkpt>
      <trkpt lat="43.55252" lon="3.72946">
        <ele>43.4</ele>
        <time>2017-10-08T10:59:00Z</time>
      </trkpt>
      <trkpt lat="43.55254" lon="3.72938">
        <ele>44.36</ele>
        <time>2017-10-08T10:59:05Z</time>
      </trkpt>
      <trkpt lat="43.5524" lon="3.72927">
        <ele>44.84</ele>
        <time>2017-10-08T10:59:16Z</time>
      </trkpt>
      <trkpt lat="43.55218" lon="3.72894">
        <ele>44.36</ele>
        <time>2017-10-08T10:59:33Z</time>
      </trkpt>
      <trkpt lat="43.55197" lon="3.72871">
        <ele>45.32</ele>
        <time>2017-10-08T10:59:46Z</time>
      </trkpt>
      <trkpt lat="43.55166" lon="3.72846">
        <ele>45.8</ele>
        <time>2017-10-08T11:00:01Z</time>
      </trkpt>
      <trkpt lat="43.55163" lon="3.72843">
        <ele>45.8</ele>
        <time>2017-10-08T11:00:03Z</time>
      </trkpt>
      <trkpt lat="43.55162" lon="3.72842">
        <ele>45.8</ele>
        <time>2017-10-08T11:00:04Z</time>
      </trkpt>
      <trkpt lat="43.5516" lon="3.72842">
        <ele>45.8</ele>
        <time>2017-10-08T11:00:05Z</time>
      </trkpt>
      <trkpt lat="43.55158" lon="3.72843">
        <ele>45.8</ele>
        <time>2017-10-08T11:00:06Z</time>
      </trkpt>
      <trkpt lat="43.55157" lon="3.72844">
        <ele>45.32</ele>
        <time>2017-10-08T11:00:07Z</time>
      </trkpt>
      <trkpt lat="43.55157" lon="3.72846">
        <ele>45.32</ele>
        <time>2017-10-08T11:00:08Z</time>
      </trkpt>
      <trkpt lat="43.55157" lon="3.72848">
        <ele>44.84</ele>
        <time>2017-10-08T11:00:09Z</time>
      </trkpt>
      <trkpt lat="43.55157" lon="3.7285">
        <ele>44.84</ele>
        <time>2017-10-08T11:00:10Z</time>
      </trkpt>
      <trkpt lat="43.55159" lon="3.72851">
        <ele>44.36</ele>
        <time>2017-10-08T11:00:11Z</time>
      </trkpt>
      <trkpt lat="43.5516" lon="3.72852">
        <ele>44.36</ele>
        <time>2017-10-08T11:00:12Z</time>
      </trkpt>
      <trkpt lat="43.55161" lon="3.72852">
        <ele>44.36</ele>
        <time>2017-10-08T11:00:13Z</time>
      </trkpt>
      <trkpt lat="43.55163" lon="3.7285">
        <ele>44.84</ele>
        <time>2017-10-08T11:00:14Z</time>
      </trkpt>
      <trkpt lat="43.55164" lon="3.72849">
        <ele>44.84</ele>
        <time>2017-10-08T11:00:15Z</time>
      </trkpt>
      <trkpt lat="43.55165" lon="3.72847">
        <ele>44.84</ele>
        <time>2017-10-08T11:00:16Z</time>
      </trkpt>
      <trkpt lat="43.55165" lon="3.72844">
        <ele>44.84</ele>
        <time>2017-10-08T11:00:17Z</time>
      </trkpt>
      <trkpt lat="43.55164" lon="3.72843">
        <ele>44.84</ele>
        <time>2017-10-08T11:00:18Z</time>
      </trkpt>
      <trkpt lat="43.55162" lon="3.72843">
        <ele>44.84</ele>
        <time>2017-10-08T11:00:19Z</time>
      </trkpt>
      <trkpt lat="43.55161" lon="3.72843">
        <ele>44.84</ele>
        <time>2017-10-08T11:00:20Z</time>
      </trkpt>
      <trkpt lat="43.5516" lon="3.72845">
        <ele>44.36</ele>
        <time>2017-10-08T11:00:21Z</time>
      </trkpt>
      <trkpt lat="43.55159" lon="3.72846">
        <ele>44.36</ele>
        <time>2017-10-08T11:00:22Z</time>
      </trkpt>
      <trkpt lat="43.5514" lon="3.72881">
        <ele>40.99</ele>
        <time>2017-10-08T11:00:36Z</time>
      </trkpt>
      <trkpt lat="43.55138" lon="3.72886">
        <ele>40.51</ele>
        <time>2017-10-08T11:00:38Z</time>
      </trkpt>
      <trkpt lat="43.55136" lon="3.72888">
        <ele>40.51</ele>
        <time>2017-10-08T11:00:39Z</time>
      </trkpt>
      <trkpt lat="43.55118" lon="3.72927">
        <ele>36.19</ele>
        <time>2017-10-08T11:00:53Z</time>
      </trkpt>
      <trkpt lat="43.55084" lon="3.7299">
        <ele>28.98</ele>
        <time>2017-10-08T11:01:08Z</time>
      </trkpt>
      <trkpt lat="43.55031" lon="3.73079">
        <ele>26.57</ele>
        <time>2017-10-08T11:01:26Z</time>
      </trkpt>
      <trkpt lat="43.54984" lon="3.73152">
        <ele>27.05</ele>
        <time>2017-10-08T11:01:41Z</time>
      </trkpt>
      <trkpt lat="43.5493" lon="3.73249">
        <ele>27.05</ele>
        <time>2017-10-08T11:01:59Z</time>
      </trkpt>
      <trkpt lat="43.54871" lon="3.73342">
        <ele>27.53</ele>
        <time>2017-10-08T11:02:17Z</time>
      </trkpt>
      <trkpt lat="43.54821" lon="3.73438">
        <ele>32.34</ele>
        <time>2017-10-08T11:02:35Z</time>
      </trkpt>
      <trkpt lat="43.54784" lon="3.73526">
        <ele>36.67</ele>
        <time>2017-10-08T11:02:51Z</time>
      </trkpt>
      <trkpt lat="43.54746" lon="3.73624">
        <ele>41.47</ele>
        <time>2017-10-08T11:03:08Z</time>
      </trkpt>
      <trkpt lat="43.54705" lon="3.73728">
        <ele>42.92</ele>
        <time>2017-10-08T11:03:26Z</time>
      </trkpt>
      <trkpt lat="43.54666" lon="3.73831">
        <ele>45.32</ele>
        <time>2017-10-08T11:03:44Z</time>
      </trkpt>
      <trkpt lat="43.54622" lon="3.73937">
        <ele>48.2</ele>
        <time>2017-10-08T11:04:01Z</time>
      </trkpt>
      <trkpt lat="43.54556" lon="3.74025">
        <ele>50.61</ele>
        <time>2017-10-08T11:04:16Z</time>
      </trkpt>
      <trkpt lat="43.54494" lon="3.74124">
        <ele>49.16</ele>
        <time>2017-10-08T11:04:31Z</time>
      </trkpt>
      <trkpt lat="43.54442" lon="3.74233">
        <ele>47.24</ele>
        <time>2017-10-08T11:04:46Z</time>
      </trkpt>
      <trkpt lat="43.54399" lon="3.74343">
        <ele>46.28</ele>
        <time>2017-10-08T11:05:02Z</time>
      </trkpt>
      <trkpt lat="43.54353" lon="3.7446">
        <ele>43.88</ele>
        <time>2017-10-08T11:05:18Z</time>
      </trkpt>
      <trkpt lat="43.54302" lon="3.7458">
        <ele>44.36</ele>
        <time>2017-10-08T11:05:35Z</time>
      </trkpt>
      <trkpt lat="43.54249" lon="3.74712">
        <ele>46.76</ele>
        <time>2017-10-08T11:05:54Z</time>
      </trkpt>
      <trkpt lat="43.542" lon="3.74836">
        <ele>49.16</ele>
        <time>2017-10-08T11:06:14Z</time>
      </trkpt>
      <trkpt lat="43.54175" lon="3.7489">
        <ele>50.13</ele>
        <time>2017-10-08T11:06:24Z</time>
      </trkpt>
      <trkpt lat="43.54171" lon="3.74894">
        <ele>50.13</ele>
        <time>2017-10-08T11:06:25Z</time>
      </trkpt>
      <trkpt lat="43.54095" lon="3.7496">
        <ele>49.16</ele>
        <time>2017-10-08T11:06:44Z</time>
      </trkpt>
      <trkpt lat="43.53992" lon="3.75047">
        <ele>48.68</ele>
        <time>2017-10-08T11:07:06Z</time>
      </trkpt>
      <trkpt lat="43.5392" lon="3.75107">
        <ele>48.2</ele>
        <time>2017-10-08T11:07:23Z</time>
      </trkpt>
      <trkpt lat="43.53903" lon="3.75122">
        <ele>47.72</ele>
        <time>2017-10-08T11:07:28Z</time>
      </trkpt>
      <trkpt lat="43.539" lon="3.75127">
        <ele>47.72</ele>
        <time>2017-10-08T11:07:29Z</time>
      </trkpt>
      <trkpt lat="43.53894" lon="3.75138">
        <ele>47.24</ele>
        <time>2017-10-08T11:07:31Z</time>
      </trkpt>
      <trkpt lat="43.53891" lon="3.75145">
        <ele>47.24</ele>
        <time>2017-10-08T11:07:32Z</time>
      </trkpt>
      <trkpt lat="43.53881" lon="3.75182">
        <ele>46.76</ele>
        <time>2017-10-08T11:07:37Z</time>
      </trkpt>
      <trkpt lat="43.5388" lon="3.75189">
        <ele>46.76</ele>
        <time>2017-10-08T11:07:38Z</time>
      </trkpt>
      <trkpt lat="43.53878" lon="3.75197">
        <ele>46.76</ele>
        <time>2017-10-08T11:07:39Z</time>
      </trkpt>
      <trkpt lat="43.53876" lon="3.75219">
        <ele>46.28</ele>
        <time>2017-10-08T11:07:42Z</time>
      </trkpt>
      <trkpt lat="43.5387" lon="3.75335">
        <ele>45.8</ele>
        <time>2017-10-08T11:07:58Z</time>
      </trkpt>
      <trkpt lat="43.53861" lon="3.7543">
        <ele>43.88</ele>
        <time>2017-10-08T11:08:14Z</time>
      </trkpt>
      <trkpt lat="43.5386" lon="3.75449">
        <ele>43.4</ele>
        <time>2017-10-08T11:08:18Z</time>
      </trkpt>
      <trkpt lat="43.53863" lon="3.75453">
        <ele>43.4</ele>
        <time>2017-10-08T11:08:19Z</time>
      </trkpt>
      <trkpt lat="43.53866" lon="3.75455">
        <ele>43.4</ele>
        <time>2017-10-08T11:08:20Z</time>
      </trkpt>
      <trkpt lat="43.5387" lon="3.75456">
        <ele>43.4</ele>
        <time>2017-10-08T11:08:21Z</time>
      </trkpt>
      <trkpt lat="43.53873" lon="3.75456">
        <ele>43.4</ele>
        <time>2017-10-08T11:08:22Z</time>
      </trkpt>
      <trkpt lat="43.53876" lon="3.75454">
        <ele>43.4</ele>
        <time>2017-10-08T11:08:23Z</time>
      </trkpt>
      <trkpt lat="43.53878" lon="3.75452">
        <ele>43.4</ele>
        <time>2017-10-08T11:08:24Z</time>
      </trkpt>
      <trkpt lat="43.5388" lon="3.75448">
        <ele>43.4</ele>
        <time>2017-10-08T11:08:25Z</time>
      </trkpt>
      <trkpt lat="43.53881" lon="3.75445">
        <ele>43.88</ele>
        <time>2017-10-08T11:08:26Z</time>
      </trkpt>
      <trkpt lat="43.53881" lon="3.75437">
        <ele>44.36</ele>
        <time>2017-10-08T11:08:28Z</time>
      </trkpt>
      <trkpt lat="43.5388" lon="3.75433">
        <ele>44.36</ele>
        <time>2017-10-08T11:08:29Z</time>
      </trkpt>
      <trkpt lat="43.53879" lon="3.75431">
        <ele>44.36</ele>
        <time>2017-10-08T11:08:30Z</time>
      </trkpt>
      <trkpt lat="43.53878" lon="3.75428">
        <ele>44.84</ele>
        <time>2017-10-08T11:08:31Z</time>
      </trkpt>
      <trkpt lat="43.53874" lon="3.75425">
        <ele>44.84</ele>
        <time>2017-10-08T11:08:33Z</time>
      </trkpt>
      <trkpt lat="43.53872" lon="3.75425">
        <ele>45.32</ele>
        <time>2017-10-08T11:08:34Z</time>
      </trkpt>
      <trkpt lat="43.5387" lon="3.75425">
        <ele>45.32</ele>
        <time>2017-10-08T11:08:35Z</time>
      </trkpt>
      <trkpt lat="43.53868" lon="3.75426">
        <ele>45.32</ele>
        <time>2017-10-08T11:08:36Z</time>
      </trkpt>
      <trkpt lat="43.53858" lon="3.75434">
        <ele>45.32</ele>
        <time>2017-10-08T11:08:40Z</time>
      </trkpt>
      <trkpt lat="43.53857" lon="3.75437">
        <ele>45.32</ele>
        <time>2017-10-08T11:08:41Z</time>
      </trkpt>
      <trkpt lat="43.53841" lon="3.75462">
        <ele>44.84</ele>
        <time>2017-10-08T11:08:48Z</time>
      </trkpt>
      <trkpt lat="43.53837" lon="3.75464">
        <ele>44.84</ele>
        <time>2017-10-08T11:08:49Z</time>
      </trkpt>
      <trkpt lat="43.53833" lon="3.75467">
        <ele>44.84</ele>
        <time>2017-10-08T11:08:50Z</time>
      </trkpt>
      <trkpt lat="43.53776" lon="3.75488">
        <ele>44.84</ele>
        <time>2017-10-08T11:09:03Z</time>
      </trkpt>
      <trkpt lat="43.53703" lon="3.75532">
        <ele>45.32</ele>
        <time>2017-10-08T11:09:20Z</time>
      </trkpt>
      <trkpt lat="43.53642" lon="3.75602">
        <ele>47.72</ele>
        <time>2017-10-08T11:09:37Z</time>
      </trkpt>
      <trkpt lat="43.53589" lon="3.75653">
        <ele>49.16</ele>
        <time>2017-10-08T11:09:53Z</time>
      </trkpt>
      <trkpt lat="43.53572" lon="3.75662">
        <ele>49.16</ele>
        <time>2017-10-08T11:09:58Z</time>
      </trkpt>
      <trkpt lat="43.53569" lon="3.75667">
        <ele>49.16</ele>
        <time>2017-10-08T11:09:59Z</time>
      </trkpt>
      <trkpt lat="43.53568" lon="3.75671">
        <ele>49.16</ele>
        <time>2017-10-08T11:10:00Z</time>
      </trkpt>
      <trkpt lat="43.53567" lon="3.75677">
        <ele>49.16</ele>
        <time>2017-10-08T11:10:01Z</time>
      </trkpt>
      <trkpt lat="43.53565" lon="3.75682">
        <ele>49.16</ele>
        <time>2017-10-08T11:10:02Z</time>
      </trkpt>
      <trkpt lat="43.53563" lon="3.75687">
        <ele>49.16</ele>
        <time>2017-10-08T11:10:03Z</time>
      </trkpt>
      <trkpt lat="43.5356" lon="3.75691">
        <ele>49.16</ele>
        <time>2017-10-08T11:10:04Z</time>
      </trkpt>
      <trkpt lat="43.53557" lon="3.75695">
        <ele>49.16</ele>
        <time>2017-10-08T11:10:05Z</time>
      </trkpt>
      <trkpt lat="43.53552" lon="3.75699">
        <ele>49.16</ele>
        <time>2017-10-08T11:10:06Z</time>
      </trkpt>
      <trkpt lat="43.53548" lon="3.75702">
        <ele>49.16</ele>
        <time>2017-10-08T11:10:07Z</time>
      </trkpt>
      <trkpt lat="43.53465" lon="3.75758">
        <ele>45.32</ele>
        <time>2017-10-08T11:10:24Z</time>
      </trkpt>
      <trkpt lat="43.53371" lon="3.75822">
        <ele>44.36</ele>
        <time>2017-10-08T11:10:43Z</time>
      </trkpt>
      <trkpt lat="43.5329" lon="3.75871">
        <ele>43.4</ele>
        <time>2017-10-08T11:11:00Z</time>
      </trkpt>
      <trkpt lat="43.53197" lon="3.75906">
        <ele>41.47</ele>
        <time>2017-10-08T11:11:18Z</time>
      </trkpt>
      <trkpt lat="43.53101" lon="3.75941">
        <ele>41.47</ele>
        <time>2017-10-08T11:11:37Z</time>
      </trkpt>
      <trkpt lat="43.52999" lon="3.75979">
        <ele>42.92</ele>
        <time>2017-10-08T11:11:57Z</time>
      </trkpt>
      <trkpt lat="43.529" lon="3.76007">
        <ele>44.84</ele>
        <time>2017-10-08T11:12:17Z</time>
      </trkpt>
      <trkpt lat="43.52803" lon="3.76028">
        <ele>47.72</ele>
        <time>2017-10-08T11:12:37Z</time>
      </trkpt>
      <trkpt lat="43.52744" lon="3.7604">
        <ele>49.16</ele>
        <time>2017-10-08T11:12:49Z</time>
      </trkpt>
      <trkpt lat="43.52739" lon="3.76042">
        <ele>49.16</ele>
        <time>2017-10-08T11:12:50Z</time>
      </trkpt>
      <trkpt lat="43.5265" lon="3.76075">
        <ele>50.61</ele>
        <time>2017-10-08T11:13:08Z</time>
      </trkpt>
      <trkpt lat="43.52558" lon="3.76112">
        <ele>53.49</ele>
        <time>2017-10-08T11:13:27Z</time>
      </trkpt>
      <trkpt lat="43.52455" lon="3.76152">
        <ele>54.45</ele>
        <time>2017-10-08T11:13:47Z</time>
      </trkpt>
      <trkpt lat="43.52361" lon="3.76191">
        <ele>55.41</ele>
        <time>2017-10-08T11:14:05Z</time>
      </trkpt>
      <trkpt lat="43.52273" lon="3.76226">
        <ele>54.45</ele>
        <time>2017-10-08T11:14:22Z</time>
      </trkpt>
      <trkpt lat="43.52181" lon="3.76292">
        <ele>53.01</ele>
        <time>2017-10-08T11:14:41Z</time>
      </trkpt>
      <trkpt lat="43.52107" lon="3.76391">
        <ele>54.93</ele>
        <time>2017-10-08T11:15:02Z</time>
      </trkpt>
      <trkpt lat="43.52034" lon="3.76476">
        <ele>58.78</ele>
        <time>2017-10-08T11:15:22Z</time>
      </trkpt>
      <trkpt lat="43.51975" lon="3.76495">
        <ele>61.18</ele>
        <time>2017-10-08T11:15:36Z</time>
      </trkpt>
      <trkpt lat="43.51918" lon="3.76492">
        <ele>64.07</ele>
        <time>2017-10-08T11:15:50Z</time>
      </trkpt>
      <trkpt lat="43.51854" lon="3.76485">
        <ele>65.51</ele>
        <time>2017-10-08T11:16:08Z</time>
      </trkpt>
      <trkpt lat="43.51787" lon="3.76484">
        <ele>66.47</ele>
        <time>2017-10-08T11:16:27Z</time>
      </trkpt>
      <trkpt lat="43.51744" lon="3.7652">
        <ele>66.95</ele>
        <time>2017-10-08T11:16:41Z</time>
      </trkpt>
      <trkpt lat="43.51697" lon="3.76595">
        <ele>67.91</ele>
        <time>2017-10-08T11:17:01Z</time>
      </trkpt>
      <trkpt lat="43.51655" lon="3.76667">
        <ele>70.79</ele>
        <time>2017-10-08T11:17:19Z</time>
      </trkpt>
      <trkpt lat="43.51627" lon="3.76725">
        <ele>71.76</ele>
        <time>2017-10-08T11:17:33Z</time>
      </trkpt>
      <trkpt lat="43.51626" lon="3.76727">
        <ele>71.76</ele>
        <time>2017-10-08T11:17:34Z</time>
      </trkpt>
      <trkpt lat="43.51617" lon="3.76746">
        <ele>72.72</ele>
        <time>2017-10-08T11:17:42Z</time>
      </trkpt>
      <trkpt lat="43.51619" lon="3.76786">
        <ele>73.68</ele>
        <time>2017-10-08T11:17:56Z</time>
      </trkpt>
      <trkpt lat="43.51619" lon="3.76827">
        <ele>74.64</ele>
        <time>2017-10-08T11:18:09Z</time>
      </trkpt>
      <trkpt lat="43.51605" lon="3.76891">
        <ele>78</ele>
        <time>2017-10-08T11:18:27Z</time>
      </trkpt>
      <trkpt lat="43.51589" lon="3.76931">
        <ele>79.93</ele>
        <time>2017-10-08T11:18:41Z</time>
      </trkpt>
      <trkpt lat="43.51577" lon="3.76958">
        <ele>79.93</ele>
        <time>2017-10-08T11:18:51Z</time>
      </trkpt>
      <trkpt lat="43.51581" lon="3.76974">
        <ele>79.93</ele>
        <time>2017-10-08T11:18:58Z</time>
      </trkpt>
      <trkpt lat="43.5158" lon="3.76976">
        <ele>79.93</ele>
        <time>2017-10-08T11:18:59Z</time>
      </trkpt>
      <trkpt lat="43.51579" lon="3.76978">
        <ele>79.93</ele>
        <time>2017-10-08T11:19:00Z</time>
      </trkpt>
      <trkpt lat="43.51578" lon="3.76981">
        <ele>79.93</ele>
        <time>2017-10-08T11:19:01Z</time>
      </trkpt>
      <trkpt lat="43.51577" lon="3.76982">
        <ele>79.93</ele>
        <time>2017-10-08T11:19:02Z</time>
      </trkpt>
      <trkpt lat="43.51576" lon="3.76984">
        <ele>79.93</ele>
        <time>2017-10-08T11:19:03Z</time>
      </trkpt>
      <trkpt lat="43.51575" lon="3.76986">
        <ele>79.93</ele>
        <time>2017-10-08T11:19:04Z</time>
      </trkpt>
      <trkpt lat="43.51574" lon="3.76987">
        <ele>79.93</ele>
        <time>2017-10-08T11:19:05Z</time>
      </trkpt>
      <trkpt lat="43.51572" lon="3.76994">
        <ele>78.97</ele>
        <time>2017-10-08T11:19:16Z</time>
      </trkpt>
      <trkpt lat="43.51572" lon="3.76997">
        <ele>79.45</ele>
        <time>2017-10-08T11:19:24Z</time>
      </trkpt>
      <trkpt lat="43.51574" lon="3.76999">
        <ele>79.45</ele>
        <time>2017-10-08T11:19:25Z</time>
      </trkpt>
      <trkpt lat="43.51576" lon="3.76999">
        <ele>79.45</ele>
        <time>2017-10-08T11:19:26Z</time>
      </trkpt>
      <trkpt lat="43.51577" lon="3.76998">
        <ele>79.45</ele>
        <time>2017-10-08T11:19:27Z</time>
      </trkpt>
      <trkpt lat="43.51579" lon="3.76997">
        <ele>79.93</ele>
        <time>2017-10-08T11:19:28Z</time>
      </trkpt>
      <trkpt lat="43.51581" lon="3.76996">
        <ele>79.93</ele>
        <time>2017-10-08T11:19:29Z</time>
      </trkpt>
      <trkpt lat="43.51582" lon="3.76996">
        <ele>79.93</ele>
        <time>2017-10-08T11:19:30Z</time>
      </trkpt>
      <trkpt lat="43.51584" lon="3.76997">
        <ele>80.41</ele>
        <time>2017-10-08T11:19:31Z</time>
      </trkpt>
      <trkpt lat="43.51585" lon="3.76998">
        <ele>80.41</ele>
        <time>2017-10-08T11:19:32Z</time>
      </trkpt>
      <trkpt lat="43.51585" lon="3.77">
        <ele>80.41</ele>
        <time>2017-10-08T11:19:33Z</time>
      </trkpt>
      <trkpt lat="43.51585" lon="3.77002">
        <ele>79.93</ele>
        <time>2017-10-08T11:19:34Z</time>
      </trkpt>
      <trkpt lat="43.51584" lon="3.77006">
        <ele>79.93</ele>
        <time>2017-10-08T11:19:35Z</time>
      </trkpt>
      <trkpt lat="43.51583" lon="3.77008">
        <ele>79.45</ele>
        <time>2017-10-08T11:19:36Z</time>
      </trkpt>
      <trkpt lat="43.51581" lon="3.77011">
        <ele>79.45</ele>
        <time>2017-10-08T11:19:37Z</time>
      </trkpt>
      <trkpt lat="43.5158" lon="3.77014">
        <ele>78.97</ele>
        <time>2017-10-08T11:19:38Z</time>
      </trkpt>
      <trkpt lat="43.51579" lon="3.77016">
        <ele>78.48</ele>
        <time>2017-10-08T11:19:39Z</time>
      </trkpt>
      <trkpt lat="43.51578" lon="3.77019">
        <ele>78.48</ele>
        <time>2017-10-08T11:19:40Z</time>
      </trkpt>
      <trkpt lat="43.51577" lon="3.77022">
        <ele>78</ele>
        <time>2017-10-08T11:19:41Z</time>
      </trkpt>
      <trkpt lat="43.5156" lon="3.77054">
        <ele>76.56</ele>
        <time>2017-10-08T11:19:56Z</time>
      </trkpt>
      <trkpt lat="43.51556" lon="3.77069">
        <ele>75.12</ele>
        <time>2017-10-08T11:20:08Z</time>
      </trkpt>
      <trkpt lat="43.51556" lon="3.7707">
        <ele>77.04</ele>
        <time>2017-10-08T11:20:26Z</time>
      </trkpt>
      <trkpt lat="43.51557" lon="3.77069">
        <ele>78.97</ele>
        <time>2017-10-08T11:20:53Z</time>
      </trkpt>
      <trkpt lat="43.51556" lon="3.77069">
        <ele>78</ele>
        <time>2017-10-08T11:21:12Z</time>
      </trkpt>
      <trkpt lat="43.51555" lon="3.77068">
        <ele>77.04</ele>
        <time>2017-10-08T11:21:49Z</time>
      </trkpt>
      <trkpt lat="43.51557" lon="3.77068">
        <ele>77.04</ele>
        <time>2017-10-08T11:22:19Z</time>
      </trkpt>
      <trkpt lat="43.51556" lon="3.77067">
        <ele>76.56</ele>
        <time>2017-10-08T11:22:50Z</time>
      </trkpt>
      <trkpt lat="43.5156" lon="3.77065">
        <ele>78.97</ele>
        <time>2017-10-08T11:23:17Z</time>
      </trkpt>
      <trkpt lat="43.51561" lon="3.77064">
        <ele>79.45</ele>
        <time>2017-10-08T11:23:18Z</time>
      </trkpt>
      <trkpt lat="43.51571" lon="3.77036">
        <ele>82.33</ele>
        <time>2017-10-08T11:23:32Z</time>
      </trkpt>
      <trkpt lat="43.51585" lon="3.77011">
        <ele>82.33</ele>
        <time>2017-10-08T11:23:45Z</time>
      </trkpt>
      <trkpt lat="43.51587" lon="3.77">
        <ele>83.77</ele>
        <time>2017-10-08T11:23:50Z</time>
      </trkpt>
      <trkpt lat="43.51585" lon="3.76999">
        <ele>83.77</ele>
        <time>2017-10-08T11:23:51Z</time>
      </trkpt>
      <trkpt lat="43.51573" lon="3.76982">
        <ele>84.25</ele>
        <time>2017-10-08T11:24:01Z</time>
      </trkpt>
      <trkpt lat="43.51572" lon="3.76981">
        <ele>84.25</ele>
        <time>2017-10-08T11:24:02Z</time>
      </trkpt>
      <trkpt lat="43.5157" lon="3.76979">
        <ele>84.25</ele>
        <time>2017-10-08T11:24:03Z</time>
      </trkpt>
      <trkpt lat="43.51568" lon="3.76978">
        <ele>84.25</ele>
        <time>2017-10-08T11:24:04Z</time>
      </trkpt>
      <trkpt lat="43.51566" lon="3.76977">
        <ele>84.25</ele>
        <time>2017-10-08T11:24:05Z</time>
      </trkpt>
      <trkpt lat="43.51563" lon="3.76969">
        <ele>81.85</ele>
        <time>2017-10-08T11:24:17Z</time>
      </trkpt>
      <trkpt lat="43.51556" lon="3.76947">
        <ele>81.37</ele>
        <time>2017-10-08T11:24:29Z</time>
      </trkpt>
      <trkpt lat="43.51541" lon="3.76907">
        <ele>79.93</ele>
        <time>2017-10-08T11:24:43Z</time>
      </trkpt>
      <trkpt lat="43.51525" lon="3.76869">
        <ele>78.97</ele>
        <time>2017-10-08T11:24:57Z</time>
      </trkpt>
      <trkpt lat="43.51523" lon="3.76869">
        <ele>78.97</ele>
        <time>2017-10-08T11:24:58Z</time>
      </trkpt>
      <trkpt lat="43.51516" lon="3.76874">
        <ele>79.93</ele>
        <time>2017-10-08T11:25:09Z</time>
      </trkpt>
      <trkpt lat="43.51515" lon="3.76875">
        <ele>81.85</ele>
        <time>2017-10-08T11:25:30Z</time>
      </trkpt>
      <trkpt lat="43.51517" lon="3.76877">
        <ele>81.37</ele>
        <time>2017-10-08T11:25:59Z</time>
      </trkpt>
      <trkpt lat="43.51518" lon="3.7687">
        <ele>81.85</ele>
        <time>2017-10-08T11:26:14Z</time>
      </trkpt>
      <trkpt lat="43.51518" lon="3.76868">
        <ele>81.37</ele>
        <time>2017-10-08T11:26:19Z</time>
      </trkpt>
      <trkpt lat="43.51517" lon="3.76866">
        <ele>80.89</ele>
        <time>2017-10-08T11:26:20Z</time>
      </trkpt>
      <trkpt lat="43.51516" lon="3.76864">
        <ele>80.89</ele>
        <time>2017-10-08T11:26:21Z</time>
      </trkpt>
      <trkpt lat="43.51516" lon="3.76862">
        <ele>80.89</ele>
        <time>2017-10-08T11:26:22Z</time>
      </trkpt>
      <trkpt lat="43.51515" lon="3.7686">
        <ele>80.89</ele>
        <time>2017-10-08T11:26:23Z</time>
      </trkpt>
      <trkpt lat="43.51507" lon="3.76805">
        <ele>78.97</ele>
        <time>2017-10-08T11:26:41Z</time>
      </trkpt>
      <trkpt lat="43.51506" lon="3.76802">
        <ele>78.97</ele>
        <time>2017-10-08T11:26:42Z</time>
      </trkpt>
      <trkpt lat="43.51505" lon="3.76799">
        <ele>79.45</ele>
        <time>2017-10-08T11:26:43Z</time>
      </trkpt>
      <trkpt lat="43.51492" lon="3.76748">
        <ele>80.89</ele>
        <time>2017-10-08T11:27:00Z</time>
      </trkpt>
      <trkpt lat="43.5149" lon="3.76736">
        <ele>80.89</ele>
        <time>2017-10-08T11:27:05Z</time>
      </trkpt>
      <trkpt lat="43.5149" lon="3.76735">
        <ele>81.37</ele>
        <time>2017-10-08T11:27:06Z</time>
      </trkpt>
      <trkpt lat="43.51487" lon="3.76729">
        <ele>81.85</ele>
        <time>2017-10-08T11:27:10Z</time>
      </trkpt>
      <trkpt lat="43.51487" lon="3.76728">
        <ele>81.85</ele>
        <time>2017-10-08T11:27:11Z</time>
      </trkpt>
      <trkpt lat="43.51486" lon="3.76725">
        <ele>81.85</ele>
        <time>2017-10-08T11:27:12Z</time>
      </trkpt>
      <trkpt lat="43.51479" lon="3.76696">
        <ele>83.29</ele>
        <time>2017-10-08T11:27:27Z</time>
      </trkpt>
      <trkpt lat="43.5147" lon="3.76681">
        <ele>83.77</ele>
        <time>2017-10-08T11:27:41Z</time>
      </trkpt>
      <trkpt lat="43.51464" lon="3.76683">
        <ele>84.25</ele>
        <time>2017-10-08T11:27:56Z</time>
      </trkpt>
      <trkpt lat="43.51464" lon="3.76686">
        <ele>84.73</ele>
        <time>2017-10-08T11:28:11Z</time>
      </trkpt>
      <trkpt lat="43.51458" lon="3.76683">
        <ele>83.29</ele>
        <time>2017-10-08T11:28:26Z</time>
      </trkpt>
      <trkpt lat="43.51457" lon="3.76682">
        <ele>82.33</ele>
        <time>2017-10-08T11:28:52Z</time>
      </trkpt>
      <trkpt lat="43.51458" lon="3.76683">
        <ele>84.25</ele>
        <time>2017-10-08T11:29:25Z</time>
      </trkpt>
      <trkpt lat="43.51458" lon="3.76682">
        <ele>85.69</ele>
        <time>2017-10-08T11:29:51Z</time>
      </trkpt>
      <trkpt lat="43.51459" lon="3.76682">
        <ele>87.14</ele>
        <time>2017-10-08T11:30:20Z</time>
      </trkpt>
      <trkpt lat="43.51458" lon="3.76682">
        <ele>86.18</ele>
        <time>2017-10-08T11:30:50Z</time>
      </trkpt>
      <trkpt lat="43.51457" lon="3.7668">
        <ele>86.66</ele>
        <time>2017-10-08T11:31:21Z</time>
      </trkpt>
      <trkpt lat="43.51462" lon="3.76686">
        <ele>85.69</ele>
        <time>2017-10-08T11:31:37Z</time>
      </trkpt>
      <trkpt lat="43.51465" lon="3.76686">
        <ele>84.73</ele>
        <time>2017-10-08T11:31:51Z</time>
      </trkpt>
      <trkpt lat="43.51466" lon="3.76686">
        <ele>83.77</ele>
        <time>2017-10-08T11:32:05Z</time>
      </trkpt>
      <trkpt lat="43.51464" lon="3.76686">
        <ele>82.33</ele>
        <time>2017-10-08T11:32:20Z</time>
      </trkpt>
      <trkpt lat="43.51464" lon="3.76687">
        <ele>81.85</ele>
        <time>2017-10-08T11:32:39Z</time>
      </trkpt>
      <trkpt lat="43.5146" lon="3.76685">
        <ele>83.77</ele>
        <time>2017-10-08T11:32:55Z</time>
      </trkpt>
      <trkpt lat="43.51457" lon="3.76685">
        <ele>82.81</ele>
        <time>2017-10-08T11:33:12Z</time>
      </trkpt>
      <trkpt lat="43.51456" lon="3.76685">
        <ele>81.85</ele>
        <time>2017-10-08T11:33:30Z</time>
      </trkpt>
      <trkpt lat="43.51456" lon="3.76683">
        <ele>82.81</ele>
        <time>2017-10-08T11:34:01Z</time>
      </trkpt>
      <trkpt lat="43.51457" lon="3.76683">
        <ele>78.97</ele>
        <time>2017-10-08T11:34:22Z</time>
      </trkpt>
      <trkpt lat="43.51457" lon="3.76681">
        <ele>77.52</ele>
        <time>2017-10-08T11:34:48Z</time>
      </trkpt>
      <trkpt lat="43.51455" lon="3.7668">
        <ele>77.52</ele>
        <time>2017-10-08T11:35:19Z</time>
      </trkpt>
      <trkpt lat="43.51458" lon="3.76681">
        <ele>79.93</ele>
        <time>2017-10-08T11:35:54Z</time>
      </trkpt>
      <trkpt lat="43.51458" lon="3.76684">
        <ele>83.29</ele>
        <time>2017-10-08T11:36:27Z</time>
      </trkpt>
      <trkpt lat="43.51458" lon="3.76679">
        <ele>85.69</ele>
        <time>2017-10-08T11:36:55Z</time>
      </trkpt>
      <trkpt lat="43.51458" lon="3.7668">
        <ele>86.66</ele>
        <time>2017-10-08T11:37:24Z</time>
      </trkpt>
      <trkpt lat="43.51458" lon="3.7668">
        <ele>89.06</ele>
        <time>2017-10-08T11:37:57Z</time>
      </trkpt>
      <trkpt lat="43.5146" lon="3.76679">
        <ele>88.1</ele>
        <time>2017-10-08T11:38:29Z</time>
      </trkpt>
      <trkpt lat="43.51458" lon="3.76679">
        <ele>87.14</ele>
        <time>2017-10-08T11:39:02Z</time>
      </trkpt>
      <trkpt lat="43.5146" lon="3.76679">
        <ele>87.62</ele>
        <time>2017-10-08T11:39:35Z</time>
      </trkpt>
      <trkpt lat="43.51461" lon="3.7668">
        <ele>86.66</ele>
        <time>2017-10-08T11:40:06Z</time>
      </trkpt>
      <trkpt lat="43.51462" lon="3.76683">
        <ele>86.18</ele>
        <time>2017-10-08T11:40:40Z</time>
      </trkpt>
      <trkpt lat="43.5146" lon="3.76682">
        <ele>88.1</ele>
        <time>2017-10-08T11:41:13Z</time>
      </trkpt>
      <trkpt lat="43.5146" lon="3.7668">
        <ele>88.1</ele>
        <time>2017-10-08T11:41:49Z</time>
      </trkpt>
      <trkpt lat="43.51458" lon="3.7668">
        <ele>88.1</ele>
        <time>2017-10-08T11:42:22Z</time>
      </trkpt>
      <trkpt lat="43.51458" lon="3.76681">
        <ele>87.62</ele>
        <time>2017-10-08T11:42:57Z</time>
      </trkpt>
      <trkpt lat="43.51458" lon="3.76678">
        <ele>87.62</ele>
        <time>2017-10-08T11:43:28Z</time>
      </trkpt>
      <trkpt lat="43.51455" lon="3.76678">
        <ele>86.18</ele>
        <time>2017-10-08T11:44:01Z</time>
      </trkpt>
      <trkpt lat="43.51457" lon="3.76678">
        <ele>84.73</ele>
        <time>2017-10-08T11:44:32Z</time>
      </trkpt>
      <trkpt lat="43.51458" lon="3.76679">
        <ele>85.21</ele>
        <time>2017-10-08T11:45:06Z</time>
      </trkpt>
      <trkpt lat="43.51457" lon="3.76678">
        <ele>85.69</ele>
        <time>2017-10-08T11:45:40Z</time>
      </trkpt>
      <trkpt lat="43.51459" lon="3.76679">
        <ele>86.66</ele>
        <time>2017-10-08T11:46:18Z</time>
      </trkpt>
      <trkpt lat="43.51459" lon="3.76678">
        <ele>86.18</ele>
        <time>2017-10-08T11:46:53Z</time>
      </trkpt>
      <trkpt lat="43.51459" lon="3.76679">
        <ele>85.69</ele>
        <time>2017-10-08T11:47:23Z</time>
      </trkpt>
      <trkpt lat="43.51461" lon="3.76678">
        <ele>86.66</ele>
        <time>2017-10-08T11:48:05Z</time>
      </trkpt>
      <trkpt lat="43.51459" lon="3.76679">
        <ele>85.21</ele>
        <time>2017-10-08T11:48:36Z</time>
      </trkpt>
      <trkpt lat="43.51459" lon="3.7668">
        <ele>85.21</ele>
        <time>2017-10-08T11:49:12Z</time>
      </trkpt>
      <trkpt lat="43.5146" lon="3.76681">
        <ele>86.18</ele>
        <time>2017-10-08T11:49:54Z</time>
      </trkpt>
      <trkpt lat="43.5146" lon="3.76681">
        <ele>87.14</ele>
        <time>2017-10-08T11:50:22Z</time>
      </trkpt>
      <trkpt lat="43.5146" lon="3.7668">
        <ele>89.06</ele>
        <time>2017-10-08T11:50:55Z</time>
      </trkpt>
      <trkpt lat="43.5146" lon="3.7668">
        <ele>89.54</ele>
        <time>2017-10-08T11:51:29Z</time>
      </trkpt>
      <trkpt lat="43.51459" lon="3.7668">
        <ele>87.62</ele>
        <time>2017-10-08T11:52:04Z</time>
      </trkpt>
      <trkpt lat="43.51457" lon="3.76679">
        <ele>86.66</ele>
        <time>2017-10-08T11:52:39Z</time>
      </trkpt>
      <trkpt lat="43.51457" lon="3.76677">
        <ele>86.18</ele>
        <time>2017-10-08T11:53:14Z</time>
      </trkpt>
      <trkpt lat="43.5146" lon="3.76676">
        <ele>88.1</ele>
        <time>2017-10-08T11:53:46Z</time>
      </trkpt>
      <trkpt lat="43.5146" lon="3.76679">
        <ele>87.62</ele>
        <time>2017-10-08T11:54:23Z</time>
      </trkpt>
      <trkpt lat="43.51457" lon="3.76677">
        <ele>86.66</ele>
        <time>2017-10-08T11:54:53Z</time>
      </trkpt>
      <trkpt lat="43.51458" lon="3.7668">
        <ele>87.62</ele>
        <time>2017-10-08T11:55:27Z</time>
      </trkpt>
      <trkpt lat="43.51458" lon="3.76681">
        <ele>87.62</ele>
        <time>2017-10-08T11:56:02Z</time>
      </trkpt>
      <trkpt lat="43.5146" lon="3.7668">
        <ele>88.1</ele>
        <time>2017-10-08T11:56:33Z</time>
      </trkpt>
      <trkpt lat="43.51459" lon="3.76679">
        <ele>89.54</ele>
        <time>2017-10-08T11:57:09Z</time>
      </trkpt>
      <trkpt lat="43.51458" lon="3.76679">
        <ele>89.54</ele>
        <time>2017-10-08T11:57:43Z</time>
      </trkpt>
      <trkpt lat="43.5146" lon="3.7668">
        <ele>90.5</ele>
        <time>2017-10-08T11:58:12Z</time>
      </trkpt>
      <trkpt lat="43.51459" lon="3.76683">
        <ele>90.98</ele>
        <time>2017-10-08T11:58:42Z</time>
      </trkpt>
      <trkpt lat="43.51458" lon="3.76681">
        <ele>89.06</ele>
        <time>2017-10-08T11:59:10Z</time>
      </trkpt>
      <trkpt lat="43.51457" lon="3.76682">
        <ele>88.58</ele>
        <time>2017-10-08T11:59:42Z</time>
      </trkpt>
      <trkpt lat="43.51459" lon="3.76681">
        <ele>89.06</ele>
        <time>2017-10-08T12:00:13Z</time>
      </trkpt>
      <trkpt lat="43.51458" lon="3.76679">
        <ele>87.14</ele>
        <time>2017-10-08T12:00:49Z</time>
      </trkpt>
      <trkpt lat="43.51459" lon="3.7668">
        <ele>86.18</ele>
        <time>2017-10-08T12:01:23Z</time>
      </trkpt>
      <trkpt lat="43.51459" lon="3.76682">
        <ele>88.1</ele>
        <time>2017-10-08T12:02:04Z</time>
      </trkpt>
      <trkpt lat="43.51458" lon="3.7668">
        <ele>88.58</ele>
        <time>2017-10-08T12:02:47Z</time>
      </trkpt>
      <trkpt lat="43.51459" lon="3.76679">
        <ele>89.06</ele>
        <time>2017-10-08T12:03:20Z</time>
      </trkpt>
      <trkpt lat="43.5146" lon="3.76683">
        <ele>87.14</ele>
        <time>2017-10-08T12:03:44Z</time>
      </trkpt>
      <trkpt lat="43.51465" lon="3.76685">
        <ele>88.1</ele>
        <time>2017-10-08T12:03:58Z</time>
      </trkpt>
      <trkpt lat="43.51463" lon="3.76684">
        <ele>88.1</ele>
        <time>2017-10-08T12:04:13Z</time>
      </trkpt>
      <trkpt lat="43.51457" lon="3.76681">
        <ele>87.62</ele>
        <time>2017-10-08T12:04:30Z</time>
      </trkpt>
      <trkpt lat="43.51457" lon="3.7668">
        <ele>88.1</ele>
        <time>2017-10-08T12:04:58Z</time>
      </trkpt>
      <trkpt lat="43.51455" lon="3.7668">
        <ele>85.69</ele>
        <time>2017-10-08T12:05:35Z</time>
      </trkpt>
      <trkpt lat="43.51456" lon="3.76679">
        <ele>86.18</ele>
        <time>2017-10-08T12:06:12Z</time>
      </trkpt>
      <trkpt lat="43.51458" lon="3.7668">
        <ele>88.58</ele>
        <time>2017-10-08T12:06:47Z</time>
      </trkpt>
      <trkpt lat="43.51458" lon="3.7668">
        <ele>89.54</ele>
        <time>2017-10-08T12:07:16Z</time>
      </trkpt>
      <trkpt lat="43.51459" lon="3.7668">
        <ele>90.98</ele>
        <time>2017-10-08T12:07:46Z</time>
      </trkpt>
      <trkpt lat="43.51457" lon="3.76678">
        <ele>88.58</ele>
        <time>2017-10-08T12:08:22Z</time>
      </trkpt>
      <trkpt lat="43.51458" lon="3.76678">
        <ele>89.06</ele>
        <time>2017-10-08T12:08:51Z</time>
      </trkpt>
      <trkpt lat="43.51456" lon="3.76679">
        <ele>88.1</ele>
        <time>2017-10-08T12:09:21Z</time>
      </trkpt>
      <trkpt lat="43.51457" lon="3.76679">
        <ele>88.58</ele>
        <time>2017-10-08T12:09:51Z</time>
      </trkpt>
      <trkpt lat="43.51458" lon="3.76681">
        <ele>87.62</ele>
        <time>2017-10-08T12:10:21Z</time>
      </trkpt>
      <trkpt lat="43.51457" lon="3.76681">
        <ele>87.14</ele>
        <time>2017-10-08T12:10:56Z</time>
      </trkpt>
      <trkpt lat="43.51457" lon="3.7668">
        <ele>88.58</ele>
        <time>2017-10-08T12:11:23Z</time>
      </trkpt>
      <trkpt lat="43.51456" lon="3.76682">
        <ele>87.62</ele>
        <time>2017-10-08T12:12:00Z</time>
      </trkpt>
      <trkpt lat="43.51457" lon="3.76682">
        <ele>85.69</ele>
        <time>2017-10-08T12:12:32Z</time>
      </trkpt>
      <trkpt lat="43.51456" lon="3.76681">
        <ele>86.66</ele>
        <time>2017-10-08T12:12:58Z</time>
      </trkpt>
      <trkpt lat="43.51456" lon="3.76679">
        <ele>88.1</ele>
        <time>2017-10-08T12:13:24Z</time>
      </trkpt>
      <trkpt lat="43.51455" lon="3.76679">
        <ele>89.06</ele>
        <time>2017-10-08T12:13:54Z</time>
      </trkpt>
      <trkpt lat="43.51455" lon="3.76679">
        <ele>88.58</ele>
        <time>2017-10-08T12:14:26Z</time>
      </trkpt>
      <trkpt lat="43.51454" lon="3.7668">
        <ele>88.58</ele>
        <time>2017-10-08T12:14:48Z</time>
      </trkpt>
      <trkpt lat="43.51455" lon="3.76681">
        <ele>89.54</ele>
        <time>2017-10-08T12:15:13Z</time>
      </trkpt>
      <trkpt lat="43.51454" lon="3.76679">
        <ele>89.54</ele>
        <time>2017-10-08T12:15:45Z</time>
      </trkpt>
      <trkpt lat="43.51458" lon="3.76681">
        <ele>87.62</ele>
        <time>2017-10-08T12:16:06Z</time>
      </trkpt>
      <trkpt lat="43.51466" lon="3.76678">
        <ele>86.66</ele>
        <time>2017-10-08T12:16:18Z</time>
      </trkpt>
      <trkpt lat="43.51467" lon="3.76674">
        <ele>86.18</ele>
        <time>2017-10-08T12:16:32Z</time>
      </trkpt>
      <trkpt lat="43.51467" lon="3.76673">
        <ele>86.66</ele>
        <time>2017-10-08T12:16:50Z</time>
      </trkpt>
      <trkpt lat="43.51466" lon="3.76672">
        <ele>86.66</ele>
        <time>2017-10-08T12:17:20Z</time>
      </trkpt>
      <trkpt lat="43.51467" lon="3.76672">
        <ele>87.62</ele>
        <time>2017-10-08T12:17:53Z</time>
      </trkpt>
      <trkpt lat="43.51468" lon="3.7667">
        <ele>87.62</ele>
        <time>2017-10-08T12:17:56Z</time>
      </trkpt>
      <trkpt lat="43.51468" lon="3.76669">
        <ele>88.1</ele>
        <time>2017-10-08T12:17:57Z</time>
      </trkpt>
      <trkpt lat="43.51458" lon="3.76642">
        <ele>89.54</ele>
        <time>2017-10-08T12:18:10Z</time>
      </trkpt>
      <trkpt lat="43.51432" lon="3.76607">
        <ele>89.54</ele>
        <time>2017-10-08T12:18:27Z</time>
      </trkpt>
      <trkpt lat="43.514" lon="3.76573">
        <ele>90.98</ele>
        <time>2017-10-08T12:18:45Z</time>
      </trkpt>
      <trkpt lat="43.5137" lon="3.76539">
        <ele>90.98</ele>
        <time>2017-10-08T12:19:02Z</time>
      </trkpt>
      <trkpt lat="43.51331" lon="3.76502">
        <ele>92.42</ele>
        <time>2017-10-08T12:19:23Z</time>
      </trkpt>
      <trkpt lat="43.51296" lon="3.76474">
        <ele>92.9</ele>
        <time>2017-10-08T12:19:41Z</time>
      </trkpt>
      <trkpt lat="43.51293" lon="3.7644">
        <ele>91.94</ele>
        <time>2017-10-08T12:19:53Z</time>
      </trkpt>
      <trkpt lat="43.51324" lon="3.76417">
        <ele>86.18</ele>
        <time>2017-10-08T12:20:05Z</time>
      </trkpt>
      <trkpt lat="43.51348" lon="3.76399">
        <ele>82.81</ele>
        <time>2017-10-08T12:20:12Z</time>
      </trkpt>
      <trkpt lat="43.51402" lon="3.76361">
        <ele>78.97</ele>
        <time>2017-10-08T12:20:26Z</time>
      </trkpt>
      <trkpt lat="43.51438" lon="3.76337">
        <ele>78.97</ele>
        <time>2017-10-08T12:20:41Z</time>
      </trkpt>
      <trkpt lat="43.51461" lon="3.76326">
        <ele>82.33</ele>
        <time>2017-10-08T12:20:54Z</time>
      </trkpt>
      <trkpt lat="43.51468" lon="3.7633">
        <ele>84.73</ele>
        <time>2017-10-08T12:21:05Z</time>
      </trkpt>
      <trkpt lat="43.51471" lon="3.76332">
        <ele>86.18</ele>
        <time>2017-10-08T12:21:20Z</time>
      </trkpt>
      <trkpt lat="43.51472" lon="3.76329">
        <ele>88.58</ele>
        <time>2017-10-08T12:21:45Z</time>
      </trkpt>
      <trkpt lat="43.5147" lon="3.7633">
        <ele>88.1</ele>
        <time>2017-10-08T12:22:18Z</time>
      </trkpt>
      <trkpt lat="43.51473" lon="3.76328">
        <ele>88.1</ele>
        <time>2017-10-08T12:22:32Z</time>
      </trkpt>
      <trkpt lat="43.51474" lon="3.76328">
        <ele>87.62</ele>
        <time>2017-10-08T12:22:33Z</time>
      </trkpt>
      <trkpt lat="43.51494" lon="3.76341">
        <ele>87.14</ele>
        <time>2017-10-08T12:22:47Z</time>
      </trkpt>
      <trkpt lat="43.51499" lon="3.76341">
        <ele>86.66</ele>
        <time>2017-10-08T12:23:02Z</time>
      </trkpt>
      <trkpt lat="43.51497" lon="3.76342">
        <ele>87.62</ele>
        <time>2017-10-08T12:23:30Z</time>
      </trkpt>
      <trkpt lat="43.51496" lon="3.76338">
        <ele>86.66</ele>
        <time>2017-10-08T12:24:06Z</time>
      </trkpt>
      <trkpt lat="43.515" lon="3.76334">
        <ele>83.77</ele>
        <time>2017-10-08T12:24:22Z</time>
      </trkpt>
      <trkpt lat="43.51485" lon="3.76311">
        <ele>84.25</ele>
        <time>2017-10-08T12:24:35Z</time>
      </trkpt>
      <trkpt lat="43.51451" lon="3.76296">
        <ele>83.29</ele>
        <time>2017-10-08T12:24:48Z</time>
      </trkpt>
      <trkpt lat="43.51421" lon="3.76249">
        <ele>83.77</ele>
        <time>2017-10-08T12:25:04Z</time>
      </trkpt>
      <trkpt lat="43.51405" lon="3.76213">
        <ele>86.66</ele>
        <time>2017-10-08T12:25:18Z</time>
      </trkpt>
      <trkpt lat="43.51385" lon="3.76212">
        <ele>90.02</ele>
        <time>2017-10-08T12:25:32Z</time>
      </trkpt>
      <trkpt lat="43.51382" lon="3.76213">
        <ele>90.98</ele>
        <time>2017-10-08T12:25:46Z</time>
      </trkpt>
      <trkpt lat="43.51376" lon="3.76212">
        <ele>90.98</ele>
        <time>2017-10-08T12:26:03Z</time>
      </trkpt>
      <trkpt lat="43.51374" lon="3.76207">
        <ele>90.02</ele>
        <time>2017-10-08T12:26:18Z</time>
      </trkpt>
      <trkpt lat="43.51379" lon="3.76201">
        <ele>87.14</ele>
        <time>2017-10-08T12:26:32Z</time>
      </trkpt>
      <trkpt lat="43.51378" lon="3.76207">
        <ele>84.25</ele>
        <time>2017-10-08T12:26:52Z</time>
      </trkpt>
      <trkpt lat="43.5138" lon="3.762">
        <ele>84.73</ele>
        <time>2017-10-08T12:27:05Z</time>
      </trkpt>
      <trkpt lat="43.51377" lon="3.76205">
        <ele>85.69</ele>
        <time>2017-10-08T12:27:20Z</time>
      </trkpt>
      <trkpt lat="43.51378" lon="3.76213">
        <ele>85.21</ele>
        <time>2017-10-08T12:27:38Z</time>
      </trkpt>
      <trkpt lat="43.51383" lon="3.76214">
        <ele>85.21</ele>
        <time>2017-10-08T12:27:52Z</time>
      </trkpt>
      <trkpt lat="43.51384" lon="3.76212">
        <ele>84.73</ele>
        <time>2017-10-08T12:27:53Z</time>
      </trkpt>
      <trkpt lat="43.51385" lon="3.76209">
        <ele>84.73</ele>
        <time>2017-10-08T12:27:54Z</time>
      </trkpt>
      <trkpt lat="43.51385" lon="3.76203">
        <ele>84.73</ele>
        <time>2017-10-08T12:27:56Z</time>
      </trkpt>
      <trkpt lat="43.51385" lon="3.76199">
        <ele>85.21</ele>
        <time>2017-10-08T12:27:57Z</time>
      </trkpt>
      <trkpt lat="43.51384" lon="3.76196">
        <ele>85.21</ele>
        <time>2017-10-08T12:27:58Z</time>
      </trkpt>
      <trkpt lat="43.51383" lon="3.76194">
        <ele>85.21</ele>
        <time>2017-10-08T12:27:59Z</time>
      </trkpt>
      <trkpt lat="43.51382" lon="3.76191">
        <ele>85.21</ele>
        <time>2017-10-08T12:28:00Z</time>
      </trkpt>
      <trkpt lat="43.51381" lon="3.76188">
        <ele>85.21</ele>
        <time>2017-10-08T12:28:01Z</time>
      </trkpt>
      <trkpt lat="43.51364" lon="3.76159">
        <ele>86.18</ele>
        <time>2017-10-08T12:28:14Z</time>
      </trkpt>
      <trkpt lat="43.51346" lon="3.76124">
        <ele>86.18</ele>
        <time>2017-10-08T12:28:29Z</time>
      </trkpt>
      <trkpt lat="43.51338" lon="3.76089">
        <ele>88.1</ele>
        <time>2017-10-08T12:28:42Z</time>
      </trkpt>
      <trkpt lat="43.51334" lon="3.76072">
        <ele>89.54</ele>
        <time>2017-10-08T12:28:48Z</time>
      </trkpt>
      <trkpt lat="43.51313" lon="3.76035">
        <ele>92.42</ele>
        <time>2017-10-08T12:29:02Z</time>
      </trkpt>
      <trkpt lat="43.51288" lon="3.75989">
        <ele>93.39</ele>
        <time>2017-10-08T12:29:19Z</time>
      </trkpt>
      <trkpt lat="43.51266" lon="3.75961">
        <ele>94.35</ele>
        <time>2017-10-08T12:29:33Z</time>
      </trkpt>
      <trkpt lat="43.51248" lon="3.75938">
        <ele>94.83</ele>
        <time>2017-10-08T12:29:46Z</time>
      </trkpt>
      <trkpt lat="43.51247" lon="3.75931">
        <ele>96.75</ele>
        <time>2017-10-08T12:29:56Z</time>
      </trkpt>
      <trkpt lat="43.51247" lon="3.7593">
        <ele>97.23</ele>
        <time>2017-10-08T12:29:57Z</time>
      </trkpt>
      <trkpt lat="43.51242" lon="3.75931">
        <ele>97.71</ele>
        <time>2017-10-08T12:30:01Z</time>
      </trkpt>
      <trkpt lat="43.51234" lon="3.75939">
        <ele>98.67</ele>
        <time>2017-10-08T12:30:15Z</time>
      </trkpt>
      <trkpt lat="43.51231" lon="3.75937">
        <ele>101.08</ele>
        <time>2017-10-08T12:30:43Z</time>
      </trkpt>
      <trkpt lat="43.51233" lon="3.75935">
        <ele>104.92</ele>
        <time>2017-10-08T12:31:15Z</time>
      </trkpt>
      <trkpt lat="43.51223" lon="3.75954">
        <ele>103</ele>
        <time>2017-10-08T12:31:31Z</time>
      </trkpt>
      <trkpt lat="43.51205" lon="3.75989">
        <ele>103</ele>
        <time>2017-10-08T12:31:47Z</time>
      </trkpt>
      <trkpt lat="43.51183" lon="3.76005">
        <ele>105.88</ele>
        <time>2017-10-08T12:32:02Z</time>
      </trkpt>
      <trkpt lat="43.51157" lon="3.76016">
        <ele>110.21</ele>
        <time>2017-10-08T12:32:18Z</time>
      </trkpt>
      <trkpt lat="43.51136" lon="3.76036">
        <ele>111.65</ele>
        <time>2017-10-08T12:32:34Z</time>
      </trkpt>
      <trkpt lat="43.51119" lon="3.76061">
        <ele>110.21</ele>
        <time>2017-10-08T12:32:49Z</time>
      </trkpt>
      <trkpt lat="43.51114" lon="3.76065">
        <ele>110.21</ele>
        <time>2017-10-08T12:32:52Z</time>
      </trkpt>
      <trkpt lat="43.51093" lon="3.7609">
        <ele>106.84</ele>
        <time>2017-10-08T12:33:08Z</time>
      </trkpt>
      <trkpt lat="43.51079" lon="3.7608">
        <ele>108.77</ele>
        <time>2017-10-08T12:33:17Z</time>
      </trkpt>
      <trkpt lat="43.51059" lon="3.76047">
        <ele>109.25</ele>
        <time>2017-10-08T12:33:32Z</time>
      </trkpt>
      <trkpt lat="43.51045" lon="3.76009">
        <ele>108.77</ele>
        <time>2017-10-08T12:33:41Z</time>
      </trkpt>
      <trkpt lat="43.51043" lon="3.76005">
        <ele>108.29</ele>
        <time>2017-10-08T12:33:42Z</time>
      </trkpt>
      <trkpt lat="43.51021" lon="3.75936">
        <ele>107.81</ele>
        <time>2017-10-08T12:33:55Z</time>
      </trkpt>
      <trkpt lat="43.51007" lon="3.75889">
        <ele>108.77</ele>
        <time>2017-10-08T12:34:08Z</time>
      </trkpt>
      <trkpt lat="43.51002" lon="3.75849">
        <ele>108.77</ele>
        <time>2017-10-08T12:34:19Z</time>
      </trkpt>
      <trkpt lat="43.50994" lon="3.75786">
        <ele>110.69</ele>
        <time>2017-10-08T12:34:36Z</time>
      </trkpt>
      <trkpt lat="43.50989" lon="3.75737">
        <ele>110.69</ele>
        <time>2017-10-08T12:34:52Z</time>
      </trkpt>
      <trkpt lat="43.50979" lon="3.75697">
        <ele>109.25</ele>
        <time>2017-10-08T12:35:06Z</time>
      </trkpt>
      <trkpt lat="43.50978" lon="3.75652">
        <ele>105.88</ele>
        <time>2017-10-08T12:35:19Z</time>
      </trkpt>
      <trkpt lat="43.50978" lon="3.75644">
        <ele>106.84</ele>
        <time>2017-10-08T12:35:22Z</time>
      </trkpt>
      <trkpt lat="43.50977" lon="3.7564">
        <ele>106.84</ele>
        <time>2017-10-08T12:35:23Z</time>
      </trkpt>
      <trkpt lat="43.50976" lon="3.75638">
        <ele>106.84</ele>
        <time>2017-10-08T12:35:24Z</time>
      </trkpt>
      <trkpt lat="43.50975" lon="3.75637">
        <ele>107.32</ele>
        <time>2017-10-08T12:35:25Z</time>
      </trkpt>
      <trkpt lat="43.50975" lon="3.75638">
        <ele>107.32</ele>
        <time>2017-10-08T12:35:26Z</time>
      </trkpt>
      <trkpt lat="43.50975" lon="3.7564">
        <ele>106.84</ele>
        <time>2017-10-08T12:35:27Z</time>
      </trkpt>
      <trkpt lat="43.50975" lon="3.75642">
        <ele>106.84</ele>
        <time>2017-10-08T12:35:28Z</time>
      </trkpt>
      <trkpt lat="43.50976" lon="3.75644">
        <ele>106.36</ele>
        <time>2017-10-08T12:35:29Z</time>
      </trkpt>
      <trkpt lat="43.50977" lon="3.75645">
        <ele>106.36</ele>
        <time>2017-10-08T12:35:30Z</time>
      </trkpt>
      <trkpt lat="43.50979" lon="3.75645">
        <ele>106.36</ele>
        <time>2017-10-08T12:35:31Z</time>
      </trkpt>
      <trkpt lat="43.5098" lon="3.75645">
        <ele>106.36</ele>
        <time>2017-10-08T12:35:32Z</time>
      </trkpt>
      <trkpt lat="43.50982" lon="3.75645">
        <ele>105.88</ele>
        <time>2017-10-08T12:35:33Z</time>
      </trkpt>
      <trkpt lat="43.50986" lon="3.75642">
        <ele>105.4</ele>
        <time>2017-10-08T12:35:35Z</time>
      </trkpt>
      <trkpt lat="43.50989" lon="3.75642">
        <ele>104.92</ele>
        <time>2017-10-08T12:35:36Z</time>
      </trkpt>
      <trkpt lat="43.50991" lon="3.75641">
        <ele>104.44</ele>
        <time>2017-10-08T12:35:37Z</time>
      </trkpt>
      <trkpt lat="43.51014" lon="3.75628">
        <ele>104.44</ele>
        <time>2017-10-08T12:35:47Z</time>
      </trkpt>
      <trkpt lat="43.51052" lon="3.7565">
        <ele>106.36</ele>
        <time>2017-10-08T12:36:02Z</time>
      </trkpt>
      <trkpt lat="43.51082" lon="3.75665">
        <ele>107.81</ele>
        <time>2017-10-08T12:36:13Z</time>
      </trkpt>
      <trkpt lat="43.51116" lon="3.75687">
        <ele>107.32</ele>
        <time>2017-10-08T12:36:27Z</time>
      </trkpt>
      <trkpt lat="43.51147" lon="3.75697">
        <ele>105.88</ele>
        <time>2017-10-08T12:36:38Z</time>
      </trkpt>
      <trkpt lat="43.51149" lon="3.75698">
        <ele>105.88</ele>
        <time>2017-10-08T12:36:39Z</time>
      </trkpt>
      <trkpt lat="43.51185" lon="3.75706">
        <ele>101.56</ele>
        <time>2017-10-08T12:36:54Z</time>
      </trkpt>
      <trkpt lat="43.51226" lon="3.75712">
        <ele>97.23</ele>
        <time>2017-10-08T12:37:08Z</time>
      </trkpt>
      <trkpt lat="43.51271" lon="3.75717">
        <ele>91.94</ele>
        <time>2017-10-08T12:37:20Z</time>
      </trkpt>
      <trkpt lat="43.51311" lon="3.75696">
        <ele>88.1</ele>
        <time>2017-10-08T12:37:31Z</time>
      </trkpt>
      <trkpt lat="43.51344" lon="3.75661">
        <ele>90.5</ele>
        <time>2017-10-08T12:37:44Z</time>
      </trkpt>
      <trkpt lat="43.51354" lon="3.75632">
        <ele>88.1</ele>
        <time>2017-10-08T12:37:54Z</time>
      </trkpt>
      <trkpt lat="43.51344" lon="3.75603">
        <ele>88.1</ele>
        <time>2017-10-08T12:38:08Z</time>
      </trkpt>
      <trkpt lat="43.51324" lon="3.75559">
        <ele>89.54</ele>
        <time>2017-10-08T12:38:25Z</time>
      </trkpt>
      <trkpt lat="43.51299" lon="3.75523">
        <ele>93.39</ele>
        <time>2017-10-08T12:38:41Z</time>
      </trkpt>
      <trkpt lat="43.51276" lon="3.75491">
        <ele>95.31</ele>
        <time>2017-10-08T12:38:56Z</time>
      </trkpt>
      <trkpt lat="43.51257" lon="3.75455">
        <ele>97.23</ele>
        <time>2017-10-08T12:39:11Z</time>
      </trkpt>
      <trkpt lat="43.51227" lon="3.75429">
        <ele>95.79</ele>
        <time>2017-10-08T12:39:26Z</time>
      </trkpt>
      <trkpt lat="43.51197" lon="3.75398">
        <ele>98.67</ele>
        <time>2017-10-08T12:39:43Z</time>
      </trkpt>
      <trkpt lat="43.51171" lon="3.75366">
        <ele>100.11</ele>
        <time>2017-10-08T12:39:59Z</time>
      </trkpt>
      <trkpt lat="43.51156" lon="3.7534">
        <ele>103.48</ele>
        <time>2017-10-08T12:40:12Z</time>
      </trkpt>
      <trkpt lat="43.51143" lon="3.75313">
        <ele>106.36</ele>
        <time>2017-10-08T12:40:27Z</time>
      </trkpt>
      <trkpt lat="43.51124" lon="3.75283">
        <ele>110.21</ele>
        <time>2017-10-08T12:40:45Z</time>
      </trkpt>
      <trkpt lat="43.51101" lon="3.75254">
        <ele>111.65</ele>
        <time>2017-10-08T12:41:01Z</time>
      </trkpt>
      <trkpt lat="43.51099" lon="3.7525">
        <ele>111.65</ele>
        <time>2017-10-08T12:41:03Z</time>
      </trkpt>
      <trkpt lat="43.51098" lon="3.75248">
        <ele>112.13</ele>
        <time>2017-10-08T12:41:04Z</time>
      </trkpt>
      <trkpt lat="43.51097" lon="3.75246">
        <ele>112.13</ele>
        <time>2017-10-08T12:41:05Z</time>
      </trkpt>
      <trkpt lat="43.51096" lon="3.75244">
        <ele>112.13</ele>
        <time>2017-10-08T12:41:06Z</time>
      </trkpt>
      <trkpt lat="43.51095" lon="3.75242">
        <ele>112.13</ele>
        <time>2017-10-08T12:41:07Z</time>
      </trkpt>
      <trkpt lat="43.51094" lon="3.75239">
        <ele>112.13</ele>
        <time>2017-10-08T12:41:08Z</time>
      </trkpt>
      <trkpt lat="43.51094" lon="3.75237">
        <ele>112.13</ele>
        <time>2017-10-08T12:41:09Z</time>
      </trkpt>
      <trkpt lat="43.51093" lon="3.75235">
        <ele>112.13</ele>
        <time>2017-10-08T12:41:10Z</time>
      </trkpt>
      <trkpt lat="43.51092" lon="3.75233">
        <ele>112.13</ele>
        <time>2017-10-08T12:41:11Z</time>
      </trkpt>
      <trkpt lat="43.51091" lon="3.75231">
        <ele>112.61</ele>
        <time>2017-10-08T12:41:12Z</time>
      </trkpt>
      <trkpt lat="43.51091" lon="3.75228">
        <ele>112.61</ele>
        <time>2017-10-08T12:41:13Z</time>
      </trkpt>
      <trkpt lat="43.51078" lon="3.75194">
        <ele>111.65</ele>
        <time>2017-10-08T12:41:29Z</time>
      </trkpt>
      <trkpt lat="43.5108" lon="3.75195">
        <ele>109.73</ele>
        <time>2017-10-08T12:41:42Z</time>
      </trkpt>
      <trkpt lat="43.51083" lon="3.75191">
        <ele>109.25</ele>
        <time>2017-10-08T12:42:09Z</time>
      </trkpt>
      <trkpt lat="43.5108" lon="3.75192">
        <ele>108.77</ele>
        <time>2017-10-08T12:42:37Z</time>
      </trkpt>
      <trkpt lat="43.51075" lon="3.75193">
        <ele>107.32</ele>
        <time>2017-10-08T12:43:04Z</time>
      </trkpt>
      <trkpt lat="43.51075" lon="3.75194">
        <ele>105.88</ele>
        <time>2017-10-08T12:43:24Z</time>
      </trkpt>
      <trkpt lat="43.51079" lon="3.75192">
        <ele>103.96</ele>
        <time>2017-10-08T12:43:44Z</time>
      </trkpt>
      <trkpt lat="43.51079" lon="3.7519">
        <ele>103.48</ele>
        <time>2017-10-08T12:43:45Z</time>
      </trkpt>
      <trkpt lat="43.51079" lon="3.75188">
        <ele>103.48</ele>
        <time>2017-10-08T12:43:46Z</time>
      </trkpt>
      <trkpt lat="43.51079" lon="3.75186">
        <ele>103.96</ele>
        <time>2017-10-08T12:43:47Z</time>
      </trkpt>
      <trkpt lat="43.51079" lon="3.75184">
        <ele>103.96</ele>
        <time>2017-10-08T12:43:48Z</time>
      </trkpt>
      <trkpt lat="43.51079" lon="3.75181">
        <ele>103.96</ele>
        <time>2017-10-08T12:43:49Z</time>
      </trkpt>
      <trkpt lat="43.51079" lon="3.75178">
        <ele>103.96</ele>
        <time>2017-10-08T12:43:50Z</time>
      </trkpt>
      <trkpt lat="43.51078" lon="3.75175">
        <ele>103.96</ele>
        <time>2017-10-08T12:43:51Z</time>
      </trkpt>
      <trkpt lat="43.51078" lon="3.75139">
        <ele>102.52</ele>
        <time>2017-10-08T12:44:02Z</time>
      </trkpt>
      <trkpt lat="43.51072" lon="3.75099">
        <ele>100.11</ele>
        <time>2017-10-08T12:44:10Z</time>
      </trkpt>
      <trkpt lat="43.51068" lon="3.75088">
        <ele>99.63</ele>
        <time>2017-10-08T12:44:12Z</time>
      </trkpt>
      <trkpt lat="43.51066" lon="3.75082">
        <ele>99.15</ele>
        <time>2017-10-08T12:44:13Z</time>
      </trkpt>
      <trkpt lat="43.51062" lon="3.7507">
        <ele>98.19</ele>
        <time>2017-10-08T12:44:15Z</time>
      </trkpt>
      <trkpt lat="43.51059" lon="3.75064">
        <ele>97.71</ele>
        <time>2017-10-08T12:44:16Z</time>
      </trkpt>
      <trkpt lat="43.51053" lon="3.75052">
        <ele>97.23</ele>
        <time>2017-10-08T12:44:18Z</time>
      </trkpt>
      <trkpt lat="43.5102" lon="3.7496">
        <ele>91.46</ele>
        <time>2017-10-08T12:44:31Z</time>
      </trkpt>
      <trkpt lat="43.51018" lon="3.74951">
        <ele>91.46</ele>
        <time>2017-10-08T12:44:32Z</time>
      </trkpt>
      <trkpt lat="43.51017" lon="3.74944">
        <ele>90.98</ele>
        <time>2017-10-08T12:44:33Z</time>
      </trkpt>
      <trkpt lat="43.51016" lon="3.74936">
        <ele>90.5</ele>
        <time>2017-10-08T12:44:34Z</time>
      </trkpt>
      <trkpt lat="43.51009" lon="3.74869">
        <ele>88.1</ele>
        <time>2017-10-08T12:44:47Z</time>
      </trkpt>
      <trkpt lat="43.50998" lon="3.74811">
        <ele>88.1</ele>
        <time>2017-10-08T12:45:01Z</time>
      </trkpt>
      <trkpt lat="43.50998" lon="3.74757">
        <ele>86.66</ele>
        <time>2017-10-08T12:45:14Z</time>
      </trkpt>
      <trkpt lat="43.50982" lon="3.747">
        <ele>86.66</ele>
        <time>2017-10-08T12:45:27Z</time>
      </trkpt>
      <trkpt lat="43.50961" lon="3.74631">
        <ele>87.14</ele>
        <time>2017-10-08T12:45:43Z</time>
      </trkpt>
      <trkpt lat="43.50932" lon="3.74618">
        <ele>88.1</ele>
        <time>2017-10-08T12:45:54Z</time>
      </trkpt>
      <trkpt lat="43.50891" lon="3.74618">
        <ele>92.42</ele>
        <time>2017-10-08T12:46:12Z</time>
      </trkpt>
      <trkpt lat="43.50856" lon="3.74615">
        <ele>96.27</ele>
        <time>2017-10-08T12:46:29Z</time>
      </trkpt>
      <trkpt lat="43.50823" lon="3.74609">
        <ele>96.75</ele>
        <time>2017-10-08T12:46:47Z</time>
      </trkpt>
      <trkpt lat="43.50799" lon="3.74607">
        <ele>94.83</ele>
        <time>2017-10-08T12:47:01Z</time>
      </trkpt>
      <trkpt lat="43.50765" lon="3.74606">
        <ele>94.83</ele>
        <time>2017-10-08T12:47:18Z</time>
      </trkpt>
      <trkpt lat="43.50734" lon="3.74607">
        <ele>96.27</ele>
        <time>2017-10-08T12:47:33Z</time>
      </trkpt>
      <trkpt lat="43.50697" lon="3.74606">
        <ele>97.23</ele>
        <time>2017-10-08T12:47:51Z</time>
      </trkpt>
      <trkpt lat="43.50663" lon="3.74606">
        <ele>102.52</ele>
        <time>2017-10-08T12:48:07Z</time>
      </trkpt>
      <trkpt lat="43.50643" lon="3.74608">
        <ele>104.92</ele>
        <time>2017-10-08T12:48:17Z</time>
      </trkpt>
      <trkpt lat="43.50641" lon="3.74606">
        <ele>104.92</ele>
        <time>2017-10-08T12:48:18Z</time>
      </trkpt>
      <trkpt lat="43.5064" lon="3.74604">
        <ele>105.4</ele>
        <time>2017-10-08T12:48:19Z</time>
      </trkpt>
      <trkpt lat="43.50639" lon="3.74602">
        <ele>105.4</ele>
        <time>2017-10-08T12:48:20Z</time>
      </trkpt>
      <trkpt lat="43.50638" lon="3.74601">
        <ele>105.4</ele>
        <time>2017-10-08T12:48:21Z</time>
      </trkpt>
      <trkpt lat="43.50636" lon="3.74599">
        <ele>105.88</ele>
        <time>2017-10-08T12:48:22Z</time>
      </trkpt>
      <trkpt lat="43.50613" lon="3.74566">
        <ele>104.44</ele>
        <time>2017-10-08T12:48:33Z</time>
      </trkpt>
      <trkpt lat="43.5058" lon="3.74519">
        <ele>102.04</ele>
        <time>2017-10-08T12:48:45Z</time>
      </trkpt>
      <trkpt lat="43.50547" lon="3.74462">
        <ele>99.63</ele>
        <time>2017-10-08T12:48:59Z</time>
      </trkpt>
      <trkpt lat="43.50521" lon="3.74432">
        <ele>99.15</ele>
        <time>2017-10-08T12:49:09Z</time>
      </trkpt>
      <trkpt lat="43.5052" lon="3.74429">
        <ele>99.63</ele>
        <time>2017-10-08T12:49:10Z</time>
      </trkpt>
      <trkpt lat="43.50519" lon="3.74426">
        <ele>99.15</ele>
        <time>2017-10-08T12:49:11Z</time>
      </trkpt>
      <trkpt lat="43.50519" lon="3.74423">
        <ele>99.15</ele>
        <time>2017-10-08T12:49:12Z</time>
      </trkpt>
      <trkpt lat="43.5052" lon="3.74419">
        <ele>99.63</ele>
        <time>2017-10-08T12:49:13Z</time>
      </trkpt>
      <trkpt lat="43.50522" lon="3.74416">
        <ele>99.63</ele>
        <time>2017-10-08T12:49:14Z</time>
      </trkpt>
      <trkpt lat="43.50524" lon="3.74413">
        <ele>99.63</ele>
        <time>2017-10-08T12:49:15Z</time>
      </trkpt>
      <trkpt lat="43.50526" lon="3.7441">
        <ele>99.15</ele>
        <time>2017-10-08T12:49:16Z</time>
      </trkpt>
      <trkpt lat="43.50529" lon="3.74408">
        <ele>99.15</ele>
        <time>2017-10-08T12:49:17Z</time>
      </trkpt>
      <trkpt lat="43.50531" lon="3.74407">
        <ele>99.15</ele>
        <time>2017-10-08T12:49:18Z</time>
      </trkpt>
      <trkpt lat="43.50534" lon="3.74406">
        <ele>98.67</ele>
        <time>2017-10-08T12:49:19Z</time>
      </trkpt>
      <trkpt lat="43.50535" lon="3.74404">
        <ele>98.67</ele>
        <time>2017-10-08T12:49:20Z</time>
      </trkpt>
      <trkpt lat="43.50537" lon="3.74402">
        <ele>98.67</ele>
        <time>2017-10-08T12:49:21Z</time>
      </trkpt>
      <trkpt lat="43.50538" lon="3.74398">
        <ele>99.15</ele>
        <time>2017-10-08T12:49:23Z</time>
      </trkpt>
      <trkpt lat="43.50538" lon="3.74396">
        <ele>99.15</ele>
        <time>2017-10-08T12:49:24Z</time>
      </trkpt>
      <trkpt lat="43.50538" lon="3.74392">
        <ele>99.15</ele>
        <time>2017-10-08T12:49:26Z</time>
      </trkpt>
      <trkpt lat="43.50537" lon="3.7439">
        <ele>99.15</ele>
        <time>2017-10-08T12:49:27Z</time>
      </trkpt>
      <trkpt lat="43.50535" lon="3.74388">
        <ele>99.15</ele>
        <time>2017-10-08T12:49:28Z</time>
      </trkpt>
      <trkpt lat="43.50511" lon="3.74361">
        <ele>101.56</ele>
        <time>2017-10-08T12:49:43Z</time>
      </trkpt>
      <trkpt lat="43.50486" lon="3.74341">
        <ele>103.96</ele>
        <time>2017-10-08T12:49:58Z</time>
      </trkpt>
      <trkpt lat="43.50485" lon="3.74339">
        <ele>103.96</ele>
        <time>2017-10-08T12:49:59Z</time>
      </trkpt>
      <trkpt lat="43.50471" lon="3.74303">
        <ele>107.32</ele>
        <time>2017-10-08T12:50:14Z</time>
      </trkpt>
      <trkpt lat="43.50452" lon="3.74271">
        <ele>111.17</ele>
        <time>2017-10-08T12:50:29Z</time>
      </trkpt>
      <trkpt lat="43.50449" lon="3.74265">
        <ele>112.13</ele>
        <time>2017-10-08T12:50:32Z</time>
      </trkpt>
      <trkpt lat="43.50448" lon="3.74263">
        <ele>112.61</ele>
        <time>2017-10-08T12:50:33Z</time>
      </trkpt>
      <trkpt lat="43.50447" lon="3.74261">
        <ele>112.61</ele>
        <time>2017-10-08T12:50:34Z</time>
      </trkpt>
      <trkpt lat="43.50429" lon="3.74236">
        <ele>115.01</ele>
        <time>2017-10-08T12:50:48Z</time>
      </trkpt>
      <trkpt lat="43.50412" lon="3.74213">
        <ele>117.9</ele>
        <time>2017-10-08T12:51:01Z</time>
      </trkpt>
      <trkpt lat="43.50396" lon="3.74187">
        <ele>121.26</ele>
        <time>2017-10-08T12:51:17Z</time>
      </trkpt>
      <trkpt lat="43.50394" lon="3.74187">
        <ele>121.26</ele>
        <time>2017-10-08T12:51:18Z</time>
      </trkpt>
      <trkpt lat="43.50393" lon="3.74188">
        <ele>121.26</ele>
        <time>2017-10-08T12:51:19Z</time>
      </trkpt>
      <trkpt lat="43.50391" lon="3.74189">
        <ele>121.26</ele>
        <time>2017-10-08T12:51:20Z</time>
      </trkpt>
      <trkpt lat="43.5039" lon="3.7419">
        <ele>120.78</ele>
        <time>2017-10-08T12:51:21Z</time>
      </trkpt>
      <trkpt lat="43.50388" lon="3.74191">
        <ele>120.78</ele>
        <time>2017-10-08T12:51:22Z</time>
      </trkpt>
      <trkpt lat="43.50387" lon="3.74191">
        <ele>120.78</ele>
        <time>2017-10-08T12:51:23Z</time>
      </trkpt>
      <trkpt lat="43.50385" lon="3.74192">
        <ele>120.78</ele>
        <time>2017-10-08T12:51:24Z</time>
      </trkpt>
      <trkpt lat="43.50374" lon="3.7421">
        <ele>120.3</ele>
        <time>2017-10-08T12:51:36Z</time>
      </trkpt>
      <trkpt lat="43.50366" lon="3.74241">
        <ele>118.38</ele>
        <time>2017-10-08T12:51:51Z</time>
      </trkpt>
      <trkpt lat="43.50352" lon="3.74273">
        <ele>118.38</ele>
        <time>2017-10-08T12:52:06Z</time>
      </trkpt>
      <trkpt lat="43.50347" lon="3.74281">
        <ele>119.34</ele>
        <time>2017-10-08T12:52:10Z</time>
      </trkpt>
      <trkpt lat="43.50345" lon="3.74282">
        <ele>119.82</ele>
        <time>2017-10-08T12:52:11Z</time>
      </trkpt>
      <trkpt lat="43.5032" lon="3.74281">
        <ele>124.15</ele>
        <time>2017-10-08T12:52:24Z</time>
      </trkpt>
      <trkpt lat="43.5029" lon="3.74287">
        <ele>126.55</ele>
        <time>2017-10-08T12:52:40Z</time>
      </trkpt>
      <trkpt lat="43.50267" lon="3.74299">
        <ele>126.55</ele>
        <time>2017-10-08T12:52:55Z</time>
      </trkpt>
      <trkpt lat="43.50266" lon="3.74294">
        <ele>125.59</ele>
        <time>2017-10-08T12:53:08Z</time>
      </trkpt>
      <trkpt lat="43.50267" lon="3.74293">
        <ele>125.59</ele>
        <time>2017-10-08T12:53:11Z</time>
      </trkpt>
      <trkpt lat="43.50269" lon="3.7429">
        <ele>125.59</ele>
        <time>2017-10-08T12:53:13Z</time>
      </trkpt>
      <trkpt lat="43.50269" lon="3.74288">
        <ele>125.59</ele>
        <time>2017-10-08T12:53:14Z</time>
      </trkpt>
      <trkpt lat="43.50267" lon="3.74286">
        <ele>126.07</ele>
        <time>2017-10-08T12:53:29Z</time>
      </trkpt>
      <trkpt lat="43.50266" lon="3.74285">
        <ele>127.51</ele>
        <time>2017-10-08T12:53:56Z</time>
      </trkpt>
      <trkpt lat="43.50264" lon="3.74284">
        <ele>128.95</ele>
        <time>2017-10-08T12:54:22Z</time>
      </trkpt>
      <trkpt lat="43.5026" lon="3.74286">
        <ele>129.92</ele>
        <time>2017-10-08T12:54:40Z</time>
      </trkpt>
      <trkpt lat="43.5026" lon="3.74298">
        <ele>128.95</ele>
        <time>2017-10-08T12:55:06Z</time>
      </trkpt>
      <trkpt lat="43.50263" lon="3.7429">
        <ele>128.47</ele>
        <time>2017-10-08T12:55:19Z</time>
      </trkpt>
      <trkpt lat="43.50265" lon="3.74286">
        <ele>128.95</ele>
        <time>2017-10-08T12:55:43Z</time>
      </trkpt>
      <trkpt lat="43.50265" lon="3.74286">
        <ele>128.95</ele>
        <time>2017-10-08T12:56:09Z</time>
      </trkpt>
      <trkpt lat="43.50271" lon="3.74284">
        <ele>129.43</ele>
        <time>2017-10-08T12:56:39Z</time>
      </trkpt>
      <trkpt lat="43.50272" lon="3.7429">
        <ele>127.51</ele>
        <time>2017-10-08T12:56:53Z</time>
      </trkpt>
      <trkpt lat="43.50271" lon="3.74292">
        <ele>127.51</ele>
        <time>2017-10-08T12:56:54Z</time>
      </trkpt>
      <trkpt lat="43.50271" lon="3.74293">
        <ele>127.51</ele>
        <time>2017-10-08T12:56:55Z</time>
      </trkpt>
      <trkpt lat="43.5027" lon="3.74294">
        <ele>127.51</ele>
        <time>2017-10-08T12:56:56Z</time>
      </trkpt>
      <trkpt lat="43.50269" lon="3.74295">
        <ele>127.03</ele>
        <time>2017-10-08T12:56:57Z</time>
      </trkpt>
      <trkpt lat="43.50268" lon="3.74297">
        <ele>127.03</ele>
        <time>2017-10-08T12:56:58Z</time>
      </trkpt>
      <trkpt lat="43.50267" lon="3.74299">
        <ele>126.55</ele>
        <time>2017-10-08T12:56:59Z</time>
      </trkpt>
      <trkpt lat="43.50266" lon="3.74303">
        <ele>126.55</ele>
        <time>2017-10-08T12:57:01Z</time>
      </trkpt>
      <trkpt lat="43.50267" lon="3.74305">
        <ele>126.07</ele>
        <time>2017-10-08T12:57:02Z</time>
      </trkpt>
      <trkpt lat="43.50268" lon="3.74308">
        <ele>126.07</ele>
        <time>2017-10-08T12:57:03Z</time>
      </trkpt>
      <trkpt lat="43.50268" lon="3.7431">
        <ele>126.07</ele>
        <time>2017-10-08T12:57:04Z</time>
      </trkpt>
      <trkpt lat="43.50269" lon="3.74312">
        <ele>125.59</ele>
        <time>2017-10-08T12:57:05Z</time>
      </trkpt>
      <trkpt lat="43.5027" lon="3.74314">
        <ele>125.59</ele>
        <time>2017-10-08T12:57:06Z</time>
      </trkpt>
      <trkpt lat="43.50273" lon="3.74358">
        <ele>125.11</ele>
        <time>2017-10-08T12:57:23Z</time>
      </trkpt>
      <trkpt lat="43.50262" lon="3.74413">
        <ele>127.03</ele>
        <time>2017-10-08T12:57:44Z</time>
      </trkpt>
      <trkpt lat="43.50254" lon="3.74459">
        <ele>128.47</ele>
        <time>2017-10-08T12:58:02Z</time>
      </trkpt>
      <trkpt lat="43.50251" lon="3.74511">
        <ele>132.8</ele>
        <time>2017-10-08T12:58:21Z</time>
      </trkpt>
      <trkpt lat="43.50243" lon="3.74549">
        <ele>135.2</ele>
        <time>2017-10-08T12:58:37Z</time>
      </trkpt>
      <trkpt lat="43.50229" lon="3.74585">
        <ele>138.57</ele>
        <time>2017-10-08T12:58:54Z</time>
      </trkpt>
      <trkpt lat="43.50241" lon="3.74619">
        <ele>139.05</ele>
        <time>2017-10-08T12:59:10Z</time>
      </trkpt>
      <trkpt lat="43.50256" lon="3.74655">
        <ele>140.01</ele>
        <time>2017-10-08T12:59:24Z</time>
      </trkpt>
      <trkpt lat="43.50266" lon="3.74692">
        <ele>140.01</ele>
        <time>2017-10-08T12:59:37Z</time>
      </trkpt>
      <trkpt lat="43.50255" lon="3.74741">
        <ele>139.05</ele>
        <time>2017-10-08T12:59:51Z</time>
      </trkpt>
      <trkpt lat="43.50224" lon="3.74799">
        <ele>139.05</ele>
        <time>2017-10-08T13:00:05Z</time>
      </trkpt>
      <trkpt lat="43.50207" lon="3.74884">
        <ele>136.16</ele>
        <time>2017-10-08T13:00:20Z</time>
      </trkpt>
      <trkpt lat="43.50187" lon="3.74947">
        <ele>134.72</ele>
        <time>2017-10-08T13:00:32Z</time>
      </trkpt>
      <trkpt lat="43.50183" lon="3.74956">
        <ele>133.76</ele>
        <time>2017-10-08T13:00:34Z</time>
      </trkpt>
      <trkpt lat="43.5018" lon="3.7496">
        <ele>133.28</ele>
        <time>2017-10-08T13:00:35Z</time>
      </trkpt>
      <trkpt lat="43.50177" lon="3.74963">
        <ele>133.28</ele>
        <time>2017-10-08T13:00:36Z</time>
      </trkpt>
      <trkpt lat="43.50174" lon="3.74966">
        <ele>132.8</ele>
        <time>2017-10-08T13:00:37Z</time>
      </trkpt>
      <trkpt lat="43.50171" lon="3.74968">
        <ele>132.8</ele>
        <time>2017-10-08T13:00:38Z</time>
      </trkpt>
      <trkpt lat="43.50168" lon="3.74969">
        <ele>132.32</ele>
        <time>2017-10-08T13:00:39Z</time>
      </trkpt>
      <trkpt lat="43.50136" lon="3.74982">
        <ele>131.36</ele>
        <time>2017-10-08T13:00:52Z</time>
      </trkpt>
      <trkpt lat="43.50135" lon="3.74986">
        <ele>134.24</ele>
        <time>2017-10-08T13:01:06Z</time>
      </trkpt>
      <trkpt lat="43.50133" lon="3.74986">
        <ele>133.76</ele>
        <time>2017-10-08T13:01:31Z</time>
      </trkpt>
      <trkpt lat="43.50133" lon="3.74986">
        <ele>133.76</ele>
        <time>2017-10-08T13:01:50Z</time>
      </trkpt>
      <trkpt lat="43.50135" lon="3.74984">
        <ele>136.64</ele>
        <time>2017-10-08T13:02:10Z</time>
      </trkpt>
      <trkpt lat="43.50134" lon="3.74985">
        <ele>137.61</ele>
        <time>2017-10-08T13:02:36Z</time>
      </trkpt>
      <trkpt lat="43.50135" lon="3.74989">
        <ele>138.57</ele>
        <time>2017-10-08T13:02:54Z</time>
      </trkpt>
      <trkpt lat="43.50137" lon="3.74991">
        <ele>138.57</ele>
        <time>2017-10-08T13:02:55Z</time>
      </trkpt>
      <trkpt lat="43.50138" lon="3.74991">
        <ele>138.57</ele>
        <time>2017-10-08T13:02:56Z</time>
      </trkpt>
      <trkpt lat="43.5014" lon="3.74991">
        <ele>138.57</ele>
        <time>2017-10-08T13:02:57Z</time>
      </trkpt>
      <trkpt lat="43.50142" lon="3.74989">
        <ele>138.09</ele>
        <time>2017-10-08T13:02:58Z</time>
      </trkpt>
      <trkpt lat="43.50143" lon="3.74986">
        <ele>138.09</ele>
        <time>2017-10-08T13:02:59Z</time>
      </trkpt>
      <trkpt lat="43.50143" lon="3.74984">
        <ele>138.09</ele>
        <time>2017-10-08T13:03:00Z</time>
      </trkpt>
      <trkpt lat="43.50142" lon="3.74982">
        <ele>138.09</ele>
        <time>2017-10-08T13:03:01Z</time>
      </trkpt>
      <trkpt lat="43.50141" lon="3.74981">
        <ele>138.09</ele>
        <time>2017-10-08T13:03:02Z</time>
      </trkpt>
      <trkpt lat="43.50139" lon="3.7498">
        <ele>138.09</ele>
        <time>2017-10-08T13:03:03Z</time>
      </trkpt>
      <trkpt lat="43.50137" lon="3.74981">
        <ele>138.57</ele>
        <time>2017-10-08T13:03:04Z</time>
      </trkpt>
      <trkpt lat="43.50136" lon="3.74981">
        <ele>138.57</ele>
        <time>2017-10-08T13:03:05Z</time>
      </trkpt>
      <trkpt lat="43.50134" lon="3.74981">
        <ele>138.57</ele>
        <time>2017-10-08T13:03:06Z</time>
      </trkpt>
      <trkpt lat="43.50133" lon="3.74982">
        <ele>138.57</ele>
        <time>2017-10-08T13:03:07Z</time>
      </trkpt>
      <trkpt lat="43.50131" lon="3.74982">
        <ele>138.57</ele>
        <time>2017-10-08T13:03:08Z</time>
      </trkpt>
      <trkpt lat="43.5013" lon="3.74981">
        <ele>138.57</ele>
        <time>2017-10-08T13:03:09Z</time>
      </trkpt>
      <trkpt lat="43.50106" lon="3.74984">
        <ele>138.57</ele>
        <time>2017-10-08T13:03:23Z</time>
      </trkpt>
      <trkpt lat="43.50104" lon="3.74984">
        <ele>138.09</ele>
        <time>2017-10-08T13:03:24Z</time>
      </trkpt>
      <trkpt lat="43.50102" lon="3.74984">
        <ele>138.09</ele>
        <time>2017-10-08T13:03:25Z</time>
      </trkpt>
      <trkpt lat="43.501" lon="3.74985">
        <ele>138.09</ele>
        <time>2017-10-08T13:03:26Z</time>
      </trkpt>
      <trkpt lat="43.50098" lon="3.74985">
        <ele>138.09</ele>
        <time>2017-10-08T13:03:27Z</time>
      </trkpt>
      <trkpt lat="43.50097" lon="3.74985">
        <ele>137.61</ele>
        <time>2017-10-08T13:03:28Z</time>
      </trkpt>
      <trkpt lat="43.50074" lon="3.74971">
        <ele>137.61</ele>
        <time>2017-10-08T13:03:40Z</time>
      </trkpt>
      <trkpt lat="43.50045" lon="3.74964">
        <ele>138.09</ele>
        <time>2017-10-08T13:03:56Z</time>
      </trkpt>
      <trkpt lat="43.5004" lon="3.74964">
        <ele>137.61</ele>
        <time>2017-10-08T13:03:59Z</time>
      </trkpt>
      <trkpt lat="43.50038" lon="3.74964">
        <ele>137.61</ele>
        <time>2017-10-08T13:04:00Z</time>
      </trkpt>
      <trkpt lat="43.50036" lon="3.74964">
        <ele>137.61</ele>
        <time>2017-10-08T13:04:01Z</time>
      </trkpt>
      <trkpt lat="43.50035" lon="3.74964">
        <ele>138.09</ele>
        <time>2017-10-08T13:04:02Z</time>
      </trkpt>
      <trkpt lat="43.50033" lon="3.74964">
        <ele>138.09</ele>
        <time>2017-10-08T13:04:03Z</time>
      </trkpt>
      <trkpt lat="43.50031" lon="3.74964">
        <ele>138.09</ele>
        <time>2017-10-08T13:04:04Z</time>
      </trkpt>
      <trkpt lat="43.50029" lon="3.74963">
        <ele>138.09</ele>
        <time>2017-10-08T13:04:05Z</time>
      </trkpt>
      <trkpt lat="43.50027" lon="3.74963">
        <ele>138.09</ele>
        <time>2017-10-08T13:04:06Z</time>
      </trkpt>
      <trkpt lat="43.50003" lon="3.7496">
        <ele>139.53</ele>
        <time>2017-10-08T13:04:19Z</time>
      </trkpt>
      <trkpt lat="43.49973" lon="3.74957">
        <ele>141.93</ele>
        <time>2017-10-08T13:04:34Z</time>
      </trkpt>
      <trkpt lat="43.4994" lon="3.74968">
        <ele>144.34</ele>
        <time>2017-10-08T13:04:52Z</time>
      </trkpt>
      <trkpt lat="43.49914" lon="3.74981">
        <ele>146.74</ele>
        <time>2017-10-08T13:05:07Z</time>
      </trkpt>
      <trkpt lat="43.49894" lon="3.75004">
        <ele>147.22</ele>
        <time>2017-10-08T13:05:22Z</time>
      </trkpt>
      <trkpt lat="43.49886" lon="3.75009">
        <ele>150.1</ele>
        <time>2017-10-08T13:05:32Z</time>
      </trkpt>
      <trkpt lat="43.49879" lon="3.75011">
        <ele>152.51</ele>
        <time>2017-10-08T13:05:50Z</time>
      </trkpt>
      <trkpt lat="43.49867" lon="3.75015">
        <ele>153.47</ele>
        <time>2017-10-08T13:06:05Z</time>
      </trkpt>
      <trkpt lat="43.49855" lon="3.75019">
        <ele>152.99</ele>
        <time>2017-10-08T13:06:21Z</time>
      </trkpt>
      <trkpt lat="43.49851" lon="3.7502">
        <ele>152.03</ele>
        <time>2017-10-08T13:06:38Z</time>
      </trkpt>
      <trkpt lat="43.49849" lon="3.7502">
        <ele>152.99</ele>
        <time>2017-10-08T13:07:06Z</time>
      </trkpt>
      <trkpt lat="43.49832" lon="3.75022">
        <ele>152.99</ele>
        <time>2017-10-08T13:07:21Z</time>
      </trkpt>
      <trkpt lat="43.49831" lon="3.75022">
        <ele>153.47</ele>
        <time>2017-10-08T13:07:22Z</time>
      </trkpt>
      <trkpt lat="43.49823" lon="3.75018">
        <ele>154.43</ele>
        <time>2017-10-08T13:07:27Z</time>
      </trkpt>
      <trkpt lat="43.49822" lon="3.75016">
        <ele>154.91</ele>
        <time>2017-10-08T13:07:28Z</time>
      </trkpt>
      <trkpt lat="43.4982" lon="3.75015">
        <ele>154.91</ele>
        <time>2017-10-08T13:07:29Z</time>
      </trkpt>
      <trkpt lat="43.49805" lon="3.74994">
        <ele>158.75</ele>
        <time>2017-10-08T13:07:43Z</time>
      </trkpt>
      <trkpt lat="43.498" lon="3.74984">
        <ele>160.2</ele>
        <time>2017-10-08T13:07:51Z</time>
      </trkpt>
      <trkpt lat="43.49799" lon="3.74982">
        <ele>160.68</ele>
        <time>2017-10-08T13:07:52Z</time>
      </trkpt>
      <trkpt lat="43.49796" lon="3.7498">
        <ele>161.16</ele>
        <time>2017-10-08T13:07:55Z</time>
      </trkpt>
      <trkpt lat="43.49775" lon="3.74971">
        <ele>158.27</ele>
        <time>2017-10-08T13:08:11Z</time>
      </trkpt>
      <trkpt lat="43.49758" lon="3.74956">
        <ele>158.27</ele>
        <time>2017-10-08T13:08:24Z</time>
      </trkpt>
      <trkpt lat="43.49744" lon="3.74934">
        <ele>160.68</ele>
        <time>2017-10-08T13:08:37Z</time>
      </trkpt>
      <trkpt lat="43.49733" lon="3.74919">
        <ele>165.96</ele>
        <time>2017-10-08T13:08:48Z</time>
      </trkpt>
      <trkpt lat="43.49731" lon="3.7492">
        <ele>165.96</ele>
        <time>2017-10-08T13:08:49Z</time>
      </trkpt>
      <trkpt lat="43.4973" lon="3.7492">
        <ele>166.45</ele>
        <time>2017-10-08T13:08:50Z</time>
      </trkpt>
      <trkpt lat="43.4971" lon="3.74924">
        <ele>170.77</ele>
        <time>2017-10-08T13:09:06Z</time>
      </trkpt>
      <trkpt lat="43.49707" lon="3.74921">
        <ele>172.69</ele>
        <time>2017-10-08T13:09:17Z</time>
      </trkpt>
      <trkpt lat="43.49703" lon="3.74919">
        <ele>172.69</ele>
        <time>2017-10-08T13:09:42Z</time>
      </trkpt>
      <trkpt lat="43.49692" lon="3.74906">
        <ele>174.14</ele>
        <time>2017-10-08T13:09:57Z</time>
      </trkpt>
      <trkpt lat="43.49683" lon="3.74891">
        <ele>177.02</ele>
        <time>2017-10-08T13:10:12Z</time>
      </trkpt>
      <trkpt lat="43.49681" lon="3.74886">
        <ele>177.5</ele>
        <time>2017-10-08T13:10:17Z</time>
      </trkpt>
      <trkpt lat="43.49673" lon="3.74873">
        <ele>179.9</ele>
        <time>2017-10-08T13:10:33Z</time>
      </trkpt>
      <trkpt lat="43.49663" lon="3.74855">
        <ele>179.9</ele>
        <time>2017-10-08T13:10:50Z</time>
      </trkpt>
      <trkpt lat="43.49647" lon="3.7483">
        <ele>183.27</ele>
        <time>2017-10-08T13:11:05Z</time>
      </trkpt>
      <trkpt lat="43.49627" lon="3.74806">
        <ele>183.27</ele>
        <time>2017-10-08T13:11:20Z</time>
      </trkpt>
      <trkpt lat="43.49618" lon="3.74804">
        <ele>181.83</ele>
        <time>2017-10-08T13:11:32Z</time>
      </trkpt>
      <trkpt lat="43.49608" lon="3.74805">
        <ele>181.83</ele>
        <time>2017-10-08T13:11:52Z</time>
      </trkpt>
      <trkpt lat="43.49587" lon="3.74812">
        <ele>183.27</ele>
        <time>2017-10-08T13:12:06Z</time>
      </trkpt>
      <trkpt lat="43.49561" lon="3.74826">
        <ele>184.23</ele>
        <time>2017-10-08T13:12:22Z</time>
      </trkpt>
      <trkpt lat="43.4953" lon="3.74841">
        <ele>189.52</ele>
        <time>2017-10-08T13:12:41Z</time>
      </trkpt>
      <trkpt lat="43.49505" lon="3.74842">
        <ele>190.48</ele>
        <time>2017-10-08T13:12:56Z</time>
      </trkpt>
      <trkpt lat="43.49479" lon="3.74829">
        <ele>193.36</ele>
        <time>2017-10-08T13:13:13Z</time>
      </trkpt>
      <trkpt lat="43.49451" lon="3.74818">
        <ele>198.17</ele>
        <time>2017-10-08T13:13:31Z</time>
      </trkpt>
      <trkpt lat="43.49425" lon="3.74806">
        <ele>201.53</ele>
        <time>2017-10-08T13:13:50Z</time>
      </trkpt>
      <trkpt lat="43.49412" lon="3.74773">
        <ele>202.49</ele>
        <time>2017-10-08T13:14:06Z</time>
      </trkpt>
      <trkpt lat="43.49395" lon="3.74751">
        <ele>204.9</ele>
        <time>2017-10-08T13:14:20Z</time>
      </trkpt>
      <trkpt lat="43.49365" lon="3.7473">
        <ele>209.22</ele>
        <time>2017-10-08T13:14:37Z</time>
      </trkpt>
      <trkpt lat="43.49335" lon="3.74725">
        <ele>210.19</ele>
        <time>2017-10-08T13:14:54Z</time>
      </trkpt>
      <trkpt lat="43.49307" lon="3.7473">
        <ele>213.07</ele>
        <time>2017-10-08T13:15:10Z</time>
      </trkpt>
      <trkpt lat="43.49278" lon="3.74732">
        <ele>215.47</ele>
        <time>2017-10-08T13:15:27Z</time>
      </trkpt>
      <trkpt lat="43.49268" lon="3.74731">
        <ele>214.99</ele>
        <time>2017-10-08T13:15:41Z</time>
      </trkpt>
      <trkpt lat="43.49268" lon="3.74732">
        <ele>214.51</ele>
        <time>2017-10-08T13:16:13Z</time>
      </trkpt>
      <trkpt lat="43.49269" lon="3.74732">
        <ele>212.59</ele>
        <time>2017-10-08T13:16:37Z</time>
      </trkpt>
      <trkpt lat="43.4927" lon="3.74731">
        <ele>213.07</ele>
        <time>2017-10-08T13:17:05Z</time>
      </trkpt>
      <trkpt lat="43.49269" lon="3.74732">
        <ele>213.07</ele>
        <time>2017-10-08T13:17:36Z</time>
      </trkpt>
      <trkpt lat="43.49268" lon="3.74732">
        <ele>213.07</ele>
        <time>2017-10-08T13:18:03Z</time>
      </trkpt>
      <trkpt lat="43.49266" lon="3.74736">
        <ele>213.07</ele>
        <time>2017-10-08T13:18:09Z</time>
      </trkpt>
      <trkpt lat="43.49258" lon="3.74767">
        <ele>214.03</ele>
        <time>2017-10-08T13:18:24Z</time>
      </trkpt>
      <trkpt lat="43.49255" lon="3.74794">
        <ele>213.55</ele>
        <time>2017-10-08T13:18:35Z</time>
      </trkpt>
      <trkpt lat="43.49254" lon="3.74797">
        <ele>213.55</ele>
        <time>2017-10-08T13:18:36Z</time>
      </trkpt>
      <trkpt lat="43.49234" lon="3.7484">
        <ele>214.51</ele>
        <time>2017-10-08T13:18:56Z</time>
      </trkpt>
      <trkpt lat="43.49209" lon="3.74839">
        <ele>216.43</ele>
        <time>2017-10-08T13:19:10Z</time>
      </trkpt>
      <trkpt lat="43.49182" lon="3.74825">
        <ele>217.88</ele>
        <time>2017-10-08T13:19:25Z</time>
      </trkpt>
      <trkpt lat="43.49145" lon="3.74807">
        <ele>217.88</ele>
        <time>2017-10-08T13:19:40Z</time>
      </trkpt>
      <trkpt lat="43.49088" lon="3.74783">
        <ele>217.4</ele>
        <time>2017-10-08T13:19:56Z</time>
      </trkpt>
      <trkpt lat="43.4902" lon="3.74779">
        <ele>214.99</ele>
        <time>2017-10-08T13:20:11Z</time>
      </trkpt>
      <trkpt lat="43.48944" lon="3.74773">
        <ele>212.11</ele>
        <time>2017-10-08T13:20:27Z</time>
      </trkpt>
      <trkpt lat="43.48936" lon="3.74768">
        <ele>211.63</ele>
        <time>2017-10-08T13:20:29Z</time>
      </trkpt>
      <trkpt lat="43.48913" lon="3.74747">
        <ele>210.19</ele>
        <time>2017-10-08T13:20:35Z</time>
      </trkpt>
      <trkpt lat="43.48909" lon="3.74744">
        <ele>210.19</ele>
        <time>2017-10-08T13:20:36Z</time>
      </trkpt>
      <trkpt lat="43.48905" lon="3.74741">
        <ele>209.7</ele>
        <time>2017-10-08T13:20:37Z</time>
      </trkpt>
      <trkpt lat="43.48862" lon="3.74716">
        <ele>212.11</ele>
        <time>2017-10-08T13:20:51Z</time>
      </trkpt>
      <trkpt lat="43.48847" lon="3.74712">
        <ele>211.63</ele>
        <time>2017-10-08T13:21:03Z</time>
      </trkpt>
      <trkpt lat="43.48845" lon="3.74714">
        <ele>210.19</ele>
        <time>2017-10-08T13:21:30Z</time>
      </trkpt>
      <trkpt lat="43.48841" lon="3.74711">
        <ele>210.67</ele>
        <time>2017-10-08T13:21:44Z</time>
      </trkpt>
      <trkpt lat="43.48839" lon="3.74723">
        <ele>210.67</ele>
        <time>2017-10-08T13:21:59Z</time>
      </trkpt>
      <trkpt lat="43.48839" lon="3.74726">
        <ele>210.67</ele>
        <time>2017-10-08T13:22:14Z</time>
      </trkpt>
      <trkpt lat="43.48844" lon="3.7472">
        <ele>211.63</ele>
        <time>2017-10-08T13:22:27Z</time>
      </trkpt>
      <trkpt lat="43.48844" lon="3.74713">
        <ele>212.11</ele>
        <time>2017-10-08T13:22:39Z</time>
      </trkpt>
      <trkpt lat="43.48846" lon="3.74716">
        <ele>212.11</ele>
        <time>2017-10-08T13:22:51Z</time>
      </trkpt>
      <trkpt lat="43.48845" lon="3.74727">
        <ele>210.19</ele>
        <time>2017-10-08T13:23:05Z</time>
      </trkpt>
      <trkpt lat="43.48838" lon="3.74731">
        <ele>209.22</ele>
        <time>2017-10-08T13:23:21Z</time>
      </trkpt>
      <trkpt lat="43.48837" lon="3.74726">
        <ele>210.67</ele>
        <time>2017-10-08T13:23:33Z</time>
      </trkpt>
      <trkpt lat="43.48838" lon="3.74725">
        <ele>213.55</ele>
        <time>2017-10-08T13:24:01Z</time>
      </trkpt>
      <trkpt lat="43.48842" lon="3.74731">
        <ele>212.59</ele>
        <time>2017-10-08T13:24:20Z</time>
      </trkpt>
      <trkpt lat="43.48842" lon="3.74725">
        <ele>211.63</ele>
        <time>2017-10-08T13:24:33Z</time>
      </trkpt>
      <trkpt lat="43.48843" lon="3.74725">
        <ele>211.15</ele>
        <time>2017-10-08T13:25:00Z</time>
      </trkpt>
      <trkpt lat="43.48841" lon="3.74715">
        <ele>211.15</ele>
        <time>2017-10-08T13:25:16Z</time>
      </trkpt>
      <trkpt lat="43.48841" lon="3.74712">
        <ele>212.59</ele>
        <time>2017-10-08T13:25:35Z</time>
      </trkpt>
      <trkpt lat="43.48842" lon="3.74717">
        <ele>213.55</ele>
        <time>2017-10-08T13:26:02Z</time>
      </trkpt>
      <trkpt lat="43.48844" lon="3.7472">
        <ele>213.07</ele>
        <time>2017-10-08T13:26:05Z</time>
      </trkpt>
      <trkpt lat="43.48866" lon="3.74737">
        <ele>212.11</ele>
        <time>2017-10-08T13:26:21Z</time>
      </trkpt>
      <trkpt lat="43.48893" lon="3.74739">
        <ele>211.63</ele>
        <time>2017-10-08T13:26:35Z</time>
      </trkpt>
      <trkpt lat="43.48895" lon="3.74739">
        <ele>211.63</ele>
        <time>2017-10-08T13:26:36Z</time>
      </trkpt>
      <trkpt lat="43.48901" lon="3.7474">
        <ele>211.15</ele>
        <time>2017-10-08T13:26:39Z</time>
      </trkpt>
      <trkpt lat="43.48905" lon="3.74741">
        <ele>211.15</ele>
        <time>2017-10-08T13:26:42Z</time>
      </trkpt>
      <trkpt lat="43.48912" lon="3.74745">
        <ele>211.15</ele>
        <time>2017-10-08T13:26:47Z</time>
      </trkpt>
      <trkpt lat="43.48916" lon="3.74746">
        <ele>211.15</ele>
        <time>2017-10-08T13:26:49Z</time>
      </trkpt>
      <trkpt lat="43.48917" lon="3.74748">
        <ele>211.15</ele>
        <time>2017-10-08T13:26:50Z</time>
      </trkpt>
      <trkpt lat="43.48919" lon="3.74749">
        <ele>211.63</ele>
        <time>2017-10-08T13:26:51Z</time>
      </trkpt>
      <trkpt lat="43.4892" lon="3.74751">
        <ele>211.63</ele>
        <time>2017-10-08T13:26:52Z</time>
      </trkpt>
      <trkpt lat="43.48921" lon="3.74753">
        <ele>211.63</ele>
        <time>2017-10-08T13:26:53Z</time>
      </trkpt>
      <trkpt lat="43.48951" lon="3.74778">
        <ele>212.59</ele>
        <time>2017-10-08T13:27:10Z</time>
      </trkpt>
      <trkpt lat="43.48994" lon="3.74783">
        <ele>212.11</ele>
        <time>2017-10-08T13:27:28Z</time>
      </trkpt>
      <trkpt lat="43.49034" lon="3.74782">
        <ele>213.55</ele>
        <time>2017-10-08T13:27:44Z</time>
      </trkpt>
      <trkpt lat="43.49072" lon="3.74782">
        <ele>214.99</ele>
        <time>2017-10-08T13:28:01Z</time>
      </trkpt>
      <trkpt lat="43.49116" lon="3.74797">
        <ele>214.99</ele>
        <time>2017-10-08T13:28:18Z</time>
      </trkpt>
      <trkpt lat="43.49159" lon="3.74818">
        <ele>214.99</ele>
        <time>2017-10-08T13:28:34Z</time>
      </trkpt>
      <trkpt lat="43.49193" lon="3.74832">
        <ele>216.91</ele>
        <time>2017-10-08T13:28:47Z</time>
      </trkpt>
      <trkpt lat="43.49221" lon="3.74849">
        <ele>215.95</ele>
        <time>2017-10-08T13:28:57Z</time>
      </trkpt>
      <trkpt lat="43.49262" lon="3.7488">
        <ele>217.4</ele>
        <time>2017-10-08T13:29:11Z</time>
      </trkpt>
      <trkpt lat="43.49304" lon="3.74908">
        <ele>219.32</ele>
        <time>2017-10-08T13:29:25Z</time>
      </trkpt>
      <trkpt lat="43.49335" lon="3.74937">
        <ele>221.24</ele>
        <time>2017-10-08T13:29:38Z</time>
      </trkpt>
      <trkpt lat="43.49364" lon="3.74977">
        <ele>222.2</ele>
        <time>2017-10-08T13:29:52Z</time>
      </trkpt>
      <trkpt lat="43.49396" lon="3.75027">
        <ele>221.24</ele>
        <time>2017-10-08T13:30:06Z</time>
      </trkpt>
      <trkpt lat="43.49423" lon="3.75079">
        <ele>219.8</ele>
        <time>2017-10-08T13:30:19Z</time>
      </trkpt>
      <trkpt lat="43.4945" lon="3.75119">
        <ele>219.8</ele>
        <time>2017-10-08T13:30:32Z</time>
      </trkpt>
      <trkpt lat="43.49452" lon="3.75122">
        <ele>220.28</ele>
        <time>2017-10-08T13:30:33Z</time>
      </trkpt>
      <trkpt lat="43.4949" lon="3.75157">
        <ele>218.36</ele>
        <time>2017-10-08T13:30:49Z</time>
      </trkpt>
      <trkpt lat="43.49498" lon="3.75168">
        <ele>215.95</ele>
        <time>2017-10-08T13:31:02Z</time>
      </trkpt>
      <trkpt lat="43.49496" lon="3.75171">
        <ele>214.99</ele>
        <time>2017-10-08T13:31:35Z</time>
      </trkpt>
      <trkpt lat="43.49499" lon="3.75166">
        <ele>218.84</ele>
        <time>2017-10-08T13:32:04Z</time>
      </trkpt>
      <trkpt lat="43.495" lon="3.75164">
        <ele>218.84</ele>
        <time>2017-10-08T13:32:25Z</time>
      </trkpt>
      <trkpt lat="43.49501" lon="3.75166">
        <ele>217.88</ele>
        <time>2017-10-08T13:32:46Z</time>
      </trkpt>
      <trkpt lat="43.49501" lon="3.75167">
        <ele>217.4</ele>
        <time>2017-10-08T13:33:05Z</time>
      </trkpt>
      <trkpt lat="43.49501" lon="3.75167">
        <ele>218.84</ele>
        <time>2017-10-08T13:33:27Z</time>
      </trkpt>
      <trkpt lat="43.495" lon="3.75165">
        <ele>216.91</ele>
        <time>2017-10-08T13:33:46Z</time>
      </trkpt>
      <trkpt lat="43.49502" lon="3.75168">
        <ele>215.47</ele>
        <time>2017-10-08T13:33:58Z</time>
      </trkpt>
      <trkpt lat="43.49503" lon="3.75168">
        <ele>215.47</ele>
        <time>2017-10-08T13:33:59Z</time>
      </trkpt>
      <trkpt lat="43.49505" lon="3.75169">
        <ele>214.99</ele>
        <time>2017-10-08T13:34:00Z</time>
      </trkpt>
      <trkpt lat="43.49507" lon="3.75169">
        <ele>214.99</ele>
        <time>2017-10-08T13:34:01Z</time>
      </trkpt>
      <trkpt lat="43.49508" lon="3.75171">
        <ele>214.99</ele>
        <time>2017-10-08T13:34:02Z</time>
      </trkpt>
      <trkpt lat="43.4951" lon="3.75172">
        <ele>214.99</ele>
        <time>2017-10-08T13:34:03Z</time>
      </trkpt>
      <trkpt lat="43.49512" lon="3.75174">
        <ele>214.99</ele>
        <time>2017-10-08T13:34:04Z</time>
      </trkpt>
      <trkpt lat="43.49546" lon="3.75189">
        <ele>213.07</ele>
        <time>2017-10-08T13:34:17Z</time>
      </trkpt>
      <trkpt lat="43.4958" lon="3.75199">
        <ele>211.15</ele>
        <time>2017-10-08T13:34:26Z</time>
      </trkpt>
      <trkpt lat="43.49584" lon="3.75201">
        <ele>211.15</ele>
        <time>2017-10-08T13:34:27Z</time>
      </trkpt>
      <trkpt lat="43.49588" lon="3.75203">
        <ele>210.67</ele>
        <time>2017-10-08T13:34:28Z</time>
      </trkpt>
      <trkpt lat="43.49657" lon="3.75228">
        <ele>206.34</ele>
        <time>2017-10-08T13:34:40Z</time>
      </trkpt>
      <trkpt lat="43.49695" lon="3.75232">
        <ele>203.46</ele>
        <time>2017-10-08T13:34:48Z</time>
      </trkpt>
      <trkpt lat="43.49699" lon="3.75234">
        <ele>202.98</ele>
        <time>2017-10-08T13:34:49Z</time>
      </trkpt>
      <trkpt lat="43.49746" lon="3.75261">
        <ele>198.65</ele>
        <time>2017-10-08T13:35:01Z</time>
      </trkpt>
      <trkpt lat="43.49748" lon="3.75268">
        <ele>198.17</ele>
        <time>2017-10-08T13:35:14Z</time>
      </trkpt>
      <trkpt lat="43.49748" lon="3.75268">
        <ele>197.21</ele>
        <time>2017-10-08T13:35:42Z</time>
      </trkpt>
      <trkpt lat="43.49749" lon="3.75269">
        <ele>199.13</ele>
        <time>2017-10-08T13:36:27Z</time>
      </trkpt>
      <trkpt lat="43.49748" lon="3.7527">
        <ele>200.09</ele>
        <time>2017-10-08T13:36:57Z</time>
      </trkpt>
      <trkpt lat="43.49747" lon="3.75272">
        <ele>199.13</ele>
        <time>2017-10-08T13:37:35Z</time>
      </trkpt>
      <trkpt lat="43.4975" lon="3.7527">
        <ele>199.61</ele>
        <time>2017-10-08T13:37:44Z</time>
      </trkpt>
      <trkpt lat="43.49751" lon="3.7527">
        <ele>199.61</ele>
        <time>2017-10-08T13:37:45Z</time>
      </trkpt>
      <trkpt lat="43.49776" lon="3.75282">
        <ele>199.13</ele>
        <time>2017-10-08T13:37:56Z</time>
      </trkpt>
      <trkpt lat="43.49811" lon="3.75305">
        <ele>196.25</ele>
        <time>2017-10-08T13:38:05Z</time>
      </trkpt>
      <trkpt lat="43.49815" lon="3.7531">
        <ele>196.25</ele>
        <time>2017-10-08T13:38:06Z</time>
      </trkpt>
      <trkpt lat="43.49819" lon="3.75315">
        <ele>195.77</ele>
        <time>2017-10-08T13:38:07Z</time>
      </trkpt>
      <trkpt lat="43.49849" lon="3.75384">
        <ele>190</ele>
        <time>2017-10-08T13:38:18Z</time>
      </trkpt>
      <trkpt lat="43.49859" lon="3.75397">
        <ele>188.56</ele>
        <time>2017-10-08T13:38:21Z</time>
      </trkpt>
      <trkpt lat="43.49862" lon="3.754">
        <ele>187.59</ele>
        <time>2017-10-08T13:38:22Z</time>
      </trkpt>
      <trkpt lat="43.49866" lon="3.75402">
        <ele>187.11</ele>
        <time>2017-10-08T13:38:23Z</time>
      </trkpt>
      <trkpt lat="43.49885" lon="3.75407">
        <ele>184.71</ele>
        <time>2017-10-08T13:38:28Z</time>
      </trkpt>
      <trkpt lat="43.49889" lon="3.75407">
        <ele>184.23</ele>
        <time>2017-10-08T13:38:29Z</time>
      </trkpt>
      <trkpt lat="43.49915" lon="3.75414">
        <ele>181.83</ele>
        <time>2017-10-08T13:38:35Z</time>
      </trkpt>
      <trkpt lat="43.49919" lon="3.75415">
        <ele>181.35</ele>
        <time>2017-10-08T13:38:36Z</time>
      </trkpt>
      <trkpt lat="43.49987" lon="3.75445">
        <ele>175.1</ele>
        <time>2017-10-08T13:38:49Z</time>
      </trkpt>
      <trkpt lat="43.50041" lon="3.75511">
        <ele>169.81</ele>
        <time>2017-10-08T13:39:01Z</time>
      </trkpt>
      <trkpt lat="43.50072" lon="3.75552">
        <ele>165</ele>
        <time>2017-10-08T13:39:11Z</time>
      </trkpt>
      <trkpt lat="43.50075" lon="3.75555">
        <ele>165</ele>
        <time>2017-10-08T13:39:12Z</time>
      </trkpt>
      <trkpt lat="43.50092" lon="3.75566">
        <ele>163.08</ele>
        <time>2017-10-08T13:39:16Z</time>
      </trkpt>
      <trkpt lat="43.50096" lon="3.75567">
        <ele>162.6</ele>
        <time>2017-10-08T13:39:17Z</time>
      </trkpt>
      <trkpt lat="43.50101" lon="3.75567">
        <ele>162.12</ele>
        <time>2017-10-08T13:39:18Z</time>
      </trkpt>
      <trkpt lat="43.50106" lon="3.75568">
        <ele>161.64</ele>
        <time>2017-10-08T13:39:19Z</time>
      </trkpt>
      <trkpt lat="43.5011" lon="3.75568">
        <ele>161.64</ele>
        <time>2017-10-08T13:39:20Z</time>
      </trkpt>
      <trkpt lat="43.50158" lon="3.75553">
        <ele>159.24</ele>
        <time>2017-10-08T13:39:33Z</time>
      </trkpt>
      <trkpt lat="43.50187" lon="3.75511">
        <ele>158.75</ele>
        <time>2017-10-08T13:39:46Z</time>
      </trkpt>
      <trkpt lat="43.50219" lon="3.75461">
        <ele>155.87</ele>
        <time>2017-10-08T13:40:01Z</time>
      </trkpt>
      <trkpt lat="43.50241" lon="3.75424">
        <ele>153.95</ele>
        <time>2017-10-08T13:40:09Z</time>
      </trkpt>
      <trkpt lat="43.50248" lon="3.75406">
        <ele>153.47</ele>
        <time>2017-10-08T13:40:12Z</time>
      </trkpt>
      <trkpt lat="43.5025" lon="3.75399">
        <ele>152.99</ele>
        <time>2017-10-08T13:40:13Z</time>
      </trkpt>
      <trkpt lat="43.50253" lon="3.75386">
        <ele>152.51</ele>
        <time>2017-10-08T13:40:15Z</time>
      </trkpt>
      <trkpt lat="43.50256" lon="3.75381">
        <ele>152.51</ele>
        <time>2017-10-08T13:40:16Z</time>
      </trkpt>
      <trkpt lat="43.5026" lon="3.75376">
        <ele>152.51</ele>
        <time>2017-10-08T13:40:17Z</time>
      </trkpt>
      <trkpt lat="43.50264" lon="3.75374">
        <ele>152.03</ele>
        <time>2017-10-08T13:40:18Z</time>
      </trkpt>
      <trkpt lat="43.5027" lon="3.75374">
        <ele>152.03</ele>
        <time>2017-10-08T13:40:19Z</time>
      </trkpt>
      <trkpt lat="43.50275" lon="3.75375">
        <ele>152.03</ele>
        <time>2017-10-08T13:40:20Z</time>
      </trkpt>
      <trkpt lat="43.5028" lon="3.75377">
        <ele>152.03</ele>
        <time>2017-10-08T13:40:21Z</time>
      </trkpt>
      <trkpt lat="43.50285" lon="3.75379">
        <ele>151.54</ele>
        <time>2017-10-08T13:40:22Z</time>
      </trkpt>
      <trkpt lat="43.5029" lon="3.75379">
        <ele>151.54</ele>
        <time>2017-10-08T13:40:23Z</time>
      </trkpt>
      <trkpt lat="43.50295" lon="3.75377">
        <ele>151.06</ele>
        <time>2017-10-08T13:40:24Z</time>
      </trkpt>
      <trkpt lat="43.50305" lon="3.75373">
        <ele>150.58</ele>
        <time>2017-10-08T13:40:26Z</time>
      </trkpt>
      <trkpt lat="43.50308" lon="3.7537">
        <ele>150.1</ele>
        <time>2017-10-08T13:40:27Z</time>
      </trkpt>
      <trkpt lat="43.50312" lon="3.75367">
        <ele>150.1</ele>
        <time>2017-10-08T13:40:28Z</time>
      </trkpt>
      <trkpt lat="43.50333" lon="3.75343">
        <ele>147.22</ele>
        <time>2017-10-08T13:40:35Z</time>
      </trkpt>
      <trkpt lat="43.50337" lon="3.75339">
        <ele>146.74</ele>
        <time>2017-10-08T13:40:36Z</time>
      </trkpt>
      <trkpt lat="43.50342" lon="3.75336">
        <ele>146.26</ele>
        <time>2017-10-08T13:40:37Z</time>
      </trkpt>
      <trkpt lat="43.50347" lon="3.75334">
        <ele>146.26</ele>
        <time>2017-10-08T13:40:38Z</time>
      </trkpt>
      <trkpt lat="43.50353" lon="3.75333">
        <ele>145.78</ele>
        <time>2017-10-08T13:40:39Z</time>
      </trkpt>
      <trkpt lat="43.50358" lon="3.75333">
        <ele>145.3</ele>
        <time>2017-10-08T13:40:40Z</time>
      </trkpt>
      <trkpt lat="43.50364" lon="3.75334">
        <ele>144.82</ele>
        <time>2017-10-08T13:40:41Z</time>
      </trkpt>
      <trkpt lat="43.5037" lon="3.75337">
        <ele>144.82</ele>
        <time>2017-10-08T13:40:42Z</time>
      </trkpt>
      <trkpt lat="43.50374" lon="3.7534">
        <ele>144.34</ele>
        <time>2017-10-08T13:40:43Z</time>
      </trkpt>
      <trkpt lat="43.50378" lon="3.75342">
        <ele>144.34</ele>
        <time>2017-10-08T13:40:44Z</time>
      </trkpt>
      <trkpt lat="43.50381" lon="3.75345">
        <ele>143.85</ele>
        <time>2017-10-08T13:40:45Z</time>
      </trkpt>
      <trkpt lat="43.50383" lon="3.75348">
        <ele>143.85</ele>
        <time>2017-10-08T13:40:46Z</time>
      </trkpt>
      <trkpt lat="43.50413" lon="3.75393">
        <ele>145.3</ele>
        <time>2017-10-08T13:41:00Z</time>
      </trkpt>
      <trkpt lat="43.5044" lon="3.75434">
        <ele>148.66</ele>
        <time>2017-10-08T13:41:14Z</time>
      </trkpt>
      <trkpt lat="43.5046" lon="3.7546">
        <ele>150.58</ele>
        <time>2017-10-08T13:41:26Z</time>
      </trkpt>
      <trkpt lat="43.50486" lon="3.755">
        <ele>151.54</ele>
        <time>2017-10-08T13:41:42Z</time>
      </trkpt>
      <trkpt lat="43.50483" lon="3.75538">
        <ele>153.95</ele>
        <time>2017-10-08T13:41:52Z</time>
      </trkpt>
      <trkpt lat="43.50482" lon="3.75541">
        <ele>153.95</ele>
        <time>2017-10-08T13:41:53Z</time>
      </trkpt>
      <trkpt lat="43.50482" lon="3.75545">
        <ele>154.43</ele>
        <time>2017-10-08T13:41:54Z</time>
      </trkpt>
      <trkpt lat="43.50482" lon="3.75548">
        <ele>154.43</ele>
        <time>2017-10-08T13:41:55Z</time>
      </trkpt>
      <trkpt lat="43.50482" lon="3.75552">
        <ele>154.43</ele>
        <time>2017-10-08T13:41:56Z</time>
      </trkpt>
      <trkpt lat="43.50483" lon="3.75555">
        <ele>154.43</ele>
        <time>2017-10-08T13:41:57Z</time>
      </trkpt>
      <trkpt lat="43.50483" lon="3.75559">
        <ele>154.91</ele>
        <time>2017-10-08T13:41:58Z</time>
      </trkpt>
      <trkpt lat="43.50492" lon="3.75589">
        <ele>154.91</ele>
        <time>2017-10-08T13:42:09Z</time>
      </trkpt>
      <trkpt lat="43.50506" lon="3.75609">
        <ele>152.99</ele>
        <time>2017-10-08T13:42:15Z</time>
      </trkpt>
      <trkpt lat="43.5051" lon="3.75612">
        <ele>152.51</ele>
        <time>2017-10-08T13:42:16Z</time>
      </trkpt>
      <trkpt lat="43.50556" lon="3.75641">
        <ele>149.14</ele>
        <time>2017-10-08T13:42:25Z</time>
      </trkpt>
      <trkpt lat="43.50561" lon="3.75647">
        <ele>148.66</ele>
        <time>2017-10-08T13:42:26Z</time>
      </trkpt>
      <trkpt lat="43.50565" lon="3.75653">
        <ele>147.7</ele>
        <time>2017-10-08T13:42:27Z</time>
      </trkpt>
      <trkpt lat="43.50569" lon="3.75661">
        <ele>147.22</ele>
        <time>2017-10-08T13:42:28Z</time>
      </trkpt>
      <trkpt lat="43.50572" lon="3.75669">
        <ele>146.74</ele>
        <time>2017-10-08T13:42:29Z</time>
      </trkpt>
      <trkpt lat="43.50574" lon="3.75677">
        <ele>146.26</ele>
        <time>2017-10-08T13:42:30Z</time>
      </trkpt>
      <trkpt lat="43.50576" lon="3.75684">
        <ele>145.78</ele>
        <time>2017-10-08T13:42:31Z</time>
      </trkpt>
      <trkpt lat="43.50579" lon="3.75691">
        <ele>145.3</ele>
        <time>2017-10-08T13:42:32Z</time>
      </trkpt>
      <trkpt lat="43.50589" lon="3.75708">
        <ele>143.37</ele>
        <time>2017-10-08T13:42:35Z</time>
      </trkpt>
      <trkpt lat="43.50593" lon="3.75712">
        <ele>142.89</ele>
        <time>2017-10-08T13:42:36Z</time>
      </trkpt>
      <trkpt lat="43.50597" lon="3.75714">
        <ele>142.41</ele>
        <time>2017-10-08T13:42:37Z</time>
      </trkpt>
      <trkpt lat="43.50602" lon="3.75716">
        <ele>141.93</ele>
        <time>2017-10-08T13:42:38Z</time>
      </trkpt>
      <trkpt lat="43.50607" lon="3.75716">
        <ele>141.93</ele>
        <time>2017-10-08T13:42:39Z</time>
      </trkpt>
      <trkpt lat="43.50611" lon="3.75716">
        <ele>141.45</ele>
        <time>2017-10-08T13:42:40Z</time>
      </trkpt>
      <trkpt lat="43.50616" lon="3.75714">
        <ele>140.97</ele>
        <time>2017-10-08T13:42:41Z</time>
      </trkpt>
      <trkpt lat="43.50621" lon="3.75712">
        <ele>140.49</ele>
        <time>2017-10-08T13:42:42Z</time>
      </trkpt>
      <trkpt lat="43.50626" lon="3.7571">
        <ele>140.01</ele>
        <time>2017-10-08T13:42:43Z</time>
      </trkpt>
      <trkpt lat="43.50631" lon="3.75707">
        <ele>139.53</ele>
        <time>2017-10-08T13:42:44Z</time>
      </trkpt>
      <trkpt lat="43.50671" lon="3.75684">
        <ele>135.68</ele>
        <time>2017-10-08T13:42:51Z</time>
      </trkpt>
      <trkpt lat="43.50676" lon="3.75683">
        <ele>135.68</ele>
        <time>2017-10-08T13:42:52Z</time>
      </trkpt>
      <trkpt lat="43.50711" lon="3.75691">
        <ele>130.88</ele>
        <time>2017-10-08T13:43:02Z</time>
      </trkpt>
      <trkpt lat="43.50711" lon="3.75693">
        <ele>130.4</ele>
        <time>2017-10-08T13:43:03Z</time>
      </trkpt>
      <trkpt lat="43.5071" lon="3.75696">
        <ele>130.4</ele>
        <time>2017-10-08T13:43:04Z</time>
      </trkpt>
      <trkpt lat="43.50709" lon="3.75698">
        <ele>129.92</ele>
        <time>2017-10-08T13:43:05Z</time>
      </trkpt>
      <trkpt lat="43.50708" lon="3.75699">
        <ele>129.92</ele>
        <time>2017-10-08T13:43:06Z</time>
      </trkpt>
      <trkpt lat="43.50707" lon="3.75699">
        <ele>129.43</ele>
        <time>2017-10-08T13:43:07Z</time>
      </trkpt>
      <trkpt lat="43.50705" lon="3.757">
        <ele>129.43</ele>
        <time>2017-10-08T13:43:08Z</time>
      </trkpt>
      <trkpt lat="43.50703" lon="3.75701">
        <ele>128.95</ele>
        <time>2017-10-08T13:43:10Z</time>
      </trkpt>
      <trkpt lat="43.50703" lon="3.75702">
        <ele>128.47</ele>
        <time>2017-10-08T13:43:11Z</time>
      </trkpt>
      <trkpt lat="43.50705" lon="3.75704">
        <ele>128.47</ele>
        <time>2017-10-08T13:43:12Z</time>
      </trkpt>
      <trkpt lat="43.50706" lon="3.75703">
        <ele>127.99</ele>
        <time>2017-10-08T13:43:13Z</time>
      </trkpt>
      <trkpt lat="43.50707" lon="3.75702">
        <ele>127.99</ele>
        <time>2017-10-08T13:43:14Z</time>
      </trkpt>
      <trkpt lat="43.50708" lon="3.757">
        <ele>127.99</ele>
        <time>2017-10-08T13:43:15Z</time>
      </trkpt>
      <trkpt lat="43.5071" lon="3.75696">
        <ele>127.99</ele>
        <time>2017-10-08T13:43:17Z</time>
      </trkpt>
      <trkpt lat="43.50709" lon="3.75694">
        <ele>127.99</ele>
        <time>2017-10-08T13:43:18Z</time>
      </trkpt>
      <trkpt lat="43.50708" lon="3.75693">
        <ele>127.99</ele>
        <time>2017-10-08T13:43:19Z</time>
      </trkpt>
      <trkpt lat="43.50707" lon="3.75694">
        <ele>127.99</ele>
        <time>2017-10-08T13:43:20Z</time>
      </trkpt>
      <trkpt lat="43.50706" lon="3.75697">
        <ele>127.99</ele>
        <time>2017-10-08T13:43:21Z</time>
      </trkpt>
      <trkpt lat="43.50704" lon="3.75699">
        <ele>127.99</ele>
        <time>2017-10-08T13:43:22Z</time>
      </trkpt>
      <trkpt lat="43.50675" lon="3.75739">
        <ele>129.92</ele>
        <time>2017-10-08T13:43:36Z</time>
      </trkpt>
      <trkpt lat="43.50651" lon="3.75769">
        <ele>131.36</ele>
        <time>2017-10-08T13:43:50Z</time>
      </trkpt>
      <trkpt lat="43.50634" lon="3.75789">
        <ele>131.84</ele>
        <time>2017-10-08T13:43:57Z</time>
      </trkpt>
      <trkpt lat="43.50633" lon="3.75794">
        <ele>131.84</ele>
        <time>2017-10-08T13:43:58Z</time>
      </trkpt>
      <trkpt lat="43.50634" lon="3.75799">
        <ele>131.36</ele>
        <time>2017-10-08T13:43:59Z</time>
      </trkpt>
      <trkpt lat="43.50636" lon="3.75802">
        <ele>131.36</ele>
        <time>2017-10-08T13:44:00Z</time>
      </trkpt>
      <trkpt lat="43.50637" lon="3.75806">
        <ele>131.36</ele>
        <time>2017-10-08T13:44:01Z</time>
      </trkpt>
      <trkpt lat="43.50669" lon="3.75836">
        <ele>129.92</ele>
        <time>2017-10-08T13:44:14Z</time>
      </trkpt>
      <trkpt lat="43.5069" lon="3.75893">
        <ele>128.95</ele>
        <time>2017-10-08T13:44:27Z</time>
      </trkpt>
      <trkpt lat="43.50694" lon="3.75978">
        <ele>126.55</ele>
        <time>2017-10-08T13:44:44Z</time>
      </trkpt>
      <trkpt lat="43.50677" lon="3.76053">
        <ele>128.47</ele>
        <time>2017-10-08T13:45:00Z</time>
      </trkpt>
      <trkpt lat="43.50639" lon="3.76087">
        <ele>127.51</ele>
        <time>2017-10-08T13:45:12Z</time>
      </trkpt>
      <trkpt lat="43.50577" lon="3.76078">
        <ele>125.59</ele>
        <time>2017-10-08T13:45:29Z</time>
      </trkpt>
      <trkpt lat="43.50508" lon="3.7606">
        <ele>124.63</ele>
        <time>2017-10-08T13:45:46Z</time>
      </trkpt>
      <trkpt lat="43.50486" lon="3.76054">
        <ele>124.63</ele>
        <time>2017-10-08T13:45:51Z</time>
      </trkpt>
      <trkpt lat="43.50481" lon="3.76055">
        <ele>124.63</ele>
        <time>2017-10-08T13:45:52Z</time>
      </trkpt>
      <trkpt lat="43.50477" lon="3.76059">
        <ele>124.63</ele>
        <time>2017-10-08T13:45:53Z</time>
      </trkpt>
      <trkpt lat="43.50475" lon="3.76065">
        <ele>124.15</ele>
        <time>2017-10-08T13:45:54Z</time>
      </trkpt>
      <trkpt lat="43.50474" lon="3.76071">
        <ele>124.15</ele>
        <time>2017-10-08T13:45:55Z</time>
      </trkpt>
      <trkpt lat="43.50474" lon="3.76077">
        <ele>123.67</ele>
        <time>2017-10-08T13:45:56Z</time>
      </trkpt>
      <trkpt lat="43.50474" lon="3.76112">
        <ele>122.71</ele>
        <time>2017-10-08T13:46:02Z</time>
      </trkpt>
      <trkpt lat="43.50458" lon="3.76169">
        <ele>122.71</ele>
        <time>2017-10-08T13:46:14Z</time>
      </trkpt>
      <trkpt lat="43.50421" lon="3.76193">
        <ele>122.22</ele>
        <time>2017-10-08T13:46:27Z</time>
      </trkpt>
      <trkpt lat="43.5038" lon="3.76226">
        <ele>121.26</ele>
        <time>2017-10-08T13:46:41Z</time>
      </trkpt>
      <trkpt lat="43.50372" lon="3.76239">
        <ele>120.78</ele>
        <time>2017-10-08T13:46:47Z</time>
      </trkpt>
      <trkpt lat="43.50372" lon="3.76242">
        <ele>120.3</ele>
        <time>2017-10-08T13:46:48Z</time>
      </trkpt>
      <trkpt lat="43.50372" lon="3.76243">
        <ele>120.3</ele>
        <time>2017-10-08T13:46:49Z</time>
      </trkpt>
      <trkpt lat="43.50372" lon="3.76245">
        <ele>120.3</ele>
        <time>2017-10-08T13:47:01Z</time>
      </trkpt>
      <trkpt lat="43.50373" lon="3.76247">
        <ele>122.22</ele>
        <time>2017-10-08T13:47:28Z</time>
      </trkpt>
      <trkpt lat="43.50372" lon="3.76245">
        <ele>123.19</ele>
        <time>2017-10-08T13:47:54Z</time>
      </trkpt>
      <trkpt lat="43.50372" lon="3.76245">
        <ele>122.71</ele>
        <time>2017-10-08T13:48:28Z</time>
      </trkpt>
      <trkpt lat="43.50373" lon="3.76246">
        <ele>123.67</ele>
        <time>2017-10-08T13:48:54Z</time>
      </trkpt>
      <trkpt lat="43.50372" lon="3.76246">
        <ele>123.67</ele>
        <time>2017-10-08T13:49:20Z</time>
      </trkpt>
      <trkpt lat="43.50372" lon="3.76247">
        <ele>122.71</ele>
        <time>2017-10-08T13:49:40Z</time>
      </trkpt>
      <trkpt lat="43.50375" lon="3.76248">
        <ele>120.3</ele>
        <time>2017-10-08T13:50:12Z</time>
      </trkpt>
      <trkpt lat="43.50375" lon="3.7625">
        <ele>120.78</ele>
        <time>2017-10-08T13:50:31Z</time>
      </trkpt>
      <trkpt lat="43.50376" lon="3.76252">
        <ele>120.78</ele>
        <time>2017-10-08T13:50:32Z</time>
      </trkpt>
      <trkpt lat="43.50376" lon="3.76254">
        <ele>120.78</ele>
        <time>2017-10-08T13:50:33Z</time>
      </trkpt>
      <trkpt lat="43.50378" lon="3.7631">
        <ele>118.38</ele>
        <time>2017-10-08T13:50:46Z</time>
      </trkpt>
      <trkpt lat="43.50391" lon="3.76428">
        <ele>113.09</ele>
        <time>2017-10-08T13:51:01Z</time>
      </trkpt>
      <trkpt lat="43.50416" lon="3.76536">
        <ele>108.29</ele>
        <time>2017-10-08T13:51:14Z</time>
      </trkpt>
      <trkpt lat="43.50416" lon="3.76543">
        <ele>108.29</ele>
        <time>2017-10-08T13:51:15Z</time>
      </trkpt>
      <trkpt lat="43.50415" lon="3.7655">
        <ele>107.81</ele>
        <time>2017-10-08T13:51:16Z</time>
      </trkpt>
      <trkpt lat="43.50414" lon="3.76557">
        <ele>107.32</ele>
        <time>2017-10-08T13:51:17Z</time>
      </trkpt>
      <trkpt lat="43.50413" lon="3.76564">
        <ele>107.32</ele>
        <time>2017-10-08T13:51:18Z</time>
      </trkpt>
      <trkpt lat="43.50411" lon="3.7657">
        <ele>106.84</ele>
        <time>2017-10-08T13:51:19Z</time>
      </trkpt>
      <trkpt lat="43.50408" lon="3.76576">
        <ele>106.84</ele>
        <time>2017-10-08T13:51:20Z</time>
      </trkpt>
      <trkpt lat="43.50405" lon="3.76581">
        <ele>106.84</ele>
        <time>2017-10-08T13:51:21Z</time>
      </trkpt>
      <trkpt lat="43.50402" lon="3.76584">
        <ele>106.36</ele>
        <time>2017-10-08T13:51:22Z</time>
      </trkpt>
      <trkpt lat="43.50399" lon="3.76588">
        <ele>106.36</ele>
        <time>2017-10-08T13:51:23Z</time>
      </trkpt>
      <trkpt lat="43.50395" lon="3.7659">
        <ele>105.88</ele>
        <time>2017-10-08T13:51:24Z</time>
      </trkpt>
      <trkpt lat="43.50387" lon="3.76594">
        <ele>105.4</ele>
        <time>2017-10-08T13:51:26Z</time>
      </trkpt>
      <trkpt lat="43.50383" lon="3.76596">
        <ele>104.92</ele>
        <time>2017-10-08T13:51:27Z</time>
      </trkpt>
      <trkpt lat="43.50332" lon="3.76605">
        <ele>101.56</ele>
        <time>2017-10-08T13:51:37Z</time>
      </trkpt>
      <trkpt lat="43.50327" lon="3.76607">
        <ele>101.08</ele>
        <time>2017-10-08T13:51:38Z</time>
      </trkpt>
      <trkpt lat="43.50322" lon="3.7661">
        <ele>101.08</ele>
        <time>2017-10-08T13:51:39Z</time>
      </trkpt>
      <trkpt lat="43.50317" lon="3.76614">
        <ele>100.6</ele>
        <time>2017-10-08T13:51:40Z</time>
      </trkpt>
      <trkpt lat="43.50313" lon="3.76619">
        <ele>100.11</ele>
        <time>2017-10-08T13:51:41Z</time>
      </trkpt>
      <trkpt lat="43.50309" lon="3.76624">
        <ele>100.11</ele>
        <time>2017-10-08T13:51:42Z</time>
      </trkpt>
      <trkpt lat="43.50305" lon="3.7663">
        <ele>99.63</ele>
        <time>2017-10-08T13:51:43Z</time>
      </trkpt>
      <trkpt lat="43.50302" lon="3.76636">
        <ele>99.15</ele>
        <time>2017-10-08T13:51:44Z</time>
      </trkpt>
      <trkpt lat="43.50299" lon="3.76642">
        <ele>99.15</ele>
        <time>2017-10-08T13:51:45Z</time>
      </trkpt>
      <trkpt lat="43.50297" lon="3.76649">
        <ele>98.67</ele>
        <time>2017-10-08T13:51:46Z</time>
      </trkpt>
      <trkpt lat="43.5029" lon="3.7667">
        <ele>98.19</ele>
        <time>2017-10-08T13:51:49Z</time>
      </trkpt>
      <trkpt lat="43.50266" lon="3.7675">
        <ele>95.31</ele>
        <time>2017-10-08T13:52:00Z</time>
      </trkpt>
      <trkpt lat="43.50259" lon="3.76761">
        <ele>94.35</ele>
        <time>2017-10-08T13:52:02Z</time>
      </trkpt>
      <trkpt lat="43.50255" lon="3.76766">
        <ele>93.87</ele>
        <time>2017-10-08T13:52:03Z</time>
      </trkpt>
      <trkpt lat="43.50251" lon="3.7677">
        <ele>93.39</ele>
        <time>2017-10-08T13:52:04Z</time>
      </trkpt>
      <trkpt lat="43.50238" lon="3.76781">
        <ele>92.42</ele>
        <time>2017-10-08T13:52:07Z</time>
      </trkpt>
      <trkpt lat="43.50171" lon="3.76805">
        <ele>87.14</ele>
        <time>2017-10-08T13:52:22Z</time>
      </trkpt>
      <trkpt lat="43.50148" lon="3.76808">
        <ele>85.21</ele>
        <time>2017-10-08T13:52:32Z</time>
      </trkpt>
      <trkpt lat="43.50148" lon="3.76808">
        <ele>88.1</ele>
        <time>2017-10-08T13:52:56Z</time>
      </trkpt>
      <trkpt lat="43.50148" lon="3.76807">
        <ele>88.58</ele>
        <time>2017-10-08T13:53:29Z</time>
      </trkpt>
      <trkpt lat="43.50147" lon="3.76807">
        <ele>91.46</ele>
        <time>2017-10-08T13:53:50Z</time>
      </trkpt>
      <trkpt lat="43.50146" lon="3.76807">
        <ele>90.02</ele>
        <time>2017-10-08T13:54:09Z</time>
      </trkpt>
      <trkpt lat="43.50145" lon="3.76808">
        <ele>90.02</ele>
        <time>2017-10-08T13:54:10Z</time>
      </trkpt>
      <trkpt lat="43.50143" lon="3.76808">
        <ele>90.02</ele>
        <time>2017-10-08T13:54:11Z</time>
      </trkpt>
      <trkpt lat="43.50142" lon="3.76809">
        <ele>90.02</ele>
        <time>2017-10-08T13:54:12Z</time>
      </trkpt>
      <trkpt lat="43.50142" lon="3.76814">
        <ele>88.58</ele>
        <time>2017-10-08T13:54:22Z</time>
      </trkpt>
      <trkpt lat="43.50146" lon="3.76814">
        <ele>88.1</ele>
        <time>2017-10-08T13:54:29Z</time>
      </trkpt>
      <trkpt lat="43.50167" lon="3.76804">
        <ele>87.62</ele>
        <time>2017-10-08T13:54:43Z</time>
      </trkpt>
      <trkpt lat="43.50169" lon="3.76804">
        <ele>87.62</ele>
        <time>2017-10-08T13:54:44Z</time>
      </trkpt>
      <trkpt lat="43.50202" lon="3.76798">
        <ele>90.5</ele>
        <time>2017-10-08T13:55:03Z</time>
      </trkpt>
      <trkpt lat="43.50234" lon="3.76783">
        <ele>90.5</ele>
        <time>2017-10-08T13:55:22Z</time>
      </trkpt>
      <trkpt lat="43.50261" lon="3.76754">
        <ele>91.46</ele>
        <time>2017-10-08T13:55:42Z</time>
      </trkpt>
      <trkpt lat="43.50276" lon="3.76719">
        <ele>94.83</ele>
        <time>2017-10-08T13:56:01Z</time>
      </trkpt>
      <trkpt lat="43.50288" lon="3.76671">
        <ele>97.71</ele>
        <time>2017-10-08T13:56:19Z</time>
      </trkpt>
      <trkpt lat="43.50304" lon="3.76629">
        <ele>100.6</ele>
        <time>2017-10-08T13:56:34Z</time>
      </trkpt>
      <trkpt lat="43.50337" lon="3.76605">
        <ele>103.48</ele>
        <time>2017-10-08T13:56:50Z</time>
      </trkpt>
      <trkpt lat="43.50381" lon="3.76598">
        <ele>106.84</ele>
        <time>2017-10-08T13:57:09Z</time>
      </trkpt>
      <trkpt lat="43.50409" lon="3.76568">
        <ele>108.29</ele>
        <time>2017-10-08T13:57:25Z</time>
      </trkpt>
      <trkpt lat="43.50412" lon="3.76509">
        <ele>109.73</ele>
        <time>2017-10-08T13:57:45Z</time>
      </trkpt>
      <trkpt lat="43.50398" lon="3.76454">
        <ele>111.17</ele>
        <time>2017-10-08T13:58:04Z</time>
      </trkpt>
      <trkpt lat="43.50385" lon="3.764">
        <ele>114.53</ele>
        <time>2017-10-08T13:58:21Z</time>
      </trkpt>
      <trkpt lat="43.50379" lon="3.76338">
        <ele>115.98</ele>
        <time>2017-10-08T13:58:40Z</time>
      </trkpt>
      <trkpt lat="43.50377" lon="3.7628">
        <ele>118.38</ele>
        <time>2017-10-08T13:58:58Z</time>
      </trkpt>
      <trkpt lat="43.50381" lon="3.76234">
        <ele>119.82</ele>
        <time>2017-10-08T13:59:14Z</time>
      </trkpt>
      <trkpt lat="43.50403" lon="3.76205">
        <ele>120.78</ele>
        <time>2017-10-08T13:59:29Z</time>
      </trkpt>
      <trkpt lat="43.50446" lon="3.76181">
        <ele>120.78</ele>
        <time>2017-10-08T13:59:48Z</time>
      </trkpt>
      <trkpt lat="43.50472" lon="3.76133">
        <ele>120.78</ele>
        <time>2017-10-08T14:00:06Z</time>
      </trkpt>
      <trkpt lat="43.50479" lon="3.76059">
        <ele>121.74</ele>
        <time>2017-10-08T14:00:25Z</time>
      </trkpt>
      <trkpt lat="43.50505" lon="3.76062">
        <ele>122.71</ele>
        <time>2017-10-08T14:00:36Z</time>
      </trkpt>
      <trkpt lat="43.50552" lon="3.76072">
        <ele>123.19</ele>
        <time>2017-10-08T14:00:53Z</time>
      </trkpt>
      <trkpt lat="43.50614" lon="3.76087">
        <ele>124.15</ele>
        <time>2017-10-08T14:01:12Z</time>
      </trkpt>
      <trkpt lat="43.50662" lon="3.76076">
        <ele>124.63</ele>
        <time>2017-10-08T14:01:28Z</time>
      </trkpt>
      <trkpt lat="43.50684" lon="3.76023">
        <ele>126.07</ele>
        <time>2017-10-08T14:01:43Z</time>
      </trkpt>
      <trkpt lat="43.50694" lon="3.7594">
        <ele>126.07</ele>
        <time>2017-10-08T14:02:01Z</time>
      </trkpt>
      <trkpt lat="43.50678" lon="3.75851">
        <ele>126.07</ele>
        <time>2017-10-08T14:02:21Z</time>
      </trkpt>
      <trkpt lat="43.5064" lon="3.75808">
        <ele>127.51</ele>
        <time>2017-10-08T14:02:35Z</time>
      </trkpt>
      <trkpt lat="43.50636" lon="3.75787">
        <ele>127.99</ele>
        <time>2017-10-08T14:02:40Z</time>
      </trkpt>
      <trkpt lat="43.50638" lon="3.75784">
        <ele>127.99</ele>
        <time>2017-10-08T14:02:41Z</time>
      </trkpt>
      <trkpt lat="43.5067" lon="3.7575">
        <ele>128.95</ele>
        <time>2017-10-08T14:02:54Z</time>
      </trkpt>
      <trkpt lat="43.50702" lon="3.75704">
        <ele>126.07</ele>
        <time>2017-10-08T14:03:09Z</time>
      </trkpt>
      <trkpt lat="43.50716" lon="3.75685">
        <ele>126.07</ele>
        <time>2017-10-08T14:03:16Z</time>
      </trkpt>
      <trkpt lat="43.50717" lon="3.75682">
        <ele>126.07</ele>
        <time>2017-10-08T14:03:17Z</time>
      </trkpt>
      <trkpt lat="43.50717" lon="3.7568">
        <ele>126.55</ele>
        <time>2017-10-08T14:03:18Z</time>
      </trkpt>
      <trkpt lat="43.50716" lon="3.75678">
        <ele>126.55</ele>
        <time>2017-10-08T14:03:19Z</time>
      </trkpt>
      <trkpt lat="43.50716" lon="3.75677">
        <ele>127.03</ele>
        <time>2017-10-08T14:03:20Z</time>
      </trkpt>
      <trkpt lat="43.50715" lon="3.75678">
        <ele>127.03</ele>
        <time>2017-10-08T14:03:21Z</time>
      </trkpt>
      <trkpt lat="43.50715" lon="3.7568">
        <ele>127.51</ele>
        <time>2017-10-08T14:03:22Z</time>
      </trkpt>
      <trkpt lat="43.50716" lon="3.75682">
        <ele>127.51</ele>
        <time>2017-10-08T14:03:23Z</time>
      </trkpt>
      <trkpt lat="43.50717" lon="3.75684">
        <ele>127.51</ele>
        <time>2017-10-08T14:03:24Z</time>
      </trkpt>
      <trkpt lat="43.50719" lon="3.75685">
        <ele>127.51</ele>
        <time>2017-10-08T14:03:25Z</time>
      </trkpt>
      <trkpt lat="43.50721" lon="3.75686">
        <ele>127.51</ele>
        <time>2017-10-08T14:03:26Z</time>
      </trkpt>
      <trkpt lat="43.50723" lon="3.75686">
        <ele>127.03</ele>
        <time>2017-10-08T14:03:27Z</time>
      </trkpt>
      <trkpt lat="43.50726" lon="3.75685">
        <ele>127.03</ele>
        <time>2017-10-08T14:03:28Z</time>
      </trkpt>
      <trkpt lat="43.50727" lon="3.75684">
        <ele>127.03</ele>
        <time>2017-10-08T14:03:29Z</time>
      </trkpt>
      <trkpt lat="43.50729" lon="3.75683">
        <ele>127.03</ele>
        <time>2017-10-08T14:03:30Z</time>
      </trkpt>
      <trkpt lat="43.50731" lon="3.75683">
        <ele>126.55</ele>
        <time>2017-10-08T14:03:31Z</time>
      </trkpt>
      <trkpt lat="43.50733" lon="3.75683">
        <ele>126.55</ele>
        <time>2017-10-08T14:03:32Z</time>
      </trkpt>
      <trkpt lat="43.50768" lon="3.75684">
        <ele>126.07</ele>
        <time>2017-10-08T14:03:45Z</time>
      </trkpt>
      <trkpt lat="43.50814" lon="3.75684">
        <ele>125.59</ele>
        <time>2017-10-08T14:03:58Z</time>
      </trkpt>
      <trkpt lat="43.50819" lon="3.75686">
        <ele>125.11</ele>
        <time>2017-10-08T14:03:59Z</time>
      </trkpt>
      <trkpt lat="43.50823" lon="3.75689">
        <ele>125.11</ele>
        <time>2017-10-08T14:04:00Z</time>
      </trkpt>
      <trkpt lat="43.50867" lon="3.75725">
        <ele>122.71</ele>
        <time>2017-10-08T14:04:09Z</time>
      </trkpt>
      <trkpt lat="43.50917" lon="3.75756">
        <ele>119.82</ele>
        <time>2017-10-08T14:04:17Z</time>
      </trkpt>
      <trkpt lat="43.50922" lon="3.75762">
        <ele>119.82</ele>
        <time>2017-10-08T14:04:18Z</time>
      </trkpt>
      <trkpt lat="43.50926" lon="3.75768">
        <ele>119.34</ele>
        <time>2017-10-08T14:04:19Z</time>
      </trkpt>
      <trkpt lat="43.50929" lon="3.75775">
        <ele>118.86</ele>
        <time>2017-10-08T14:04:20Z</time>
      </trkpt>
      <trkpt lat="43.50932" lon="3.75783">
        <ele>118.86</ele>
        <time>2017-10-08T14:04:21Z</time>
      </trkpt>
      <trkpt lat="43.50934" lon="3.75791">
        <ele>118.38</ele>
        <time>2017-10-08T14:04:22Z</time>
      </trkpt>
      <trkpt lat="43.50936" lon="3.758">
        <ele>118.38</ele>
        <time>2017-10-08T14:04:23Z</time>
      </trkpt>
      <trkpt lat="43.50942" lon="3.75856">
        <ele>116.46</ele>
        <time>2017-10-08T14:04:29Z</time>
      </trkpt>
      <trkpt lat="43.5095" lon="3.75972">
        <ele>113.09</ele>
        <time>2017-10-08T14:04:41Z</time>
      </trkpt>
      <trkpt lat="43.50971" lon="3.76051">
        <ele>111.17</ele>
        <time>2017-10-08T14:04:50Z</time>
      </trkpt>
      <trkpt lat="43.5098" lon="3.76124">
        <ele>109.73</ele>
        <time>2017-10-08T14:04:59Z</time>
      </trkpt>
      <trkpt lat="43.50983" lon="3.76184">
        <ele>107.81</ele>
        <time>2017-10-08T14:05:06Z</time>
      </trkpt>
      <trkpt lat="43.50983" lon="3.76202">
        <ele>107.32</ele>
        <time>2017-10-08T14:05:08Z</time>
      </trkpt>
      <trkpt lat="43.50983" lon="3.76228">
        <ele>106.36</ele>
        <time>2017-10-08T14:05:11Z</time>
      </trkpt>
      <trkpt lat="43.50987" lon="3.76255">
        <ele>104.92</ele>
        <time>2017-10-08T14:05:14Z</time>
      </trkpt>
      <trkpt lat="43.51" lon="3.76296">
        <ele>103</ele>
        <time>2017-10-08T14:05:19Z</time>
      </trkpt>
      <trkpt lat="43.51004" lon="3.76303">
        <ele>103</ele>
        <time>2017-10-08T14:05:20Z</time>
      </trkpt>
      <trkpt lat="43.51008" lon="3.7631">
        <ele>102.52</ele>
        <time>2017-10-08T14:05:21Z</time>
      </trkpt>
      <trkpt lat="43.51023" lon="3.76326">
        <ele>101.56</ele>
        <time>2017-10-08T14:05:24Z</time>
      </trkpt>
      <trkpt lat="43.51029" lon="3.76331">
        <ele>101.56</ele>
        <time>2017-10-08T14:05:25Z</time>
      </trkpt>
      <trkpt lat="43.51034" lon="3.76336">
        <ele>101.08</ele>
        <time>2017-10-08T14:05:26Z</time>
      </trkpt>
      <trkpt lat="43.51056" lon="3.76359">
        <ele>100.11</ele>
        <time>2017-10-08T14:05:31Z</time>
      </trkpt>
      <trkpt lat="43.51061" lon="3.76362">
        <ele>99.63</ele>
        <time>2017-10-08T14:05:32Z</time>
      </trkpt>
      <trkpt lat="43.51066" lon="3.76364">
        <ele>99.15</ele>
        <time>2017-10-08T14:05:33Z</time>
      </trkpt>
      <trkpt lat="43.51113" lon="3.7638">
        <ele>96.27</ele>
        <time>2017-10-08T14:05:42Z</time>
      </trkpt>
      <trkpt lat="43.51123" lon="3.76381">
        <ele>95.79</ele>
        <time>2017-10-08T14:05:44Z</time>
      </trkpt>
      <trkpt lat="43.51128" lon="3.76383">
        <ele>95.31</ele>
        <time>2017-10-08T14:05:45Z</time>
      </trkpt>
      <trkpt lat="43.51133" lon="3.76384">
        <ele>95.31</ele>
        <time>2017-10-08T14:05:46Z</time>
      </trkpt>
      <trkpt lat="43.51156" lon="3.76391">
        <ele>93.87</ele>
        <time>2017-10-08T14:05:50Z</time>
      </trkpt>
      <trkpt lat="43.51179" lon="3.76401">
        <ele>92.9</ele>
        <time>2017-10-08T14:05:54Z</time>
      </trkpt>
      <trkpt lat="43.5127" lon="3.76464">
        <ele>89.06</ele>
        <time>2017-10-08T14:06:09Z</time>
      </trkpt>
      <trkpt lat="43.51312" lon="3.76488">
        <ele>89.06</ele>
        <time>2017-10-08T14:06:18Z</time>
      </trkpt>
      <trkpt lat="43.51338" lon="3.76502">
        <ele>88.58</ele>
        <time>2017-10-08T14:06:26Z</time>
      </trkpt>
      <trkpt lat="43.5134" lon="3.76501">
        <ele>88.1</ele>
        <time>2017-10-08T14:06:27Z</time>
      </trkpt>
      <trkpt lat="43.51342" lon="3.765">
        <ele>88.1</ele>
        <time>2017-10-08T14:06:28Z</time>
      </trkpt>
      <trkpt lat="43.51347" lon="3.76499">
        <ele>88.1</ele>
        <time>2017-10-08T14:06:31Z</time>
      </trkpt>
      <trkpt lat="43.51348" lon="3.765">
        <ele>87.62</ele>
        <time>2017-10-08T14:06:32Z</time>
      </trkpt>
      <trkpt lat="43.5135" lon="3.76502">
        <ele>88.1</ele>
        <time>2017-10-08T14:06:33Z</time>
      </trkpt>
      <trkpt lat="43.51375" lon="3.76526">
        <ele>88.1</ele>
        <time>2017-10-08T14:06:46Z</time>
      </trkpt>
      <trkpt lat="43.51402" lon="3.76555">
        <ele>86.66</ele>
        <time>2017-10-08T14:06:58Z</time>
      </trkpt>
      <trkpt lat="43.51444" lon="3.76602">
        <ele>85.69</ele>
        <time>2017-10-08T14:07:13Z</time>
      </trkpt>
      <trkpt lat="43.51467" lon="3.76636">
        <ele>84.73</ele>
        <time>2017-10-08T14:07:22Z</time>
      </trkpt>
      <trkpt lat="43.51491" lon="3.76699">
        <ele>84.25</ele>
        <time>2017-10-08T14:07:35Z</time>
      </trkpt>
      <trkpt lat="43.51516" lon="3.76774">
        <ele>82.33</ele>
        <time>2017-10-08T14:07:49Z</time>
      </trkpt>
      <trkpt lat="43.51519" lon="3.76819">
        <ele>82.33</ele>
        <time>2017-10-08T14:08:00Z</time>
      </trkpt>
      <trkpt lat="43.51521" lon="3.76843">
        <ele>82.33</ele>
        <time>2017-10-08T14:08:09Z</time>
      </trkpt>
      <trkpt lat="43.51522" lon="3.76845">
        <ele>82.33</ele>
        <time>2017-10-08T14:08:10Z</time>
      </trkpt>
      <trkpt lat="43.51523" lon="3.76847">
        <ele>81.85</ele>
        <time>2017-10-08T14:08:11Z</time>
      </trkpt>
      <trkpt lat="43.51535" lon="3.76884">
        <ele>81.37</ele>
        <time>2017-10-08T14:08:23Z</time>
      </trkpt>
      <trkpt lat="43.51537" lon="3.7689">
        <ele>81.37</ele>
        <time>2017-10-08T14:08:25Z</time>
      </trkpt>
      <trkpt lat="43.51557" lon="3.76926">
        <ele>80.89</ele>
        <time>2017-10-08T14:08:38Z</time>
      </trkpt>
      <trkpt lat="43.51575" lon="3.76946">
        <ele>80.41</ele>
        <time>2017-10-08T14:08:49Z</time>
      </trkpt>
      <trkpt lat="43.51577" lon="3.76951">
        <ele>80.41</ele>
        <time>2017-10-08T14:08:51Z</time>
      </trkpt>
      <trkpt lat="43.51579" lon="3.76952">
        <ele>80.41</ele>
        <time>2017-10-08T14:08:52Z</time>
      </trkpt>
      <trkpt lat="43.51581" lon="3.76953">
        <ele>80.41</ele>
        <time>2017-10-08T14:08:53Z</time>
      </trkpt>
      <trkpt lat="43.51582" lon="3.76952">
        <ele>80.41</ele>
        <time>2017-10-08T14:08:54Z</time>
      </trkpt>
      <trkpt lat="43.51584" lon="3.7695">
        <ele>80.89</ele>
        <time>2017-10-08T14:08:55Z</time>
      </trkpt>
      <trkpt lat="43.51585" lon="3.76949">
        <ele>80.89</ele>
        <time>2017-10-08T14:08:56Z</time>
      </trkpt>
      <trkpt lat="43.51586" lon="3.76948">
        <ele>80.89</ele>
        <time>2017-10-08T14:08:57Z</time>
      </trkpt>
      <trkpt lat="43.51587" lon="3.76946">
        <ele>80.89</ele>
        <time>2017-10-08T14:08:58Z</time>
      </trkpt>
      <trkpt lat="43.51588" lon="3.76944">
        <ele>80.89</ele>
        <time>2017-10-08T14:08:59Z</time>
      </trkpt>
      <trkpt lat="43.51599" lon="3.76911">
        <ele>79.93</ele>
        <time>2017-10-08T14:09:14Z</time>
      </trkpt>
      <trkpt lat="43.51601" lon="3.76903">
        <ele>80.41</ele>
        <time>2017-10-08T14:09:27Z</time>
      </trkpt>
      <trkpt lat="43.51608" lon="3.76885">
        <ele>80.41</ele>
        <time>2017-10-08T14:09:36Z</time>
      </trkpt>
      <trkpt lat="43.51613" lon="3.76852">
        <ele>79.93</ele>
        <time>2017-10-08T14:09:51Z</time>
      </trkpt>
      <trkpt lat="43.51615" lon="3.76853">
        <ele>80.89</ele>
        <time>2017-10-08T14:10:07Z</time>
      </trkpt>
      <trkpt lat="43.51617" lon="3.76853">
        <ele>82.33</ele>
        <time>2017-10-08T14:10:25Z</time>
      </trkpt>
      <trkpt lat="43.51616" lon="3.76853">
        <ele>82.33</ele>
        <time>2017-10-08T14:10:43Z</time>
      </trkpt>
      <trkpt lat="43.51616" lon="3.76852">
        <ele>80.89</ele>
        <time>2017-10-08T14:11:11Z</time>
      </trkpt>
      <trkpt lat="43.51615" lon="3.76851">
        <ele>81.37</ele>
        <time>2017-10-08T14:11:30Z</time>
      </trkpt>
      <trkpt lat="43.51614" lon="3.76852">
        <ele>80.89</ele>
        <time>2017-10-08T14:12:02Z</time>
      </trkpt>
      <trkpt lat="43.51613" lon="3.76853">
        <ele>80.41</ele>
        <time>2017-10-08T14:12:37Z</time>
      </trkpt>
      <trkpt lat="43.51615" lon="3.76854">
        <ele>79.45</ele>
        <time>2017-10-08T14:12:59Z</time>
      </trkpt>
      <trkpt lat="43.51617" lon="3.76854">
        <ele>78.97</ele>
        <time>2017-10-08T14:13:22Z</time>
      </trkpt>
      <trkpt lat="43.51614" lon="3.76853">
        <ele>75.6</ele>
        <time>2017-10-08T14:13:46Z</time>
      </trkpt>
      <trkpt lat="43.51616" lon="3.76852">
        <ele>78</ele>
        <time>2017-10-08T14:14:05Z</time>
      </trkpt>
      <trkpt lat="43.51618" lon="3.76853">
        <ele>81.37</ele>
        <time>2017-10-08T14:14:25Z</time>
      </trkpt>
      <trkpt lat="43.51618" lon="3.76852">
        <ele>79.93</ele>
        <time>2017-10-08T14:14:42Z</time>
      </trkpt>
      <trkpt lat="43.51615" lon="3.76853">
        <ele>77.04</ele>
        <time>2017-10-08T14:14:57Z</time>
      </trkpt>
      <trkpt lat="43.51618" lon="3.76843">
        <ele>76.08</ele>
        <time>2017-10-08T14:15:13Z</time>
      </trkpt>
      <trkpt lat="43.51624" lon="3.768">
        <ele>76.08</ele>
        <time>2017-10-08T14:15:25Z</time>
      </trkpt>
      <trkpt lat="43.51623" lon="3.76737">
        <ele>74.16</ele>
        <time>2017-10-08T14:15:38Z</time>
      </trkpt>
      <trkpt lat="43.51637" lon="3.76696">
        <ele>72.72</ele>
        <time>2017-10-08T14:15:50Z</time>
      </trkpt>
      <trkpt lat="43.51638" lon="3.76679">
        <ele>72.24</ele>
        <time>2017-10-08T14:15:54Z</time>
      </trkpt>
      <trkpt lat="43.51639" lon="3.76675">
        <ele>71.76</ele>
        <time>2017-10-08T14:15:55Z</time>
      </trkpt>
      <trkpt lat="43.51665" lon="3.76632">
        <ele>69.35</ele>
        <time>2017-10-08T14:16:08Z</time>
      </trkpt>
      <trkpt lat="43.51706" lon="3.76562">
        <ele>67.43</ele>
        <time>2017-10-08T14:16:25Z</time>
      </trkpt>
      <trkpt lat="43.51742" lon="3.76505">
        <ele>67.43</ele>
        <time>2017-10-08T14:16:38Z</time>
      </trkpt>
      <trkpt lat="43.51763" lon="3.76484">
        <ele>67.43</ele>
        <time>2017-10-08T14:16:49Z</time>
      </trkpt>
      <trkpt lat="43.51764" lon="3.76483">
        <ele>68.87</ele>
        <time>2017-10-08T14:17:03Z</time>
      </trkpt>
      <trkpt lat="43.51765" lon="3.76482">
        <ele>68.87</ele>
        <time>2017-10-08T14:17:04Z</time>
      </trkpt>
      <trkpt lat="43.51788" lon="3.76468">
        <ele>68.39</ele>
        <time>2017-10-08T14:17:15Z</time>
      </trkpt>
      <trkpt lat="43.51851" lon="3.76464">
        <ele>67.43</ele>
        <time>2017-10-08T14:17:34Z</time>
      </trkpt>
      <trkpt lat="43.51914" lon="3.76476">
        <ele>63.58</ele>
        <time>2017-10-08T14:17:48Z</time>
      </trkpt>
      <trkpt lat="43.51975" lon="3.7648">
        <ele>63.1</ele>
        <time>2017-10-08T14:18:00Z</time>
      </trkpt>
      <trkpt lat="43.52014" lon="3.76471">
        <ele>63.1</ele>
        <time>2017-10-08T14:18:11Z</time>
      </trkpt>
      <trkpt lat="43.52018" lon="3.76468">
        <ele>63.1</ele>
        <time>2017-10-08T14:18:12Z</time>
      </trkpt>
      <trkpt lat="43.52026" lon="3.76461">
        <ele>62.14</ele>
        <time>2017-10-08T14:18:14Z</time>
      </trkpt>
      <trkpt lat="43.52077" lon="3.76412">
        <ele>59.26</ele>
        <time>2017-10-08T14:18:29Z</time>
      </trkpt>
      <trkpt lat="43.52124" lon="3.76348">
        <ele>57.82</ele>
        <time>2017-10-08T14:18:46Z</time>
      </trkpt>
      <trkpt lat="43.52136" lon="3.76333">
        <ele>57.34</ele>
        <time>2017-10-08T14:18:50Z</time>
      </trkpt>
      <trkpt lat="43.5217" lon="3.7629">
        <ele>56.37</ele>
        <time>2017-10-08T14:19:01Z</time>
      </trkpt>
      <trkpt lat="43.52209" lon="3.76254">
        <ele>54.93</ele>
        <time>2017-10-08T14:19:14Z</time>
      </trkpt>
      <trkpt lat="43.52257" lon="3.76225">
        <ele>52.53</ele>
        <time>2017-10-08T14:19:28Z</time>
      </trkpt>
      <trkpt lat="43.52313" lon="3.76199">
        <ele>53.01</ele>
        <time>2017-10-08T14:19:45Z</time>
      </trkpt>
      <trkpt lat="43.52319" lon="3.76202">
        <ele>53.97</ele>
        <time>2017-10-08T14:19:57Z</time>
      </trkpt>
      <trkpt lat="43.52319" lon="3.76205">
        <ele>54.93</ele>
        <time>2017-10-08T14:20:22Z</time>
      </trkpt>
      <trkpt lat="43.5232" lon="3.76207">
        <ele>54.93</ele>
        <time>2017-10-08T14:20:23Z</time>
      </trkpt>
      <trkpt lat="43.52321" lon="3.76208">
        <ele>54.93</ele>
        <time>2017-10-08T14:20:24Z</time>
      </trkpt>
      <trkpt lat="43.52322" lon="3.7621">
        <ele>54.93</ele>
        <time>2017-10-08T14:20:25Z</time>
      </trkpt>
      <trkpt lat="43.52323" lon="3.76211">
        <ele>54.93</ele>
        <time>2017-10-08T14:20:26Z</time>
      </trkpt>
      <trkpt lat="43.52325" lon="3.76211">
        <ele>54.93</ele>
        <time>2017-10-08T14:20:27Z</time>
      </trkpt>
      <trkpt lat="43.52327" lon="3.76211">
        <ele>54.45</ele>
        <time>2017-10-08T14:20:28Z</time>
      </trkpt>
      <trkpt lat="43.52329" lon="3.76211">
        <ele>54.45</ele>
        <time>2017-10-08T14:20:29Z</time>
      </trkpt>
      <trkpt lat="43.52331" lon="3.76211">
        <ele>53.97</ele>
        <time>2017-10-08T14:20:30Z</time>
      </trkpt>
      <trkpt lat="43.5234" lon="3.76207">
        <ele>53.97</ele>
        <time>2017-10-08T14:20:36Z</time>
      </trkpt>
      <trkpt lat="43.52341" lon="3.76207">
        <ele>53.97</ele>
        <time>2017-10-08T14:20:37Z</time>
      </trkpt>
      <trkpt lat="43.52343" lon="3.76206">
        <ele>53.97</ele>
        <time>2017-10-08T14:20:38Z</time>
      </trkpt>
      <trkpt lat="43.52344" lon="3.76205">
        <ele>53.97</ele>
        <time>2017-10-08T14:20:39Z</time>
      </trkpt>
      <trkpt lat="43.52345" lon="3.76204">
        <ele>53.97</ele>
        <time>2017-10-08T14:20:40Z</time>
      </trkpt>
      <trkpt lat="43.52347" lon="3.76204">
        <ele>53.97</ele>
        <time>2017-10-08T14:20:41Z</time>
      </trkpt>
      <trkpt lat="43.52348" lon="3.76204">
        <ele>53.97</ele>
        <time>2017-10-08T14:20:42Z</time>
      </trkpt>
      <trkpt lat="43.5235" lon="3.76203">
        <ele>53.97</ele>
        <time>2017-10-08T14:20:43Z</time>
      </trkpt>
      <trkpt lat="43.52352" lon="3.76202">
        <ele>53.97</ele>
        <time>2017-10-08T14:20:44Z</time>
      </trkpt>
      <trkpt lat="43.52354" lon="3.76202">
        <ele>53.97</ele>
        <time>2017-10-08T14:20:45Z</time>
      </trkpt>
      <trkpt lat="43.52394" lon="3.76185">
        <ele>52.53</ele>
        <time>2017-10-08T14:21:03Z</time>
      </trkpt>
      <trkpt lat="43.52417" lon="3.76175">
        <ele>53.01</ele>
        <time>2017-10-08T14:21:16Z</time>
      </trkpt>
      <trkpt lat="43.52418" lon="3.76174">
        <ele>53.01</ele>
        <time>2017-10-08T14:21:17Z</time>
      </trkpt>
      <trkpt lat="43.52418" lon="3.76172">
        <ele>53.01</ele>
        <time>2017-10-08T14:21:18Z</time>
      </trkpt>
      <trkpt lat="43.52418" lon="3.7617">
        <ele>52.53</ele>
        <time>2017-10-08T14:21:19Z</time>
      </trkpt>
      <trkpt lat="43.52417" lon="3.76168">
        <ele>52.53</ele>
        <time>2017-10-08T14:21:20Z</time>
      </trkpt>
      <trkpt lat="43.52414" lon="3.76168">
        <ele>52.53</ele>
        <time>2017-10-08T14:21:21Z</time>
      </trkpt>
      <trkpt lat="43.52412" lon="3.76167">
        <ele>52.53</ele>
        <time>2017-10-08T14:21:22Z</time>
      </trkpt>
      <trkpt lat="43.52411" lon="3.76166">
        <ele>52.53</ele>
        <time>2017-10-08T14:21:23Z</time>
      </trkpt>
      <trkpt lat="43.52409" lon="3.76164">
        <ele>53.01</ele>
        <time>2017-10-08T14:21:24Z</time>
      </trkpt>
      <trkpt lat="43.52408" lon="3.76163">
        <ele>52.53</ele>
        <time>2017-10-08T14:21:25Z</time>
      </trkpt>
      <trkpt lat="43.5241" lon="3.76156">
        <ele>53.01</ele>
        <time>2017-10-08T14:21:32Z</time>
      </trkpt>
      <trkpt lat="43.52411" lon="3.76153">
        <ele>53.01</ele>
        <time>2017-10-08T14:21:33Z</time>
      </trkpt>
      <trkpt lat="43.52412" lon="3.7615">
        <ele>53.01</ele>
        <time>2017-10-08T14:21:34Z</time>
      </trkpt>
      <trkpt lat="43.52413" lon="3.76147">
        <ele>53.01</ele>
        <time>2017-10-08T14:21:35Z</time>
      </trkpt>
      <trkpt lat="43.52415" lon="3.76145">
        <ele>53.01</ele>
        <time>2017-10-08T14:21:36Z</time>
      </trkpt>
      <trkpt lat="43.52417" lon="3.76143">
        <ele>53.01</ele>
        <time>2017-10-08T14:21:37Z</time>
      </trkpt>
      <trkpt lat="43.5245" lon="3.76128">
        <ele>53.49</ele>
        <time>2017-10-08T14:21:51Z</time>
      </trkpt>
      <trkpt lat="43.52489" lon="3.76118">
        <ele>53.49</ele>
        <time>2017-10-08T14:22:04Z</time>
      </trkpt>
      <trkpt lat="43.52541" lon="3.76101">
        <ele>53.01</ele>
        <time>2017-10-08T14:22:21Z</time>
      </trkpt>
      <trkpt lat="43.52579" lon="3.76079">
        <ele>52.53</ele>
        <time>2017-10-08T14:22:35Z</time>
      </trkpt>
      <trkpt lat="43.52612" lon="3.76054">
        <ele>50.13</ele>
        <time>2017-10-08T14:22:47Z</time>
      </trkpt>
      <trkpt lat="43.52664" lon="3.76038">
        <ele>49.16</ele>
        <time>2017-10-08T14:23:02Z</time>
      </trkpt>
      <trkpt lat="43.52728" lon="3.76022">
        <ele>49.65</ele>
        <time>2017-10-08T14:23:20Z</time>
      </trkpt>
      <trkpt lat="43.52771" lon="3.76016">
        <ele>49.16</ele>
        <time>2017-10-08T14:23:35Z</time>
      </trkpt>
      <trkpt lat="43.52833" lon="3.76009">
        <ele>49.65</ele>
        <time>2017-10-08T14:23:56Z</time>
      </trkpt>
      <trkpt lat="43.52862" lon="3.75988">
        <ele>50.13</ele>
        <time>2017-10-08T14:24:09Z</time>
      </trkpt>
      <trkpt lat="43.52886" lon="3.75977">
        <ele>50.61</ele>
        <time>2017-10-08T14:24:19Z</time>
      </trkpt>
      <trkpt lat="43.52931" lon="3.75969">
        <ele>47.72</ele>
        <time>2017-10-08T14:24:35Z</time>
      </trkpt>
      <trkpt lat="43.52989" lon="3.75951">
        <ele>45.8</ele>
        <time>2017-10-08T14:24:53Z</time>
      </trkpt>
      <trkpt lat="43.53037" lon="3.75933">
        <ele>43.88</ele>
        <time>2017-10-08T14:25:10Z</time>
      </trkpt>
      <trkpt lat="43.53043" lon="3.75933">
        <ele>43.88</ele>
        <time>2017-10-08T14:25:12Z</time>
      </trkpt>
      <trkpt lat="43.53045" lon="3.75934">
        <ele>43.88</ele>
        <time>2017-10-08T14:25:13Z</time>
      </trkpt>
      <trkpt lat="43.53079" lon="3.75931">
        <ele>43.4</ele>
        <time>2017-10-08T14:25:25Z</time>
      </trkpt>
      <trkpt lat="43.53117" lon="3.75917">
        <ele>42.44</ele>
        <time>2017-10-08T14:25:41Z</time>
      </trkpt>
      <trkpt lat="43.5312" lon="3.7592">
        <ele>41.95</ele>
        <time>2017-10-08T14:25:51Z</time>
      </trkpt>
      <trkpt lat="43.5312" lon="3.75927">
        <ele>42.44</ele>
        <time>2017-10-08T14:26:03Z</time>
      </trkpt>
      <trkpt lat="43.5312" lon="3.75929">
        <ele>42.44</ele>
        <time>2017-10-08T14:26:19Z</time>
      </trkpt>
      <trkpt lat="43.53123" lon="3.75934">
        <ele>42.92</ele>
        <time>2017-10-08T14:26:32Z</time>
      </trkpt>
      <trkpt lat="43.53118" lon="3.75936">
        <ele>43.88</ele>
        <time>2017-10-08T14:26:48Z</time>
      </trkpt>
      <trkpt lat="43.53117" lon="3.75939">
        <ele>43.88</ele>
        <time>2017-10-08T14:26:56Z</time>
      </trkpt>
      <trkpt lat="43.53117" lon="3.75941">
        <ele>43.88</ele>
        <time>2017-10-08T14:26:57Z</time>
      </trkpt>
      <trkpt lat="43.5312" lon="3.75942">
        <ele>43.4</ele>
        <time>2017-10-08T14:27:09Z</time>
      </trkpt>
      <trkpt lat="43.53121" lon="3.75939">
        <ele>43.4</ele>
        <time>2017-10-08T14:27:22Z</time>
      </trkpt>
      <trkpt lat="43.53121" lon="3.7593">
        <ele>41.47</ele>
        <time>2017-10-08T14:27:35Z</time>
      </trkpt>
      <trkpt lat="43.5312" lon="3.75935">
        <ele>42.92</ele>
        <time>2017-10-08T14:27:49Z</time>
      </trkpt>
      <trkpt lat="43.5312" lon="3.75943">
        <ele>43.88</ele>
        <time>2017-10-08T14:28:01Z</time>
      </trkpt>
      <trkpt lat="43.5312" lon="3.75943">
        <ele>43.4</ele>
        <time>2017-10-08T14:28:20Z</time>
      </trkpt>
      <trkpt lat="43.5312" lon="3.75943">
        <ele>42.92</ele>
        <time>2017-10-08T14:28:26Z</time>
      </trkpt>
      <trkpt lat="43.53129" lon="3.75938">
        <ele>41.95</ele>
        <time>2017-10-08T14:28:32Z</time>
      </trkpt>
      <trkpt lat="43.53179" lon="3.75919">
        <ele>42.44</ele>
        <time>2017-10-08T14:28:47Z</time>
      </trkpt>
      <trkpt lat="43.53251" lon="3.75891">
        <ele>43.4</ele>
        <time>2017-10-08T14:29:06Z</time>
      </trkpt>
      <trkpt lat="43.53315" lon="3.75863">
        <ele>44.36</ele>
        <time>2017-10-08T14:29:23Z</time>
      </trkpt>
      <trkpt lat="43.53372" lon="3.75827">
        <ele>44.84</ele>
        <time>2017-10-08T14:29:39Z</time>
      </trkpt>
      <trkpt lat="43.53428" lon="3.7579">
        <ele>45.8</ele>
        <time>2017-10-08T14:29:55Z</time>
      </trkpt>
      <trkpt lat="43.53494" lon="3.75747">
        <ele>46.76</ele>
        <time>2017-10-08T14:30:14Z</time>
      </trkpt>
      <trkpt lat="43.53547" lon="3.75714">
        <ele>49.16</ele>
        <time>2017-10-08T14:30:29Z</time>
      </trkpt>
      <trkpt lat="43.53592" lon="3.75696">
        <ele>52.05</ele>
        <time>2017-10-08T14:30:43Z</time>
      </trkpt>
      <trkpt lat="43.53609" lon="3.75668">
        <ele>53.01</ele>
        <time>2017-10-08T14:30:51Z</time>
      </trkpt>
      <trkpt lat="43.53636" lon="3.75622">
        <ele>53.01</ele>
        <time>2017-10-08T14:31:04Z</time>
      </trkpt>
      <trkpt lat="43.53647" lon="3.75606">
        <ele>50.61</ele>
        <time>2017-10-08T14:31:16Z</time>
      </trkpt>
      <trkpt lat="43.53646" lon="3.75606">
        <ele>53.49</ele>
        <time>2017-10-08T14:31:40Z</time>
      </trkpt>
      <trkpt lat="43.53648" lon="3.75602">
        <ele>52.05</ele>
        <time>2017-10-08T14:32:02Z</time>
      </trkpt>
      <trkpt lat="43.53679" lon="3.75565">
        <ele>48.2</ele>
        <time>2017-10-08T14:32:15Z</time>
      </trkpt>
      <trkpt lat="43.53748" lon="3.75508">
        <ele>45.32</ele>
        <time>2017-10-08T14:32:33Z</time>
      </trkpt>
      <trkpt lat="43.53777" lon="3.75493">
        <ele>44.36</ele>
        <time>2017-10-08T14:32:40Z</time>
      </trkpt>
      <trkpt lat="43.53836" lon="3.75472">
        <ele>44.36</ele>
        <time>2017-10-08T14:32:54Z</time>
      </trkpt>
      <trkpt lat="43.53878" lon="3.75451">
        <ele>45.32</ele>
        <time>2017-10-08T14:33:06Z</time>
      </trkpt>
      <trkpt lat="43.5392" lon="3.7542">
        <ele>44.84</ele>
        <time>2017-10-08T14:33:18Z</time>
      </trkpt>
      <trkpt lat="43.53966" lon="3.75397">
        <ele>43.88</ele>
        <time>2017-10-08T14:33:32Z</time>
      </trkpt>
      <trkpt lat="43.53992" lon="3.7537">
        <ele>43.88</ele>
        <time>2017-10-08T14:33:41Z</time>
      </trkpt>
      <trkpt lat="43.54042" lon="3.75336">
        <ele>43.88</ele>
        <time>2017-10-08T14:33:56Z</time>
      </trkpt>
      <trkpt lat="43.54095" lon="3.75301">
        <ele>44.36</ele>
        <time>2017-10-08T14:34:11Z</time>
      </trkpt>
      <trkpt lat="43.54155" lon="3.75273">
        <ele>45.8</ele>
        <time>2017-10-08T14:34:28Z</time>
      </trkpt>
      <trkpt lat="43.5421" lon="3.75258">
        <ele>47.24</ele>
        <time>2017-10-08T14:34:43Z</time>
      </trkpt>
      <trkpt lat="43.54256" lon="3.75244">
        <ele>48.2</ele>
        <time>2017-10-08T14:34:57Z</time>
      </trkpt>
      <trkpt lat="43.54305" lon="3.75232">
        <ele>47.24</ele>
        <time>2017-10-08T14:35:10Z</time>
      </trkpt>
      <trkpt lat="43.54352" lon="3.75224">
        <ele>46.76</ele>
        <time>2017-10-08T14:35:23Z</time>
      </trkpt>
      <trkpt lat="43.54389" lon="3.75264">
        <ele>47.24</ele>
        <time>2017-10-08T14:35:34Z</time>
      </trkpt>
      <trkpt lat="43.54396" lon="3.75271">
        <ele>47.24</ele>
        <time>2017-10-08T14:35:36Z</time>
      </trkpt>
      <trkpt lat="43.54432" lon="3.75312">
        <ele>47.24</ele>
        <time>2017-10-08T14:35:47Z</time>
      </trkpt>
      <trkpt lat="43.54436" lon="3.75314">
        <ele>47.24</ele>
        <time>2017-10-08T14:35:48Z</time>
      </trkpt>
      <trkpt lat="43.5444" lon="3.75315">
        <ele>47.24</ele>
        <time>2017-10-08T14:35:49Z</time>
      </trkpt>
      <trkpt lat="43.54445" lon="3.75316">
        <ele>47.24</ele>
        <time>2017-10-08T14:35:50Z</time>
      </trkpt>
      <trkpt lat="43.5445" lon="3.75315">
        <ele>47.24</ele>
        <time>2017-10-08T14:35:51Z</time>
      </trkpt>
      <trkpt lat="43.545" lon="3.75317">
        <ele>46.76</ele>
        <time>2017-10-08T14:36:04Z</time>
      </trkpt>
      <trkpt lat="43.54571" lon="3.75332">
        <ele>44.36</ele>
        <time>2017-10-08T14:36:19Z</time>
      </trkpt>
      <trkpt lat="43.54681" lon="3.7535">
        <ele>42.92</ele>
        <time>2017-10-08T14:36:39Z</time>
      </trkpt>
      <trkpt lat="43.54723" lon="3.75358">
        <ele>42.92</ele>
        <time>2017-10-08T14:36:47Z</time>
      </trkpt>
      <trkpt lat="43.54809" lon="3.75382">
        <ele>41.95</ele>
        <time>2017-10-08T14:37:03Z</time>
      </trkpt>
      <trkpt lat="43.54836" lon="3.75393">
        <ele>41.47</ele>
        <time>2017-10-08T14:37:08Z</time>
      </trkpt>
      <trkpt lat="43.5492" lon="3.75425">
        <ele>38.11</ele>
        <time>2017-10-08T14:37:25Z</time>
      </trkpt>
      <trkpt lat="43.54935" lon="3.7543">
        <ele>37.15</ele>
        <time>2017-10-08T14:37:28Z</time>
      </trkpt>
      <trkpt lat="43.54939" lon="3.7543">
        <ele>37.15</ele>
        <time>2017-10-08T14:37:29Z</time>
      </trkpt>
      <trkpt lat="43.54944" lon="3.75431">
        <ele>37.15</ele>
        <time>2017-10-08T14:37:30Z</time>
      </trkpt>
      <trkpt lat="43.54949" lon="3.7543">
        <ele>36.67</ele>
        <time>2017-10-08T14:37:31Z</time>
      </trkpt>
      <trkpt lat="43.54953" lon="3.75428">
        <ele>36.67</ele>
        <time>2017-10-08T14:37:32Z</time>
      </trkpt>
      <trkpt lat="43.54958" lon="3.75427">
        <ele>36.19</ele>
        <time>2017-10-08T14:37:33Z</time>
      </trkpt>
      <trkpt lat="43.55002" lon="3.75417">
        <ele>32.34</ele>
        <time>2017-10-08T14:37:46Z</time>
      </trkpt>
      <trkpt lat="43.55004" lon="3.75418">
        <ele>32.34</ele>
        <time>2017-10-08T14:37:47Z</time>
      </trkpt>
      <trkpt lat="43.55007" lon="3.7542">
        <ele>32.34</ele>
        <time>2017-10-08T14:37:48Z</time>
      </trkpt>
      <trkpt lat="43.5501" lon="3.75422">
        <ele>31.86</ele>
        <time>2017-10-08T14:37:49Z</time>
      </trkpt>
      <trkpt lat="43.55012" lon="3.75425">
        <ele>31.38</ele>
        <time>2017-10-08T14:37:50Z</time>
      </trkpt>
      <trkpt lat="43.55015" lon="3.75428">
        <ele>31.38</ele>
        <time>2017-10-08T14:37:51Z</time>
      </trkpt>
      <trkpt lat="43.55048" lon="3.75479">
        <ele>29.46</ele>
        <time>2017-10-08T14:38:04Z</time>
      </trkpt>
      <trkpt lat="43.55051" lon="3.75483">
        <ele>29.46</ele>
        <time>2017-10-08T14:38:05Z</time>
      </trkpt>
      <trkpt lat="43.55065" lon="3.75499">
        <ele>28.98</ele>
        <time>2017-10-08T14:38:09Z</time>
      </trkpt>
      <trkpt lat="43.55112" lon="3.75538">
        <ele>28.98</ele>
        <time>2017-10-08T14:38:22Z</time>
      </trkpt>
      <trkpt lat="43.55149" lon="3.75585">
        <ele>30.9</ele>
        <time>2017-10-08T14:38:34Z</time>
      </trkpt>
      <trkpt lat="43.55158" lon="3.75596">
        <ele>30.9</ele>
        <time>2017-10-08T14:38:37Z</time>
      </trkpt>
      <trkpt lat="43.55181" lon="3.75613">
        <ele>31.86</ele>
        <time>2017-10-08T14:38:43Z</time>
      </trkpt>
      <trkpt lat="43.5524" lon="3.75659">
        <ele>31.86</ele>
        <time>2017-10-08T14:38:58Z</time>
      </trkpt>
      <trkpt lat="43.55244" lon="3.75661">
        <ele>31.86</ele>
        <time>2017-10-08T14:38:59Z</time>
      </trkpt>
      <trkpt lat="43.55249" lon="3.75662">
        <ele>32.34</ele>
        <time>2017-10-08T14:39:00Z</time>
      </trkpt>
      <trkpt lat="43.55265" lon="3.75667">
        <ele>32.34</ele>
        <time>2017-10-08T14:39:04Z</time>
      </trkpt>
      <trkpt lat="43.55268" lon="3.75671">
        <ele>32.34</ele>
        <time>2017-10-08T14:39:05Z</time>
      </trkpt>
      <trkpt lat="43.5527" lon="3.75676">
        <ele>32.34</ele>
        <time>2017-10-08T14:39:06Z</time>
      </trkpt>
      <trkpt lat="43.55272" lon="3.75682">
        <ele>32.34</ele>
        <time>2017-10-08T14:39:07Z</time>
      </trkpt>
      <trkpt lat="43.55274" lon="3.75688">
        <ele>32.34</ele>
        <time>2017-10-08T14:39:08Z</time>
      </trkpt>
      <trkpt lat="43.55279" lon="3.75702">
        <ele>32.34</ele>
        <time>2017-10-08T14:39:10Z</time>
      </trkpt>
      <trkpt lat="43.55282" lon="3.75708">
        <ele>32.34</ele>
        <time>2017-10-08T14:39:11Z</time>
      </trkpt>
      <trkpt lat="43.55287" lon="3.7572">
        <ele>32.82</ele>
        <time>2017-10-08T14:39:13Z</time>
      </trkpt>
      <trkpt lat="43.55293" lon="3.7573">
        <ele>32.82</ele>
        <time>2017-10-08T14:39:15Z</time>
      </trkpt>
      <trkpt lat="43.55328" lon="3.75773">
        <ele>33.78</ele>
        <time>2017-10-08T14:39:25Z</time>
      </trkpt>
      <trkpt lat="43.55372" lon="3.75831">
        <ele>33.78</ele>
        <time>2017-10-08T14:39:39Z</time>
      </trkpt>
      <trkpt lat="43.55394" lon="3.75861">
        <ele>34.26</ele>
        <time>2017-10-08T14:39:48Z</time>
      </trkpt>
      <trkpt lat="43.55394" lon="3.75864">
        <ele>34.26</ele>
        <time>2017-10-08T14:39:49Z</time>
      </trkpt>
      <trkpt lat="43.55395" lon="3.75867">
        <ele>33.78</ele>
        <time>2017-10-08T14:39:50Z</time>
      </trkpt>
      <trkpt lat="43.55395" lon="3.75871">
        <ele>33.78</ele>
        <time>2017-10-08T14:39:51Z</time>
      </trkpt>
      <trkpt lat="43.55394" lon="3.75875">
        <ele>33.3</ele>
        <time>2017-10-08T14:39:52Z</time>
      </trkpt>
      <trkpt lat="43.55396" lon="3.75881">
        <ele>32.82</ele>
        <time>2017-10-08T14:39:54Z</time>
      </trkpt>
      <trkpt lat="43.55398" lon="3.75883">
        <ele>32.82</ele>
        <time>2017-10-08T14:39:55Z</time>
      </trkpt>
      <trkpt lat="43.554" lon="3.75885">
        <ele>32.82</ele>
        <time>2017-10-08T14:39:56Z</time>
      </trkpt>
      <trkpt lat="43.55402" lon="3.75886">
        <ele>33.3</ele>
        <time>2017-10-08T14:39:57Z</time>
      </trkpt>
      <trkpt lat="43.55404" lon="3.75888">
        <ele>33.3</ele>
        <time>2017-10-08T14:39:58Z</time>
      </trkpt>
      <trkpt lat="43.55406" lon="3.75891">
        <ele>33.3</ele>
        <time>2017-10-08T14:39:59Z</time>
      </trkpt>
      <trkpt lat="43.55408" lon="3.75894">
        <ele>32.82</ele>
        <time>2017-10-08T14:40:00Z</time>
      </trkpt>
      <trkpt lat="43.5542" lon="3.75917">
        <ele>33.3</ele>
        <time>2017-10-08T14:40:13Z</time>
      </trkpt>
      <trkpt lat="43.55421" lon="3.7592">
        <ele>33.78</ele>
        <time>2017-10-08T14:40:33Z</time>
      </trkpt>
      <trkpt lat="43.55422" lon="3.75922">
        <ele>33.78</ele>
        <time>2017-10-08T14:40:34Z</time>
      </trkpt>
      <trkpt lat="43.55424" lon="3.75923">
        <ele>33.3</ele>
        <time>2017-10-08T14:40:35Z</time>
      </trkpt>
      <trkpt lat="43.55458" lon="3.75963">
        <ele>32.34</ele>
        <time>2017-10-08T14:40:48Z</time>
      </trkpt>
      <trkpt lat="43.55466" lon="3.75978">
        <ele>32.34</ele>
        <time>2017-10-08T14:40:51Z</time>
      </trkpt>
      <trkpt lat="43.55472" lon="3.75986">
        <ele>32.34</ele>
        <time>2017-10-08T14:40:53Z</time>
      </trkpt>
      <trkpt lat="43.55481" lon="3.76018">
        <ele>31.86</ele>
        <time>2017-10-08T14:41:00Z</time>
      </trkpt>
      <trkpt lat="43.5548" lon="3.76024">
        <ele>31.86</ele>
        <time>2017-10-08T14:41:01Z</time>
      </trkpt>
      <trkpt lat="43.55478" lon="3.76029">
        <ele>31.86</ele>
        <time>2017-10-08T14:41:02Z</time>
      </trkpt>
      <trkpt lat="43.55475" lon="3.76035">
        <ele>31.86</ele>
        <time>2017-10-08T14:41:03Z</time>
      </trkpt>
      <trkpt lat="43.55472" lon="3.7604">
        <ele>31.86</ele>
        <time>2017-10-08T14:41:04Z</time>
      </trkpt>
      <trkpt lat="43.55469" lon="3.76044">
        <ele>31.86</ele>
        <time>2017-10-08T14:41:05Z</time>
      </trkpt>
      <trkpt lat="43.55447" lon="3.76075">
        <ele>30.9</ele>
        <time>2017-10-08T14:41:13Z</time>
      </trkpt>
      <trkpt lat="43.55447" lon="3.76078">
        <ele>30.9</ele>
        <time>2017-10-08T14:41:14Z</time>
      </trkpt>
      <trkpt lat="43.55448" lon="3.76082">
        <ele>30.9</ele>
        <time>2017-10-08T14:41:15Z</time>
      </trkpt>
      <trkpt lat="43.55449" lon="3.76086">
        <ele>30.9</ele>
        <time>2017-10-08T14:41:16Z</time>
      </trkpt>
      <trkpt lat="43.55451" lon="3.76091">
        <ele>30.9</ele>
        <time>2017-10-08T14:41:17Z</time>
      </trkpt>
      <trkpt lat="43.55453" lon="3.76095">
        <ele>30.42</ele>
        <time>2017-10-08T14:41:18Z</time>
      </trkpt>
      <trkpt lat="43.55456" lon="3.76101">
        <ele>30.42</ele>
        <time>2017-10-08T14:41:19Z</time>
      </trkpt>
      <trkpt lat="43.55458" lon="3.76104">
        <ele>29.94</ele>
        <time>2017-10-08T14:41:20Z</time>
      </trkpt>
      <trkpt lat="43.55461" lon="3.76109">
        <ele>29.94</ele>
        <time>2017-10-08T14:41:21Z</time>
      </trkpt>
      <trkpt lat="43.55464" lon="3.76112">
        <ele>29.94</ele>
        <time>2017-10-08T14:41:22Z</time>
      </trkpt>
      <trkpt lat="43.55467" lon="3.76116">
        <ele>29.46</ele>
        <time>2017-10-08T14:41:23Z</time>
      </trkpt>
      <trkpt lat="43.5551" lon="3.76177">
        <ele>28.98</ele>
        <time>2017-10-08T14:41:38Z</time>
      </trkpt>
      <trkpt lat="43.55561" lon="3.76253">
        <ele>30.9</ele>
        <time>2017-10-08T14:41:54Z</time>
      </trkpt>
      <trkpt lat="43.55609" lon="3.76325">
        <ele>31.86</ele>
        <time>2017-10-08T14:42:09Z</time>
      </trkpt>
      <trkpt lat="43.55661" lon="3.7641">
        <ele>30.42</ele>
        <time>2017-10-08T14:42:26Z</time>
      </trkpt>
      <trkpt lat="43.55708" lon="3.76492">
        <ele>26.57</ele>
        <time>2017-10-08T14:42:39Z</time>
      </trkpt>
      <trkpt lat="43.55757" lon="3.76564">
        <ele>22.73</ele>
        <time>2017-10-08T14:42:49Z</time>
      </trkpt>
      <trkpt lat="43.5576" lon="3.76565">
        <ele>22.73</ele>
        <time>2017-10-08T14:42:50Z</time>
      </trkpt>
      <trkpt lat="43.55763" lon="3.76564">
        <ele>22.73</ele>
        <time>2017-10-08T14:42:51Z</time>
      </trkpt>
      <trkpt lat="43.55766" lon="3.76561">
        <ele>22.73</ele>
        <time>2017-10-08T14:42:52Z</time>
      </trkpt>
      <trkpt lat="43.55801" lon="3.76517">
        <ele>22.25</ele>
        <time>2017-10-08T14:43:05Z</time>
      </trkpt>
      <trkpt lat="43.55847" lon="3.76495">
        <ele>22.73</ele>
        <time>2017-10-08T14:43:18Z</time>
      </trkpt>
      <trkpt lat="43.55881" lon="3.76447">
        <ele>23.69</ele>
        <time>2017-10-08T14:43:32Z</time>
      </trkpt>
      <trkpt lat="43.55927" lon="3.76427">
        <ele>24.17</ele>
        <time>2017-10-08T14:43:47Z</time>
      </trkpt>
      <trkpt lat="43.55988" lon="3.76414">
        <ele>26.57</ele>
        <time>2017-10-08T14:44:06Z</time>
      </trkpt>
      <trkpt lat="43.56026" lon="3.76409">
        <ele>30.42</ele>
        <time>2017-10-08T14:44:21Z</time>
      </trkpt>
      <trkpt lat="43.56064" lon="3.76401">
        <ele>30.9</ele>
        <time>2017-10-08T14:44:37Z</time>
      </trkpt>
      <trkpt lat="43.56103" lon="3.76405">
        <ele>31.86</ele>
        <time>2017-10-08T14:44:53Z</time>
      </trkpt>
      <trkpt lat="43.56153" lon="3.76422">
        <ele>33.3</ele>
        <time>2017-10-08T14:45:14Z</time>
      </trkpt>
      <trkpt lat="43.5619" lon="3.76431">
        <ele>34.74</ele>
        <time>2017-10-08T14:45:30Z</time>
      </trkpt>
      <trkpt lat="43.5623" lon="3.76444">
        <ele>35.71</ele>
        <time>2017-10-08T14:45:46Z</time>
      </trkpt>
      <trkpt lat="43.5627" lon="3.76446">
        <ele>38.11</ele>
        <time>2017-10-08T14:46:01Z</time>
      </trkpt>
      <trkpt lat="43.56304" lon="3.76437">
        <ele>36.67</ele>
        <time>2017-10-08T14:46:14Z</time>
      </trkpt>
      <trkpt lat="43.56346" lon="3.76426">
        <ele>37.15</ele>
        <time>2017-10-08T14:46:30Z</time>
      </trkpt>
      <trkpt lat="43.56385" lon="3.76416">
        <ele>37.15</ele>
        <time>2017-10-08T14:46:43Z</time>
      </trkpt>
      <trkpt lat="43.56422" lon="3.76386">
        <ele>39.07</ele>
        <time>2017-10-08T14:46:59Z</time>
      </trkpt>
      <trkpt lat="43.56455" lon="3.76395">
        <ele>40.99</ele>
        <time>2017-10-08T14:47:14Z</time>
      </trkpt>
      <trkpt lat="43.5648" lon="3.76424">
        <ele>40.51</ele>
        <time>2017-10-08T14:47:25Z</time>
      </trkpt>
      <trkpt lat="43.5651" lon="3.76445">
        <ele>40.03</ele>
        <time>2017-10-08T14:47:38Z</time>
      </trkpt>
      <trkpt lat="43.5655" lon="3.76459">
        <ele>42.44</ele>
        <time>2017-10-08T14:47:55Z</time>
      </trkpt>
      <trkpt lat="43.56596" lon="3.76465">
        <ele>44.84</ele>
        <time>2017-10-08T14:48:13Z</time>
      </trkpt>
      <trkpt lat="43.5663" lon="3.76464">
        <ele>45.8</ele>
        <time>2017-10-08T14:48:26Z</time>
      </trkpt>
      <trkpt lat="43.56682" lon="3.76464">
        <ele>45.32</ele>
        <time>2017-10-08T14:48:41Z</time>
      </trkpt>
      <trkpt lat="43.56739" lon="3.76464">
        <ele>45.8</ele>
        <time>2017-10-08T14:48:58Z</time>
      </trkpt>
      <trkpt lat="43.56807" lon="3.76464">
        <ele>43.4</ele>
        <time>2017-10-08T14:49:13Z</time>
      </trkpt>
      <trkpt lat="43.56875" lon="3.76479">
        <ele>41.47</ele>
        <time>2017-10-08T14:49:26Z</time>
      </trkpt>
      <trkpt lat="43.5688" lon="3.76482">
        <ele>41.47</ele>
        <time>2017-10-08T14:49:27Z</time>
      </trkpt>
      <trkpt lat="43.56884" lon="3.76485">
        <ele>40.99</ele>
        <time>2017-10-08T14:49:28Z</time>
      </trkpt>
      <trkpt lat="43.56888" lon="3.76488">
        <ele>40.99</ele>
        <time>2017-10-08T14:49:29Z</time>
      </trkpt>
      <trkpt lat="43.56891" lon="3.76493">
        <ele>40.99</ele>
        <time>2017-10-08T14:49:30Z</time>
      </trkpt>
      <trkpt lat="43.56894" lon="3.76498">
        <ele>40.51</ele>
        <time>2017-10-08T14:49:31Z</time>
      </trkpt>
      <trkpt lat="43.56896" lon="3.76503">
        <ele>40.51</ele>
        <time>2017-10-08T14:49:32Z</time>
      </trkpt>
      <trkpt lat="43.56898" lon="3.76509">
        <ele>40.03</ele>
        <time>2017-10-08T14:49:33Z</time>
      </trkpt>
      <trkpt lat="43.56899" lon="3.76515">
        <ele>40.03</ele>
        <time>2017-10-08T14:49:34Z</time>
      </trkpt>
      <trkpt lat="43.56911" lon="3.76609">
        <ele>38.11</ele>
        <time>2017-10-08T14:49:48Z</time>
      </trkpt>
      <trkpt lat="43.56912" lon="3.76616">
        <ele>38.11</ele>
        <time>2017-10-08T14:49:49Z</time>
      </trkpt>
      <trkpt lat="43.56932" lon="3.76714">
        <ele>36.67</ele>
        <time>2017-10-08T14:50:04Z</time>
      </trkpt>
      <trkpt lat="43.56939" lon="3.76752">
        <ele>36.19</ele>
        <time>2017-10-08T14:50:10Z</time>
      </trkpt>
      <trkpt lat="43.56943" lon="3.76779">
        <ele>36.67</ele>
        <time>2017-10-08T14:50:14Z</time>
      </trkpt>
      <trkpt lat="43.56944" lon="3.76785">
        <ele>36.67</ele>
        <time>2017-10-08T14:50:15Z</time>
      </trkpt>
      <trkpt lat="43.56951" lon="3.76817">
        <ele>37.15</ele>
        <time>2017-10-08T14:50:20Z</time>
      </trkpt>
      <trkpt lat="43.56953" lon="3.76823">
        <ele>37.15</ele>
        <time>2017-10-08T14:50:21Z</time>
      </trkpt>
      <trkpt lat="43.56956" lon="3.76829">
        <ele>37.15</ele>
        <time>2017-10-08T14:50:22Z</time>
      </trkpt>
      <trkpt lat="43.56958" lon="3.76834">
        <ele>37.63</ele>
        <time>2017-10-08T14:50:23Z</time>
      </trkpt>
      <trkpt lat="43.56961" lon="3.7684">
        <ele>37.63</ele>
        <time>2017-10-08T14:50:24Z</time>
      </trkpt>
      <trkpt lat="43.56986" lon="3.7688">
        <ele>37.63</ele>
        <time>2017-10-08T14:50:32Z</time>
      </trkpt>
      <trkpt lat="43.57026" lon="3.76923">
        <ele>36.67</ele>
        <time>2017-10-08T14:50:45Z</time>
      </trkpt>
      <trkpt lat="43.57076" lon="3.76969">
        <ele>36.19</ele>
        <time>2017-10-08T14:51:02Z</time>
      </trkpt>
      <trkpt lat="43.5711" lon="3.77009">
        <ele>36.19</ele>
        <time>2017-10-08T14:51:15Z</time>
      </trkpt>
      <trkpt lat="43.57156" lon="3.77055">
        <ele>37.15</ele>
        <time>2017-10-08T14:51:31Z</time>
      </trkpt>
      <trkpt lat="43.57191" lon="3.77086">
        <ele>36.19</ele>
        <time>2017-10-08T14:51:44Z</time>
      </trkpt>
      <trkpt lat="43.57236" lon="3.77125">
        <ele>37.63</ele>
        <time>2017-10-08T14:52:00Z</time>
      </trkpt>
      <trkpt lat="43.57266" lon="3.77153">
        <ele>38.59</ele>
        <time>2017-10-08T14:52:12Z</time>
      </trkpt>
      <trkpt lat="43.57285" lon="3.77194">
        <ele>37.63</ele>
        <time>2017-10-08T14:52:23Z</time>
      </trkpt>
      <trkpt lat="43.57285" lon="3.77199">
        <ele>37.63</ele>
        <time>2017-10-08T14:52:24Z</time>
      </trkpt>
      <trkpt lat="43.57274" lon="3.77242">
        <ele>36.67</ele>
        <time>2017-10-08T14:52:35Z</time>
      </trkpt>
      <trkpt lat="43.57258" lon="3.77299">
        <ele>36.67</ele>
        <time>2017-10-08T14:52:49Z</time>
      </trkpt>
      <trkpt lat="43.57255" lon="3.77323">
        <ele>36.67</ele>
        <time>2017-10-08T14:52:55Z</time>
      </trkpt>
      <trkpt lat="43.57254" lon="3.77326">
        <ele>36.19</ele>
        <time>2017-10-08T14:52:56Z</time>
      </trkpt>
      <trkpt lat="43.57251" lon="3.77342">
        <ele>36.19</ele>
        <time>2017-10-08T14:53:01Z</time>
      </trkpt>
      <trkpt lat="43.57251" lon="3.77344">
        <ele>35.71</ele>
        <time>2017-10-08T14:53:02Z</time>
      </trkpt>
      <trkpt lat="43.57251" lon="3.77346">
        <ele>35.71</ele>
        <time>2017-10-08T14:53:03Z</time>
      </trkpt>
      <trkpt lat="43.57251" lon="3.77349">
        <ele>35.71</ele>
        <time>2017-10-08T14:53:04Z</time>
      </trkpt>
      <trkpt lat="43.57252" lon="3.77351">
        <ele>35.71</ele>
        <time>2017-10-08T14:53:05Z</time>
      </trkpt>
      <trkpt lat="43.57253" lon="3.77353">
        <ele>35.71</ele>
        <time>2017-10-08T14:53:06Z</time>
      </trkpt>
      <trkpt lat="43.57255" lon="3.77355">
        <ele>35.71</ele>
        <time>2017-10-08T14:53:07Z</time>
      </trkpt>
      <trkpt lat="43.57257" lon="3.77356">
        <ele>35.71</ele>
        <time>2017-10-08T14:53:08Z</time>
      </trkpt>
      <trkpt lat="43.57259" lon="3.77357">
        <ele>36.19</ele>
        <time>2017-10-08T14:53:09Z</time>
      </trkpt>
      <trkpt lat="43.5729" lon="3.77379">
        <ele>33.3</ele>
        <time>2017-10-08T14:53:23Z</time>
      </trkpt>
      <trkpt lat="43.5732" lon="3.77395">
        <ele>29.46</ele>
        <time>2017-10-08T14:53:35Z</time>
      </trkpt>
      <trkpt lat="43.57331" lon="3.77412">
        <ele>32.34</ele>
        <time>2017-10-08T14:53:41Z</time>
      </trkpt>
      <trkpt lat="43.57332" lon="3.77416">
        <ele>32.34</ele>
        <time>2017-10-08T14:53:42Z</time>
      </trkpt>
      <trkpt lat="43.5734" lon="3.77445">
        <ele>33.3</ele>
        <time>2017-10-08T14:53:48Z</time>
      </trkpt>
      <trkpt lat="43.5734" lon="3.77451">
        <ele>33.3</ele>
        <time>2017-10-08T14:53:49Z</time>
      </trkpt>
      <trkpt lat="43.57339" lon="3.77467">
        <ele>32.82</ele>
        <time>2017-10-08T14:53:53Z</time>
      </trkpt>
      <trkpt lat="43.5734" lon="3.77469">
        <ele>32.82</ele>
        <time>2017-10-08T14:53:54Z</time>
      </trkpt>
      <trkpt lat="43.57341" lon="3.7747">
        <ele>32.82</ele>
        <time>2017-10-08T14:53:55Z</time>
      </trkpt>
      <trkpt lat="43.57369" lon="3.77482">
        <ele>34.74</ele>
        <time>2017-10-08T14:54:10Z</time>
      </trkpt>
      <trkpt lat="43.57372" lon="3.77488">
        <ele>34.26</ele>
        <time>2017-10-08T14:54:23Z</time>
      </trkpt>
      <trkpt lat="43.57371" lon="3.77486">
        <ele>33.78</ele>
        <time>2017-10-08T14:54:35Z</time>
      </trkpt>
      <trkpt lat="43.5737" lon="3.7749">
        <ele>33.78</ele>
        <time>2017-10-08T14:54:56Z</time>
      </trkpt>
      <trkpt lat="43.57372" lon="3.77486">
        <ele>35.23</ele>
        <time>2017-10-08T14:55:13Z</time>
      </trkpt>
      <trkpt lat="43.57371" lon="3.77482">
        <ele>34.74</ele>
        <time>2017-10-08T14:55:21Z</time>
      </trkpt>
      <trkpt lat="43.57373" lon="3.77466">
        <ele>35.23</ele>
        <time>2017-10-08T14:55:35Z</time>
      </trkpt>
      <trkpt lat="43.5738" lon="3.77466">
        <ele>34.26</ele>
        <time>2017-10-08T14:55:50Z</time>
      </trkpt>
      <trkpt lat="43.57376" lon="3.77466">
        <ele>33.78</ele>
        <time>2017-10-08T14:56:05Z</time>
      </trkpt>
      <trkpt lat="43.57371" lon="3.77467">
        <ele>34.26</ele>
        <time>2017-10-08T14:56:12Z</time>
      </trkpt>
      <trkpt lat="43.57369" lon="3.77474">
        <ele>35.71</ele>
        <time>2017-10-08T14:56:17Z</time>
      </trkpt>
      <trkpt lat="43.57367" lon="3.77483">
        <ele>35.71</ele>
        <time>2017-10-08T14:56:30Z</time>
      </trkpt>
      <trkpt lat="43.57366" lon="3.77484">
        <ele>35.23</ele>
        <time>2017-10-08T14:56:40Z</time>
      </trkpt>
      <trkpt lat="43.57357" lon="3.77484">
        <ele>35.71</ele>
        <time>2017-10-08T14:56:51Z</time>
      </trkpt>
      <trkpt lat="43.57355" lon="3.77482">
        <ele>36.67</ele>
        <time>2017-10-08T14:57:04Z</time>
      </trkpt>
      <trkpt lat="43.57355" lon="3.77478">
        <ele>38.11</ele>
        <time>2017-10-08T14:57:22Z</time>
      </trkpt>
      <trkpt lat="43.57359" lon="3.77478">
        <ele>37.15</ele>
        <time>2017-10-08T14:57:35Z</time>
      </trkpt>
      <trkpt lat="43.57361" lon="3.7748">
        <ele>37.15</ele>
        <time>2017-10-08T14:57:57Z</time>
      </trkpt>
      <trkpt lat="43.57362" lon="3.77478">
        <ele>36.19</ele>
        <time>2017-10-08T14:58:21Z</time>
      </trkpt>
      <trkpt lat="43.57364" lon="3.77477">
        <ele>40.03</ele>
        <time>2017-10-08T14:58:42Z</time>
      </trkpt>
      <trkpt lat="43.57363" lon="3.77477">
        <ele>40.99</ele>
        <time>2017-10-08T14:59:12Z</time>
      </trkpt>
      <trkpt lat="43.57362" lon="3.7748">
        <ele>41.47</ele>
        <time>2017-10-08T14:59:51Z</time>
      </trkpt>
      <trkpt lat="43.57363" lon="3.77479">
        <ele>41.95</ele>
        <time>2017-10-08T15:00:20Z</time>
      </trkpt>
      <trkpt lat="43.57367" lon="3.77481">
        <ele>42.44</ele>
        <time>2017-10-08T15:00:35Z</time>
      </trkpt>
      <trkpt lat="43.57375" lon="3.77483">
        <ele>41.95</ele>
        <time>2017-10-08T15:00:57Z</time>
      </trkpt>
      <trkpt lat="43.57374" lon="3.77485">
        <ele>40.03</ele>
        <time>2017-10-08T15:01:10Z</time>
      </trkpt>
      <trkpt lat="43.57369" lon="3.77477">
        <ele>39.07</ele>
        <time>2017-10-08T15:01:22Z</time>
      </trkpt>
      <trkpt lat="43.57349" lon="3.77468">
        <ele>38.11</ele>
        <time>2017-10-08T15:01:33Z</time>
      </trkpt>
      <trkpt lat="43.57345" lon="3.77471">
        <ele>38.11</ele>
        <time>2017-10-08T15:01:36Z</time>
      </trkpt>
      <trkpt lat="43.57342" lon="3.77507">
        <ele>36.19</ele>
        <time>2017-10-08T15:01:46Z</time>
      </trkpt>
      <trkpt lat="43.57339" lon="3.77563">
        <ele>34.74</ele>
        <time>2017-10-08T15:01:58Z</time>
      </trkpt>
      <trkpt lat="43.57337" lon="3.77635">
        <ele>32.82</ele>
        <time>2017-10-08T15:02:10Z</time>
      </trkpt>
      <trkpt lat="43.57335" lon="3.77717">
        <ele>30.42</ele>
        <time>2017-10-08T15:02:22Z</time>
      </trkpt>
      <trkpt lat="43.57335" lon="3.77723">
        <ele>29.94</ele>
        <time>2017-10-08T15:02:23Z</time>
      </trkpt>
      <trkpt lat="43.57336" lon="3.7773">
        <ele>29.94</ele>
        <time>2017-10-08T15:02:24Z</time>
      </trkpt>
      <trkpt lat="43.57344" lon="3.77802">
        <ele>28.02</ele>
        <time>2017-10-08T15:02:35Z</time>
      </trkpt>
      <trkpt lat="43.57373" lon="3.77901">
        <ele>28.98</ele>
        <time>2017-10-08T15:02:53Z</time>
      </trkpt>
      <trkpt lat="43.57397" lon="3.77977">
        <ele>27.05</ele>
        <time>2017-10-08T15:03:08Z</time>
      </trkpt>
      <trkpt lat="43.57415" lon="3.7804">
        <ele>27.05</ele>
        <time>2017-10-08T15:03:20Z</time>
      </trkpt>
      <trkpt lat="43.57441" lon="3.78129">
        <ele>27.53</ele>
        <time>2017-10-08T15:03:36Z</time>
      </trkpt>
      <trkpt lat="43.57446" lon="3.78139">
        <ele>28.02</ele>
        <time>2017-10-08T15:03:38Z</time>
      </trkpt>
      <trkpt lat="43.57495" lon="3.78211">
        <ele>28.5</ele>
        <time>2017-10-08T15:03:55Z</time>
      </trkpt>
      <trkpt lat="43.57514" lon="3.78243">
        <ele>29.46</ele>
        <time>2017-10-08T15:04:02Z</time>
      </trkpt>
      <trkpt lat="43.57517" lon="3.78247">
        <ele>29.46</ele>
        <time>2017-10-08T15:04:03Z</time>
      </trkpt>
      <trkpt lat="43.57519" lon="3.78251">
        <ele>29.46</ele>
        <time>2017-10-08T15:04:04Z</time>
      </trkpt>
      <trkpt lat="43.57523" lon="3.78255">
        <ele>29.46</ele>
        <time>2017-10-08T15:04:05Z</time>
      </trkpt>
      <trkpt lat="43.57526" lon="3.78259">
        <ele>29.46</ele>
        <time>2017-10-08T15:04:06Z</time>
      </trkpt>
      <trkpt lat="43.57532" lon="3.78265">
        <ele>29.46</ele>
        <time>2017-10-08T15:04:08Z</time>
      </trkpt>
      <trkpt lat="43.57535" lon="3.78268">
        <ele>29.46</ele>
        <time>2017-10-08T15:04:09Z</time>
      </trkpt>
      <trkpt lat="43.57538" lon="3.78272">
        <ele>29.46</ele>
        <time>2017-10-08T15:04:10Z</time>
      </trkpt>
      <trkpt lat="43.57541" lon="3.78275">
        <ele>29.46</ele>
        <time>2017-10-08T15:04:11Z</time>
      </trkpt>
      <trkpt lat="43.57544" lon="3.78278">
        <ele>29.46</ele>
        <time>2017-10-08T15:04:12Z</time>
      </trkpt>
      <trkpt lat="43.57594" lon="3.78331">
        <ele>29.94</ele>
        <time>2017-10-08T15:04:28Z</time>
      </trkpt>
      <trkpt lat="43.57647" lon="3.78386">
        <ele>30.42</ele>
        <time>2017-10-08T15:04:44Z</time>
      </trkpt>
      <trkpt lat="43.57702" lon="3.78445">
        <ele>30.42</ele>
        <time>2017-10-08T15:05:01Z</time>
      </trkpt>
      <trkpt lat="43.57755" lon="3.78503">
        <ele>31.38</ele>
        <time>2017-10-08T15:05:17Z</time>
      </trkpt>
      <trkpt lat="43.57785" lon="3.78535">
        <ele>32.34</ele>
        <time>2017-10-08T15:05:26Z</time>
      </trkpt>
      <trkpt lat="43.57847" lon="3.78609">
        <ele>32.82</ele>
        <time>2017-10-08T15:05:44Z</time>
      </trkpt>
      <trkpt lat="43.57904" lon="3.78686">
        <ele>33.78</ele>
        <time>2017-10-08T15:06:02Z</time>
      </trkpt>
      <trkpt lat="43.57957" lon="3.7877">
        <ele>30.9</ele>
        <time>2017-10-08T15:06:20Z</time>
      </trkpt>
      <trkpt lat="43.58001" lon="3.78828">
        <ele>31.38</ele>
        <time>2017-10-08T15:06:33Z</time>
      </trkpt>
      <trkpt lat="43.58005" lon="3.78831">
        <ele>31.38</ele>
        <time>2017-10-08T15:06:34Z</time>
      </trkpt>
      <trkpt lat="43.5802" lon="3.78847">
        <ele>29.94</ele>
        <time>2017-10-08T15:06:44Z</time>
      </trkpt>
      <trkpt lat="43.58054" lon="3.78875">
        <ele>28.5</ele>
        <time>2017-10-08T15:06:56Z</time>
      </trkpt>
      <trkpt lat="43.58098" lon="3.78909">
        <ele>28.5</ele>
        <time>2017-10-08T15:07:08Z</time>
      </trkpt>
      <trkpt lat="43.5814" lon="3.7893">
        <ele>28.98</ele>
        <time>2017-10-08T15:07:20Z</time>
      </trkpt>
      <trkpt lat="43.5815" lon="3.78939">
        <ele>29.94</ele>
        <time>2017-10-08T15:07:23Z</time>
      </trkpt>
      <trkpt lat="43.58154" lon="3.78942">
        <ele>29.94</ele>
        <time>2017-10-08T15:07:24Z</time>
      </trkpt>
      <trkpt lat="43.58193" lon="3.78984">
        <ele>33.3</ele>
        <time>2017-10-08T15:07:37Z</time>
      </trkpt>
      <trkpt lat="43.58201" lon="3.79">
        <ele>32.82</ele>
        <time>2017-10-08T15:07:40Z</time>
      </trkpt>
      <trkpt lat="43.58204" lon="3.79006">
        <ele>32.34</ele>
        <time>2017-10-08T15:07:41Z</time>
      </trkpt>
      <trkpt lat="43.58205" lon="3.79014">
        <ele>32.34</ele>
        <time>2017-10-08T15:07:42Z</time>
      </trkpt>
      <trkpt lat="43.58206" lon="3.79022">
        <ele>31.86</ele>
        <time>2017-10-08T15:07:43Z</time>
      </trkpt>
      <trkpt lat="43.58206" lon="3.7903">
        <ele>31.38</ele>
        <time>2017-10-08T15:07:44Z</time>
      </trkpt>
      <trkpt lat="43.58207" lon="3.79038">
        <ele>31.38</ele>
        <time>2017-10-08T15:07:45Z</time>
      </trkpt>
      <trkpt lat="43.58206" lon="3.79047">
        <ele>30.9</ele>
        <time>2017-10-08T15:07:46Z</time>
      </trkpt>
      <trkpt lat="43.58189" lon="3.79181">
        <ele>28.98</ele>
        <time>2017-10-08T15:08:02Z</time>
      </trkpt>
      <trkpt lat="43.58184" lon="3.7925">
        <ele>28.02</ele>
        <time>2017-10-08T15:08:12Z</time>
      </trkpt>
      <trkpt lat="43.58187" lon="3.79273">
        <ele>28.02</ele>
        <time>2017-10-08T15:08:16Z</time>
      </trkpt>
      <trkpt lat="43.58195" lon="3.79331">
        <ele>27.53</ele>
        <time>2017-10-08T15:08:29Z</time>
      </trkpt>
      <trkpt lat="43.58193" lon="3.79332">
        <ele>26.09</ele>
        <time>2017-10-08T15:08:40Z</time>
      </trkpt>
      <trkpt lat="43.58194" lon="3.7933">
        <ele>26.09</ele>
        <time>2017-10-08T15:08:43Z</time>
      </trkpt>
      <trkpt lat="43.58189" lon="3.79326">
        <ele>25.61</ele>
        <time>2017-10-08T15:08:54Z</time>
      </trkpt>
      <trkpt lat="43.58188" lon="3.79324">
        <ele>26.09</ele>
        <time>2017-10-08T15:09:09Z</time>
      </trkpt>
      <trkpt lat="43.58187" lon="3.79326">
        <ele>26.57</ele>
        <time>2017-10-08T15:09:28Z</time>
      </trkpt>
      <trkpt lat="43.5819" lon="3.7933">
        <ele>26.57</ele>
        <time>2017-10-08T15:09:43Z</time>
      </trkpt>
      <trkpt lat="43.58187" lon="3.79335">
        <ele>27.05</ele>
        <time>2017-10-08T15:09:55Z</time>
      </trkpt>
      <trkpt lat="43.58194" lon="3.79334">
        <ele>26.57</ele>
        <time>2017-10-08T15:10:11Z</time>
      </trkpt>
      <trkpt lat="43.58193" lon="3.79339">
        <ele>27.05</ele>
        <time>2017-10-08T15:10:20Z</time>
      </trkpt>
      <trkpt lat="43.58192" lon="3.7934">
        <ele>27.05</ele>
        <time>2017-10-08T15:10:21Z</time>
      </trkpt>
      <trkpt lat="43.58191" lon="3.79342">
        <ele>27.05</ele>
        <time>2017-10-08T15:10:22Z</time>
      </trkpt>
      <trkpt lat="43.5819" lon="3.79345">
        <ele>27.05</ele>
        <time>2017-10-08T15:10:23Z</time>
      </trkpt>
      <trkpt lat="43.58189" lon="3.79347">
        <ele>27.05</ele>
        <time>2017-10-08T15:10:24Z</time>
      </trkpt>
      <trkpt lat="43.58182" lon="3.79393">
        <ele>26.09</ele>
        <time>2017-10-08T15:10:38Z</time>
      </trkpt>
      <trkpt lat="43.58207" lon="3.79421">
        <ele>25.61</ele>
        <time>2017-10-08T15:10:51Z</time>
      </trkpt>
      <trkpt lat="43.58208" lon="3.79488">
        <ele>25.61</ele>
        <time>2017-10-08T15:11:05Z</time>
      </trkpt>
      <trkpt lat="43.58204" lon="3.79587">
        <ele>26.09</ele>
        <time>2017-10-08T15:11:23Z</time>
      </trkpt>
      <trkpt lat="43.58203" lon="3.79666">
        <ele>28.02</ele>
        <time>2017-10-08T15:11:39Z</time>
      </trkpt>
      <trkpt lat="43.58188" lon="3.7976">
        <ele>30.9</ele>
        <time>2017-10-08T15:11:58Z</time>
      </trkpt>
      <trkpt lat="43.58178" lon="3.79834">
        <ele>32.82</ele>
        <time>2017-10-08T15:12:15Z</time>
      </trkpt>
      <trkpt lat="43.58158" lon="3.79869">
        <ele>33.78</ele>
        <time>2017-10-08T15:12:28Z</time>
      </trkpt>
      <trkpt lat="43.58153" lon="3.79908">
        <ele>33.3</ele>
        <time>2017-10-08T15:12:40Z</time>
      </trkpt>
      <trkpt lat="43.5816" lon="3.79982">
        <ele>32.82</ele>
        <time>2017-10-08T15:12:56Z</time>
      </trkpt>
      <trkpt lat="43.58162" lon="3.80023">
        <ele>32.82</ele>
        <time>2017-10-08T15:13:05Z</time>
      </trkpt>
      <trkpt lat="43.58164" lon="3.80024">
        <ele>32.82</ele>
        <time>2017-10-08T15:13:06Z</time>
      </trkpt>
      <trkpt lat="43.58166" lon="3.80024">
        <ele>32.82</ele>
        <time>2017-10-08T15:13:07Z</time>
      </trkpt>
      <trkpt lat="43.58168" lon="3.80023">
        <ele>32.82</ele>
        <time>2017-10-08T15:13:08Z</time>
      </trkpt>
      <trkpt lat="43.58183" lon="3.80024">
        <ele>31.86</ele>
        <time>2017-10-08T15:13:14Z</time>
      </trkpt>
      <trkpt lat="43.58242" lon="3.80036">
        <ele>31.38</ele>
        <time>2017-10-08T15:13:33Z</time>
      </trkpt>
      <trkpt lat="43.58288" lon="3.80045">
        <ele>32.34</ele>
        <time>2017-10-08T15:13:48Z</time>
      </trkpt>
      <trkpt lat="43.58296" lon="3.80038">
        <ele>31.86</ele>
        <time>2017-10-08T15:13:52Z</time>
      </trkpt>
      <trkpt lat="43.58306" lon="3.79969">
        <ele>29.46</ele>
        <time>2017-10-08T15:14:08Z</time>
      </trkpt>
      <trkpt lat="43.58316" lon="3.79961">
        <ele>29.46</ele>
        <time>2017-10-08T15:14:12Z</time>
      </trkpt>
      <trkpt lat="43.58355" lon="3.79983">
        <ele>29.46</ele>
        <time>2017-10-08T15:14:26Z</time>
      </trkpt>
      <trkpt lat="43.58382" lon="3.80041">
        <ele>30.9</ele>
        <time>2017-10-08T15:14:40Z</time>
      </trkpt>
      <trkpt lat="43.58392" lon="3.80061">
        <ele>30.42</ele>
        <time>2017-10-08T15:14:45Z</time>
      </trkpt>
      <trkpt lat="43.58369" lon="3.80094">
        <ele>28.02</ele>
        <time>2017-10-08T15:14:55Z</time>
      </trkpt>
      <trkpt lat="43.58371" lon="3.80118">
        <ele>26.57</ele>
        <time>2017-10-08T15:15:01Z</time>
      </trkpt>
      <trkpt lat="43.5839" lon="3.80155">
        <ele>21.77</ele>
        <time>2017-10-08T15:15:15Z</time>
      </trkpt>
      <trkpt lat="43.58406" lon="3.80183">
        <ele>15.52</ele>
        <time>2017-10-08T15:15:27Z</time>
      </trkpt>
      <trkpt lat="43.58414" lon="3.80195">
        <ele>13.12</ele>
        <time>2017-10-08T15:15:33Z</time>
      </trkpt>
      <trkpt lat="43.58416" lon="3.80197">
        <ele>13.12</ele>
        <time>2017-10-08T15:15:34Z</time>
      </trkpt>
      <trkpt lat="43.58417" lon="3.802">
        <ele>13.12</ele>
        <time>2017-10-08T15:15:35Z</time>
      </trkpt>
      <trkpt lat="43.58417" lon="3.80202">
        <ele>13.12</ele>
        <time>2017-10-08T15:15:36Z</time>
      </trkpt>
      <trkpt lat="43.58418" lon="3.80205">
        <ele>13.12</ele>
        <time>2017-10-08T15:15:37Z</time>
      </trkpt>
      <trkpt lat="43.58418" lon="3.80207">
        <ele>12.63</ele>
        <time>2017-10-08T15:15:38Z</time>
      </trkpt>
      <trkpt lat="43.58423" lon="3.80232">
        <ele>7.83</ele>
        <time>2017-10-08T15:15:51Z</time>
      </trkpt>
      <trkpt lat="43.58433" lon="3.80248">
        <ele>18.4</ele>
        <time>2017-10-08T15:16:08Z</time>
      </trkpt>
    </trkseg>
  </trk>
</gpx>